     2              OBSERVATION DATA    G (GPS)             RINEX VERSION / TYPE
ASRINEXO V2.4.4 UX USGS 20-AUG-96 15:20                     PGM / RUN BY / DATE
Crustal Strain Project                                      COMMENT
U.S. Geological Survey, Menlo Park, California 94025        COMMENT
345 Middlefield Road, MS/977                                COMMENT
Contact: kwendt@isdmnl.wr.usgs.gov (Ph: 415-329-4866)       COMMENT
HI's are vertical to base of antenna                        COMMENT
chlk                                                        MARKER NAME
CHS USGS                                                    OBSERVER / AGENCY
*LP00141 ASHTECH Z-XII3 1F00                                REC # / TYPE / VERS
11416 ASH700718B NONE                                       ANT # / TYPE
 -2454939.0000 -4273448.0000  4037400.0000                  APPROX POSITION XYZ
        1.3812        0.0000        0.0000                  ANTENNA: DELTA H/E/N
     1     1                                                WAVELENGTH FACT L1/2
     5    C1    L1    L2    P1    P2                        # / TYPES OF OBSERV
    30                                                      INTERVAL
  1996     7     9    15    46    0.000000                  TIME OF FIRST OBS
                                                            END OF HEADER
 96  7  9 15 46  0.0000000  0  2  7  9
  18938872.910       13864.67319
  18382893.109       -6174.72619
 96  7  9 15 46 30.0000000  0  6 24  4  5  2  7  9
  19579863.627      -96087.46219    -51967.10559                  19579871.9314
  18177738.168      -45718.30919    -28859.71759                  18177744.0394
  20131000.610      -88232.68519
  20590415.507       52101.77819
  18950257.804       73687.22459     49525.99159  18950257.9644   18950262.9484
  18378596.049      -28751.42459    -18694.97759  18378597.4084   18378601.8564
 96  7  9 15 46 59.9990000  0  2  7  9
  21659768.689      133486.36449     96122.71249  21659769.5004   21659774.6494
  21072510.887      -50915.42749    -35965.63749  21072512.0884   21072516.3574
 96  7  9 15 47 29.9990000  0  6 24  4  5  2  7  9
  21940796.739     -292659.54359   -205140.09049  21940798.5404   21940804.1184
  20560253.764     -128870.69559    -93653.75649  20560255.6304   20560260.2434
  22496331.759     -261688.625 9
  23016004.002      195292.29859    138133.27459  23016004.6244   23016010.1604
  21371363.700      193332.07659    142755.71759  21371365.2174   21371370.6674
  20768584.112      -72636.80159    -52891.38859  20768586.2214   20768590.3454
 96  7  9 15 47 59.9990000  0  6 24  4  5  2  7  9
  22221932.671     -390689.24359   -281526.83159  22221936.9884   22221941.6594
  20852264.337     -169767.27759   -125521.21159  20852265.6974   20852270.3154
  22779605.788     -348496.649 9    -54806.99959                  22779613.0334
  23329452.266      267053.59559    194051.12159  23329452.7504   23329458.3804
  21682549.518      253204.89449    189409.87649  21682551.3814   21682556.1664
  21064328.971      -93908.53049    -69466.78449  21064330.8214   21064335.4284
 96  7  9 15 48 29.9990000  0  6 24  4  5  2  7  9
  22203313.422     -488544.97249   -357778.01849  22203315.0834   22203321.1854
  20844569.720     -210201.09449   -157028.06349  20844571.5184   20844576.1764
  22763080.835     -435336.49659   -122474.40949  22763082.1494   22763088.0044
  23343128.060      338926.40849    250055.88949  23343129.1084   23343135.2484
  21693949.795      313112.17849    236090.84849  21693951.5964   21693956.3074
  21060363.252     -114751.14049    -85707.77449  21060364.6054   21060369.0414
 96  7  9 15 48 59.9990000  0  6 24  4  5  2  7  9
  22184727.306     -586217.09149   -433886.14449  22184728.5844   22184734.8884
  20836962.507     -250175.06249   -188176.59549  20836964.5124   20836969.3574
  22746551.717     -522198.64749   -190159.18249  22746552.7364   22746558.3324
  23356824.275      410908.12149    306145.49449  23356827.4004   23356832.8584
  21705354.601      373044.10849    282791.04649  21705356.1004   21705361.0874
  21056477.464     -135171.73849   -101619.93049  21056479.1374   21056483.2574
 96  7  9 15 49 29.9990000  0  6 24  4  5  2  7  9
  22166179.748     -683681.36349   -509832.30549  22166182.1154   22166187.6584
  20829446.144     -289675.42349   -218956.07949  20829447.9884   20829452.7714
  22730020.389     -609069.06449   -257850.39349  22730022.1164   22730026.4114
  23370547.510      483014.30749    362332.09749  23370548.3194   23370553.4364
  21716764.021      433001.57149    329511.13849  21716765.4724   21716770.3364
  21052673.578     -155160.02749   -117195.22749  21052675.2404   21052679.5734
 96  7  9 15 49 59.9990000  0  6 24  4  5  2  7  9
  22147668.043     -780963.19949   -585636.31149  22147669.5274   22147675.7304
  20822011.957     -328741.07549   -249396.83549  20822014.2174   20822018.7974
  22713477.929     -696001.52249   -325589.95349  22713479.2194   22713485.0954
  23384282.797      555197.65549    418578.81449  23384284.5814   23384290.4834
  21728173.419      492958.97949    376231.18449  21728174.9854   21728180.0544
  21048945.982     -174746.87549   -132457.71549  21048947.7244   21048952.1194
 96  7  9 15 50 29.9990000  0  6 24  4  5  2  7  9
  22129190.262     -878059.85149   -661296.00549  22129192.9584   22129198.6464
  20814658.947     -367383.18449   -279507.55349  20814661.0464   20814665.4384
  22696919.979     -783011.75349   -393390.11849  22696921.3524   22696927.2054
  23398030.558      627447.19249    474877.10349  23398033.3184   23398039.2694
  21739583.748      552920.41649    422954.36849  21739585.2834   21739590.2414
  21045298.487     -193917.52249   -147395.89249  21045300.0274   21045304.2714
 96  7  9 15 50 59.9990000  0  6 24  4  5  2  7  9
  22110750.375     -974964.56849   -736806.14749  22110752.4884   22110758.3384
  20807386.690     -405598.55649   -309285.74849  20807389.0864   20807393.1824
  22680347.235     -870102.87049   -461253.30849  22680349.1684   22680354.2824
  23411795.584      699773.22549    531235.01249  23411796.1854   23411802.3554
  21750995.422      612892.80249    469686.08849  21750997.8724   21751002.4344
  21041730.536     -212667.93349   -162006.60949  21041731.9954   21041736.1284
 96  7  9 15 51 29.9990000  0  6 24  4  5  2  7  9
  22092352.704    -1071645.74549   -812142.12449  22092354.8404   22092360.8464
  20800204.342     -443342.83149   -338696.85649  20800206.5004   20800210.8844
  22663766.209     -957237.61249   -529150.48349  22663767.8504   22663772.6584
  23425582.007      772229.15549    587694.13249  23425584.1424   23425590.5274
  21762418.051      672917.97249    516458.93949  21762420.2564   21762424.6324
  21038250.925     -230951.78049   -176253.77249  21038252.5834   21038256.8134
 96  7  9 15 51 59.9990000  0  6 24  4  5  2  7  9
  22073999.384    -1168095.00149   -887297.36549  22074001.6514   22074006.8494
  20793112.111     -480610.23549   -367736.37749  20793114.5274   20793119.3914
  22647178.536    -1044402.20049   -597070.92749  22647180.8654   22647185.8114
  23439397.265      844824.14449    644261.61749  23439398.7694   23439404.6884
  21773853.486      733009.19349    563283.25649  21773855.2854   21773860.0594
  21034861.177     -248763.69649   -190133.19749  21034863.0094   21034867.6504
 96  7  9 15 52 29.9990000  0  6 24  4  5  2  7  9
  22055683.018    -1264345.32049   -962297.56849  22055685.3574   22055691.3194
  20786107.127     -517419.53249   -396418.93049  20786109.8624   20786114.9064
  22630586.288    -1131600.02949   -665017.25849  22630587.2064   22630592.9424
  23453232.953      917535.84749    700920.03549  23453235.6624   23453241.5024
  21785295.744      793137.45949    610136.44249  21785297.2484   21785302.2494
  21031554.778     -266139.59049   -203672.86449  21031556.7084   21031560.6684
 96  7  9 15 52 59.9990000  0  6 24  4  5  2  7  9
  22037403.012    -1360408.52949  -1037151.98549  22037405.1674   22037411.1204
  20779189.726     -553773.76249   -424746.88849  20779191.9654   20779196.5984
  22613987.702    -1218823.27049   -732983.39549  22613989.2874   22613994.9294
  23467091.008      990351.20449    757659.22049  23467091.8104   23467097.7894
  21796741.862      853287.49549    657006.58849  21796743.7034   21796748.2384
  21028330.124     -283085.49549   -216877.47349  21028331.9014   21028336.2774
 96  7  9 15 53 29.9990000  0  6 24  4  5  2  7  9
  22019158.467    -1456287.43549  -1111862.78549  22019160.1054   22019165.7574
  20772355.041     -589690.19849   -452733.70849  20772357.2214   20772361.9904
  22597385.081    -1306072.19649   -800969.53749  22597386.5574   22597392.1454
  23480962.758     1063251.96849    814464.95149  23480964.6994   23480970.5774
  21808188.088      913440.47449    703879.02549  21808190.2274   21808195.1574
  21025188.837     -299592.55249   -229740.12049  21025190.5964   21025195.1774
 96  7  9 15 53 59.9990000  0  6 24  4  5  2  7  9
  22000946.556    -1551988.33749  -1186434.89049  22000949.1044   22000954.7714
  20765599.911     -625186.83349   -480393.41249  20765602.4024   20765607.1364
  22580775.843    -1393352.10049   -868979.83849  22580778.4664   22580783.0274
  23494846.854     1136218.39249    871321.86549  23494848.8224   23494855.6354
  21819632.505      973581.04349    750741.79649  21819634.2464   21819639.6734
  21022127.740     -315679.09549   -242275.09449  21022129.5234   21022134.0844
 96  7  9 15 54 29.9990000  0  6 24  4  5  2  7  9
  21982779.870    -1647452.20149  -1260822.27549  21982782.7894   21982788.9684
  20758940.623     -660183.03749   -507663.17649  20758943.2114   20758947.5724
  22564176.128    -1480583.61849   -936952.42649  22564178.4294   22564183.5904
  23508760.486     1209327.16049    928289.69649  23508761.3014   23508767.5974
  21831087.004     1033775.38649    797646.46549  21831089.2434   21831094.2414
  21019161.089     -331267.70849   -254422.07349  21019163.2124   21019167.7384
 96  7  9 15 54 59.9990000  0  6 24  4  5  2  7  9
  21964658.399    -1742683.15849  -1335028.17349  21964660.9974   21964666.8574
  20752372.508     -694697.07649   -534557.22349  20752375.2244   20752379.7054
  22547584.671    -1567772.05249  -1004891.44749  22547586.8394   22547592.1434
  23522697.082     1282569.71549    985361.77749  23522699.2644   23522705.3864
  21842550.328     1094015.72449    844586.97949  21842552.5234   21842557.3454
  21016290.183     -346354.22049   -266177.80549  21016292.2894   21016296.9464
 96  7  9 15 55 29.9990000  0  6 24  4  5  2  7  9
  21946580.677    -1837679.84749  -1409051.53549  21946583.4554   21946589.7284
  20745895.151     -728737.44449   -561082.16949  20745897.6734   20745902.0754
  22530996.768    -1654941.16649  -1072815.40449  22530999.2834   22531004.2984
  23536660.154     1355943.11449   1042535.80649  23536661.4954   23536668.2084
  21854021.585     1154298.13749    891560.27549  21854023.8194   21854029.0014
  21013511.769     -360952.90549   -277553.40749  21013514.2184   21013518.6984
 96  7  9 15 55 59.9990000  0  6 24  4  5  2  7  9
  21928546.425    -1932452.81949  -1482900.57349  21928548.4244   21928554.8074
  20739509.793     -762292.43449   -587228.90249  20739512.2714   20739516.4634
  22514409.942    -1742107.03749  -1140736.84049  22514411.7144   22514417.1104
  23550643.879     1429431.41049   1099799.36249  23550646.1404   23550652.2834
  21865500.260     1214615.70549    938560.96349  21865502.1174   21865506.6824
  21010822.659     -375086.99749   -288566.99349  21010824.8454   21010829.2694
 96  7  9 15 56 29.9990000  0  6 24  4  5  2  7  9
  21910555.166    -2026996.25149  -1556570.74549  21910557.8044   21910564.3034
  20733217.559     -795359.91749   -612995.75749  20733219.9794   20733223.9004
  22497822.753    -1829272.23449  -1208657.75549  22497824.9174   22497829.8684
  23564648.745     1503020.44949   1157141.42449  23564649.8244   23564655.6704
  21876985.801     1274975.88349    985594.85549  21876987.8994   21876992.4944
  21008221.779     -388754.19549   -299216.76549  21008223.9444   21008228.5254
 96  7  9 15 56 59.9990000  0  6 24  4  5  2  7  9
  21892613.712    -2121280.64649  -1630039.08049  21892615.7654   21892621.8734
  20727017.324     -827938.17349   -638381.40749  20727020.6004   20727024.5404
  22481236.276    -1916435.56149  -1276577.21849  22481238.0584   22481243.5594
  23578668.756     1576701.63949   1214555.29549  23578670.6454   23578677.2944
  21888481.318     1335385.71849   1032667.43649  21888484.0194   21888488.4694
  21005708.490     -401960.98449   -309507.77849  21005710.7224   21005715.0904
 96  7  9 15 57 29.9990000  0  6 24  4  5  2  7  9
  21874721.805    -2215303.36849  -1703303.50149  21874723.9954   21874730.3134
  20720914.185     -860012.25049   -663374.18449  20720916.7084   20720921.3504
  22464648.012    -2003607.35149  -1344503.26949  22464649.8684   22464655.3124
  23592703.790     1650453.73649   1272024.42149  23592705.5424   23592711.5274
  21899983.328     1395829.00749   1079766.08349  21899985.8504   21899990.9054
  21003278.738     -414729.62549   -319457.37349  21003281.0454   21003285.5344
 96  7  9 15 57 59.9990000  0  6 24  4  5  2  7  9
  21856880.379    -2309056.66649  -1776357.99149  21856883.1704   21856889.4094
  20714908.412     -891572.20049   -687966.34849  20714911.1714   20714915.7504
  22448063.980    -2090757.97949  -1412412.82649  22448066.0764   22448070.9424
  23606749.971     1724274.68949   1329547.21249  23606753.1724   23606759.4184
  21911493.801     1456315.00349   1126898.01249  21911496.0374   21911501.1034
  21000932.896     -427057.20549   -329063.29149  21000935.2684   21000939.5394
 96  7  9 15 58 29.9990000  0  6 24  4  5  2  7  9
  21839092.674    -2402531.15449  -1849195.21949  21839095.6804   21839101.6844
  20708997.102     -922634.20749   -712170.50549  20709000.2634   20709004.4714
  22431483.647    -2177887.25349  -1480305.75349  22431485.9114   22431490.1964
  23620814.418     1798173.50149   1387130.65649  23620815.6774   23620821.3894
  21923013.172     1516846.64649   1174065.50849  21923014.8874   21923019.9784
  20998672.789     -438934.43149   -338318.28449  20998675.1904   20998679.3064
 96  7  9 15 58 59.9990000  0  6 24  4  5  2  7  9
  21821359.142    -2495724.28649  -1921813.21249  21821361.5244   21821367.5274
  20703181.426     -953196.84149   -735985.54049  20703184.4904   20703189.1054
  22414905.537    -2265003.00849  -1548188.14849  22414908.3364   22414912.9254
  23634893.535     1872163.84249   1444785.41449  23634896.0504   23634902.0434
  21934536.342     1577404.69549   1221253.58249  21934539.0444   21934543.7914
  20996500.200     -450351.32249   -347214.56949  20996502.5744   20996506.7204
 96  7  9 15 59 29.9990000  0  6 24  4  5  2  7  9
  21803678.363    -2588635.40049  -1994211.46449  21803681.1534   21803687.1784
  20697463.860     -983245.63349   -759400.17949  20697466.4134   20697471.0174
  22398330.294    -2352108.81349  -1616062.78549  22398332.1064   22398337.4924
  23648996.132     1946270.43849   1502530.74549  23648998.0604   23649003.7364
  21946065.504     1637992.45849   1268464.80749  21946068.5344   21946073.3474
  20994421.034     -461278.70949   -355729.42849  20994423.4074   20994427.7144
 96  7  9 15 59 59.9990000  0  6 24  4  5  2  7  9
  21786050.652    -2681267.61149  -2066392.35649  21786053.9514   21786059.6944
  20691841.694    -1012788.70649   -782420.74849  20691844.8154   20691848.7994
  22381755.701    -2439207.11449  -1683931.56949  22381758.1054   22381763.1204
  23663124.499     2020524.27549   1560390.81949  23663126.7904   23663133.3154
  21957602.530     1698614.00249   1315702.35449  21957603.9304   21957609.6444
  20992437.449     -471701.41049   -363851.02549  20992439.8954   20992444.3054
 96  7  9 16  0 29.9990000  0  6 24  4  5  2  7  9
  21768476.571    -2773622.49649  -2138357.15849  21768479.3594   21768485.1984
  20686319.224    -1041811.76849   -805036.11249  20686321.6734   20686325.8384
  22365181.823    -2526304.83349  -1751799.91449  22365184.0414   22365189.0124
  23677287.716     2094945.59949   1618381.39749  23677289.4234   23677296.4554
  21969143.049     1759261.89549   1362960.43049  21969145.3554   21969150.3874
  20990552.775     -481605.06149   -371568.16549  20990555.4014   20990559.8724
 96  7  9 16  0 59.9990000  0  6 24  4  5  2  7  9
  21750955.038    -2865700.86649  -2210106.49949  21750957.5434   21750963.2164
  20680897.581    -1070300.43149   -827235.05749  20680900.6284   20680904.9494
  22348609.243    -2613395.47349  -1819662.73649  22348611.5054   22348616.2734
  23691481.321     2169538.11249   1676505.37949  23691484.3424   23691490.5514
  21980688.947     1819934.54349   1410237.80149  21980690.6124   21980695.5244
  20988767.525     -490987.03549   -378878.80649  20988769.9854   20988774.5994
 96  7  9 16  1 29.9990000  0  6 24  4  5  2  7  9
  21733482.967    -2957514.29649  -2281649.39649  21733486.0364   21733491.3234
  20675577.145    -1098260.54149   -849022.15249  20675580.0814   20675584.5694
  22332037.614    -2700477.30849  -1887518.70049  22332039.9714   22332045.4124
  23705707.406     2244289.69049   1734753.30049  23705708.8004   23705714.7474
  21992242.023     1880646.32149   1457545.65649  21992244.0204   21992248.6694
  20987078.603     -499863.05049   -385795.19049  20987080.8674   20987085.1274
 96  7  9 16  1 59.9990000  0  6 24  4  5  2  7  9
  21716060.672    -3049070.06849  -2352991.53449  21716063.1594   21716068.7964
  20670354.406    -1125706.30949   -870408.46249  20670357.1114   20670361.5144
  22315470.584    -2787539.89849  -1955359.67149  22315472.9004   22315477.3904
  23719957.088     2319179.24649   1793108.75149  23719959.8994   23719966.0454
  22003803.040     1941403.58749   1504888.96449  22003805.6874   22003810.2204
  20985481.290     -508257.44349   -392336.28549  20985483.5674   20985487.8604
 96  7  9 16  2 29.9990000  0  6 24  4  5  2  7  9
  21698690.252    -3140352.90849  -2424120.99349  21698692.6044   21698698.5784
  20665230.503    -1152630.99249   -891388.72649  20665233.5254   20665237.9194
  22298908.551    -2874570.49449  -2023175.70249  22298911.0364   22298916.3694
  23734232.804     2394188.34549   1851557.34749  23734234.3134   23734239.2754
  22015374.159     2002210.79349   1552271.18149  22015376.8124   22015381.8144
  20983975.773     -516166.91649   -398499.52349  20983978.2824   20983982.4304
 96  7  9 16  2 59.9990000  0  6 24  4  5  2  7  9
  21681375.526    -3231338.51349  -2495018.83449  21681378.9834   21681384.5254
  20660204.511    -1179043.58949   -911969.96049  20660207.4734   20660212.0094
  22282355.401    -2961560.54749  -2090960.14549  22282357.6894   22282362.8694
  23748526.845     2469305.29849   1910089.96849  23748528.7294   23748533.5814
  22026956.927     2063075.61049   1599698.29449  22026959.2794   22026963.7934
  20982562.059     -523595.92049   -404288.36549  20982564.6074   20982569.1184
 96  7  9 16  3 29.9990000  0  6 24  4  5  2  7  9
  21664119.773    -3322018.99149  -2565678.93649  21664122.9174   21664128.5104
  20655275.510    -1204945.38749   -932153.17649  20655278.4904   20655282.9444
  22265811.420    -3048498.27349  -2158703.81449  22265813.9474   22265818.9054
  23762839.476     2544523.52949   1968701.51549  23762842.7164   23762847.8494
  22038549.939     2123998.83949   1647170.92349  22038552.1264   22038557.2404
  20981237.064     -530559.15849   -409714.27549  20981239.6394   20981243.9664
 96  7  9 16  3 59.9990000  0  6 24  4  5  2  7  9
  21646926.742    -3412370.26849  -2636082.50849  21646929.7424   21646935.1424
  20650444.007    -1230333.30949   -951935.96649  20650447.2244   20650451.8304
  22249281.063    -3135365.56249  -2226392.59649  22249283.9954   22249289.1844
  23777176.311     2619853.65449   2027400.23549  23777177.3874   23777183.1174
  22050151.766     2184967.71849   1694679.11649  22050154.7484   22050158.9604
  20980002.065     -537048.05049   -414770.56149  20980004.6994   20980008.8994
 96  7  9 16  4 29.9990000  0  6 24  4  5  2  7  9
  21629798.499    -3502379.90749  -2706219.86549  21629801.5354   21629806.8304
  20645711.650    -1255202.70449   -971314.71149  20645715.0224   20645719.3014
  22232766.361    -3222150.76949  -2294017.42349  22232768.5154   22232774.3894
  23791532.651     2695305.32249   2086193.65749  23791535.6934   23791541.2374
  22061760.478     2245967.64749   1742211.50849  22061762.4904   22061767.2334
  20978861.345     -543045.42949   -419443.85849  20978863.8224   20978868.0274
 96  7  9 16  4 59.9990000  0  6 24  4  5  2  7  9
  21612732.466    -3592062.80949  -2776102.61949  21612735.6784   21612740.9734
  20641075.013    -1279570.68449   -990302.74049  20641077.9534   20641082.3444
  22216268.269    -3308849.63049  -2361574.96249  22216270.5794   22216276.1784
  23805914.067     2770880.20349   2145083.11749  23805916.8804   23805923.0454
  22073375.331     2307005.08049   1789773.12449  22073377.7214   22073382.6414
  20977814.353     -548547.15049   -423730.92149  20977816.7484   20977820.9624
 96  7  9 16  5 29.9990000  0  6 24  4  5  2  7  9
  21595725.859    -3681434.91549  -2845743.20649  21595728.8824   21595733.9884
  20636534.155    -1303433.49349  -1008897.13149  20636537.0974   20636541.3564
  22199788.866    -3395449.04449  -2429055.01049  22199791.5104   22199796.8464
  23820323.315     2846596.80649   2204082.99849  23820324.1494   23820331.6424
  22085000.130     2368094.57549   1837375.30649  22085002.2894   22085007.4514
  20976865.599     -553534.79249   -427617.41049  20976867.7224   20976871.7354
 96  7  9 16  5 59.9990000  0  6 24  4  5  2  7  9
  21578778.596    -3770493.51649  -2915139.49249  21578781.5474   21578786.7774
  20632088.572    -1326796.08349  -1027101.73649  20632091.3814   20632095.7294
  22183327.496    -3481956.93749  -2496463.74049  22183329.5644   22183334.5054
  23834758.170     2922460.31349   2263197.36549  23834761.1704   23834767.6124
  22096635.994     2429240.93849   1885021.80349  22096638.4554   22096643.3804
  20976018.052     -557986.57149   -431086.34049  20976020.4654   20976024.2414
 96  7  9 16  6 29.9990000  0  6 24  4  5  2  7  9
  21561889.111    -3859247.09049  -2984298.10149  21561892.1084   21561897.7354
  20627739.264    -1349648.20149  -1044908.57949  20627742.7064   20627747.0434
  22166881.038    -3568379.41249  -2563805.91649  22166883.5914   22166889.1014
  23849222.158     2998472.25449   2322427.38549  23849225.7844   23849231.6124
  22108282.765     2490448.77649   1932716.20149  22108285.7844   22108290.6584
  20975274.342     -561894.36749   -434131.39149  20975277.0274   20975281.1304
 96  7  9 16  6 59.9990000  0  6 24  4  5  2  7  9
  21545062.854    -3947670.22849  -3053199.23749  21545065.6114   21545071.2704
  20623491.905    -1371968.50549  -1062301.02049  20623495.2564   20623499.6364
  22150449.715    -3654727.56749  -2631090.17249  22150452.2954   22150457.5674
  23863719.592     3074643.98149   2381781.90449  23863721.4374   23863727.9704
  22119946.362     2551738.76149   1980474.61749  22119948.8414   22119953.5934
  20974634.790     -565256.40949   -436751.17749  20974637.4044   20974641.5774
 96  7  9 16  7 29.9990000  0  6 24  4  5  2  7  9
  21528299.145    -4035759.78949  -3121840.42749  21528302.6274   21528308.6364
  20619348.841    -1393744.17849  -1079269.07249  20619351.5944   20619355.7104
  22134028.042    -3741022.94549  -2698333.30649  22134030.4754   22134035.8404
  23878240.848     3150958.71849   2441247.86849  23878243.2774   23878249.9604
  22131619.902     2613082.43749   2028274.86349  22131622.2674   22131627.5794
  20974093.119     -568102.21749   -438968.70549  20974095.8624   20974100.0164
 96  7  9 16  7 59.9990000  0  6 24  4  5  2  7  9
  21511606.362    -4123483.33749  -3190196.40249  21511609.1684   21511615.2444
  20615314.883    -1414939.63049  -1095785.00149  20615317.9104   20615322.4034
  22117618.764    -3827255.33249  -2765527.36349  22117621.1854   22117625.9664
  23892791.299     3227418.56749   2500826.90249  23892792.9604   23892800.1264
  22143302.225     2674474.59649   2076112.88949  22143304.6914   22143309.7204
  20973650.547     -570428.36249   -440781.29949  20973653.0564   20973657.3204
 96  7  9 16  8 29.9990000  0  6 24  4  5  2  7  9
  21494979.610    -4210856.46149  -3258279.32049  21494982.6544   21494988.7354
  20611394.104    -1435545.76449  -1111841.72249  20611396.9474   20611401.2194
  22101220.044    -3913432.17849  -2832678.14049  22101222.5254   22101227.2474
  23907364.036     3304011.40349   2560509.58749  23907367.6244   23907375.5284
  22154990.683     2735899.05949   2123976.09349  22154993.3024   22154998.2554
  20973303.606     -572249.57349   -442200.43349  20973306.3764   20973310.9624
 96  7  9 16  8 59.9990000  0  6 24  4  5  2  7  9
  21478420.702    -4297873.30249  -3326084.60849  21478423.5484   21478429.9634
  20607585.161    -1455560.48649  -1127437.60049  20607588.2654   20607592.0834
  22084834.064    -3999541.38249  -2899776.20649  22084836.5674   22084841.7014
  23921967.928     3380738.05449   2620296.53349  23921968.5884   23921975.4944
  22166689.916     2797377.29549   2171881.18949  22166692.0924   22166697.0554
  20973052.922     -573567.68249   -443227.54049  20973055.7194   20973059.9534
 96  7  9 16  9 29.9990000  0  6 24  4  5  2  7  9
  21461926.547    -4384549.39649  -3393624.38849  21461929.7574   21461935.8244
  20603887.880    -1474989.75149  -1142577.27949  20603890.9134   20603895.2134
  22068466.355    -4085554.06249  -2966799.06149  22068468.6784   22068473.8524
  23936592.462     3457602.76849   2680191.04449  23936595.9684   23936602.5504
  22178400.514     2858918.09349   2219835.04149  22178403.3964   22178408.2914
  20972900.068     -574371.89249   -443854.20749  20972902.6824   20972906.8284
 96  7  9 16  9 59.9990000  0  6 24  4  5  2  7  9
  21445497.595    -4470887.52749  -3460900.82949  21445500.4324   21445506.6984
  20600298.161    -1493854.05349  -1157276.72549  20600301.1294   20600305.4704
  22052117.114    -4171470.00749  -3033746.54649  22052119.4644   22052124.6554
  23951247.386     3534615.92749   2740201.24049  23951250.8854   23951257.8424
  22190125.313     2920533.98749   2267847.41149  22190128.0544   22190133.2754
  20972846.957     -574652.06049   -444072.53449  20972849.4774   20972853.6314
 96  7  9 16 10 29.9990000  0  6 24  4  5  2  7  9
  21429131.456    -4556888.41849  -3527914.47949  21429134.9884   21429140.7834
  20596811.172    -1512176.75649  -1171554.15049  20596814.4874   20596819.0414
  22035786.333    -4257287.50549  -3100617.30649  22035789.5514   22035794.0694
  23965932.679     3611782.91149   2800331.28649  23965935.3214   23965943.0004
  22201868.174     2982241.50349   2315931.16149  22201870.9434   22201875.9674
  20972893.502     -574408.44549   -443882.71549  20972895.8074   20972900.0134
 96  7  9 16 10 59.9990000  0  6 24  4  5  2  7  9
  21412833.304    -4642536.97949  -3594653.60049  21412836.6424   21412842.3724
  20593424.269    -1529976.25149  -1185423.88149  20593427.2874   20593431.8244
  22019476.820    -4342996.17949  -3167403.28049  22019479.1694   22019484.1624
  23980649.688     3689111.43449   2860587.19549  23980651.2404   23980657.8284
  22213628.130     3044039.53049   2364085.44749  22213630.4584   22213635.8094
  20973038.531     -573645.13249   -443287.94849  20973041.1874   20973045.6024
 96  7  9 16 11 29.9990000  0  6 24  4  5  2  7  9
  21396603.105    -4727829.63749  -3661115.39549  21396606.1344   21396611.9094
  20590135.992    -1547256.36049  -1198888.89649  20590139.3424   20590143.6094
  22003183.547    -4428614.68049  -3234118.98249  22003186.3764   22003190.9614
  23995395.951     3766602.03549   2920969.41649  23995396.4704   23995403.6044
  22225400.049     3105902.04649   2412289.98349  22225402.8254   22225407.8574
  20973281.034     -572372.21549   -442296.07949  20973283.4644   20973287.7264
 96  7  9 16 11 59.9990000  0  6 24  4  5  2  7  9
  21380445.604    -4812738.81249  -3727278.36549  21380448.2534   21380454.2544
  20586947.879    -1564010.38849  -1211943.98149  20586950.8974   20586955.4254
  21986910.277    -4514133.06149  -3300756.66449  21986912.7304   21986918.5914
  24010174.489     3844267.58849   2981487.95949  24010176.3484   24010183.8314
  22237181.738     3167815.88249   2460534.51549  22237184.3734   22237189.2344
  20973621.652     -570581.21149   -440900.50749  20973624.1694   20973628.5154
 96  7  9 16 12 29.9990000  0  6 24  4  5  2  7  9
  21364363.960    -4897247.71649  -3793129.44649  21364366.8624   21364372.5434
  20583862.726    -1580221.62849  -1224576.11549  20583865.8974   20583870.4514
  21970659.401    -4599532.31349  -3367301.51949  21970661.7614   21970666.2964
  24024986.320     3922111.44449   3042145.44549  24024990.3154   24024996.2034
  22248971.118     3229767.82349   2508808.72749  22248973.8344   22248979.3394
  20974061.465     -568270.56049   -439100.01549  20974063.9264   20974068.0774
 96  7  9 16 12 59.9990000  0  6 24  4  5  2  7  9
  21348356.823    -4981363.08949  -3858673.88549  21348360.0324   21348365.9864
  20580880.992    -1595889.82449  -1236785.09649  20580884.3494   20580888.8124
  21954427.397    -4684829.58349  -3433766.91049  21954430.2364   21954435.0884
  24039830.581     4000114.64649   3102927.08349  24039833.4754   24039840.4504
  22260764.278     3291738.50949   2557097.54949  22260766.5174   22260771.6704
  20974598.345     -565446.91349   -436899.78149  20974601.1994   20974605.6094
 96  7  9 16 13 29.9990000  0  6 24  4  5  2  7  9
  21332424.483    -5065086.44649  -3923912.85849  21332428.1164   21332434.1864
  20578003.293    -1611013.65049  -1248569.89249  20578006.6034   20578010.8604
  21938215.843    -4770022.31949  -3500150.84249  21938218.3714   21938224.1264
  24054703.834     4078268.22249   3163825.91249  24054705.5354   24054713.0054
  22272560.512     3353733.23649   2605405.10549  22272563.5764   22272569.1054
  20975234.347     -562104.82149   -434295.56749  20975237.1604   20975241.7124
 96  7  9 16 13 59.9990000  0  6 24  4  5  2  7  9
  21316566.586    -5148421.80949  -3988849.49149  21316569.8164   21316576.1034
  20575228.530    -1625595.18649  -1259932.12749  20575231.7494   20575236.1084
  21922027.043    -4855097.19349  -3566442.94249  21922029.1504   21922034.2824
  24069601.664     4156564.64349   3224836.03049  24069605.1604   24069611.8524
  22284363.692     3415756.44049   2653734.84249  22284366.1644   22284371.8774
  20975970.860     -558235.17949   -431280.27249  20975973.7214   20975978.1094
 96  7  9 16 14 29.9990000  0  6 24  4  5  2  7  9
  21300780.000    -5231378.35249  -4053490.94449  21300783.7094   21300789.7614
  20572559.867    -1639619.34049  -1270860.03749  20572562.8194   20572567.2804
  21905856.564    -4940073.29849  -3632658.07549  21905858.8624   21905863.7084
  24084527.459     4234991.58449   3285947.85449  24084529.1254   24084535.8894
  22296175.386     3477827.03049   2702101.50749  22296177.6094   22296183.3584
  20976807.305     -553839.44449   -427855.03549  20976810.1494   20976814.7044
 96  7  9 16 14 59.9990000  0  6 24  4  5  2  7  9
  21285063.006    -5313976.07949  -4117852.79949  21285065.8824   21285071.9524
  20569994.726    -1653097.41849  -1281362.43749  20569998.2584   20570002.5824
  21889701.898    -5024963.61349  -3698806.36649  21889705.0114   21889709.5744
  24099474.088     4313537.50149   3347152.37949  24099476.5184   24099482.6004
  22307998.692     3539959.17549   2750516.13849  22308001.6814   22308006.6414
  20977745.502     -548909.24749   -424013.34149  20977748.1174   20977752.4174
 96  7  9 16 15 29.9990000  0  6 24  4  5  2  7  9
  21269413.034    -5396213.78249  -4181934.11249  21269416.5784   21269422.0894
  20567534.623    -1666026.14649  -1291436.76749  20567538.0344   20567542.0834
  21873567.405    -5109754.13649  -3764876.88849  21873570.3954   21873574.7234
  24114441.851     4392209.07449   3408454.81849  24114446.6284   24114453.4934
  22319832.214     3602142.69449   2798970.80349  22319834.7234   22319839.8844
  20978784.749     -543449.46549   -419758.98149  20978787.3224   20978791.7794
 96  7  9 16 15 59.9990000  0  6 24  4  5  2  7  9
  21253834.013    -5478082.81449  -4245728.15649  21253837.0584   21253843.1474
  20565182.670    -1678388.08249  -1301069.44249  20565185.5334   20565189.8994
  21857450.050    -5194450.91849  -3830874.37149  21857453.0064   21857457.6434
  24129439.649     4471005.73849   3469854.72349  24129441.4724   24129447.1834
  22331674.304     3664375.28549   2847463.70349  22331676.7764   22331682.6244
  20979922.719     -537468.36149   -415098.39849  20979925.5434   20979930.0854
 96  7  9 16 16 29.9990000  0  6 24  4  5  2  7  9
  21238322.623    -5559595.82149  -4309244.77449  21238326.2514   21238331.4374
  20562933.323    -1690205.73349  -1310278.00049  20562936.6444   20562941.0304
  21841345.716    -5279080.63149  -3896819.59249  21841348.6224   21841353.1454
  24144453.699     4549902.18849   3531332.37949  24144455.7414   24144461.0514
  22343523.216     3726640.90649   2895982.34249  22343525.7194   22343530.9634
  20981154.365     -530995.87749   -410054.92049  20981157.0324   20981161.3844
 96  7  9 16 16 59.9990000  0  6 24  4  5  2  7  9
  21222881.286    -5640741.55849  -4372475.20449  21222884.5564   21222889.8054
  20560786.686    -1701486.60949  -1319068.29249  20560789.8864   20560794.5264
  21825259.022    -5363615.04549  -3962690.55649  21825262.0214   21825266.9734
  24159487.474     4628909.28949   3592896.29049  24159489.7124   24159495.6374
  22355376.586     3788928.71149   2944518.26849  22355379.4564   22355384.5764
  20982479.050     -524035.10049   -404630.95149  20982481.6624   20982486.0754
 96  7  9 16 17 29.9990000  0  6 24  4  5  2  7  9
  21207516.505    -5721481.89449  -4435389.73349  21207520.2424   21207525.8424
  20558746.326    -1712208.68049  -1327423.15049  20558749.7274   20558754.0474
  21809197.267    -5448023.54949  -4028463.40949  21809199.7954   21809204.4664
  24174545.913     4708049.12849   3654563.59649  24174548.4184   24174554.8614
  22367235.897     3851245.03649   2993076.41949  22367237.2924   22367242.8544
  20983895.899     -516587.81449   -398827.88349  20983898.8364   20983903.1944
 96  7  9 16 17 59.9990000  0  6 24  4  5  2  7  9
  21192226.798    -5801832.18849  -4498000.33649  21192230.0004   21192235.3944
  20556807.169    -1722399.76449  -1335364.25149  20556810.2444   20556814.6824
  21793156.602    -5532315.51949  -4094145.45649  21793159.3084   21793164.2084
  24189630.407     4787314.39849   3716328.64149  24189632.2154   24189639.5934
  22379101.140     3913600.81249   3041665.30549  22379103.0444   22379108.5594
  20985404.778     -508659.75049   -392650.18849  20985407.4814   20985411.9874
 96  7  9 16 18 29.9990000  0  6 24  4  5  2  7  9
  21177008.558    -5881806.06149  -4560317.61749  21177011.5534   21177016.9754
  20554965.839    -1732075.10949  -1342903.47949  20554969.1914   20554973.4694
  21777141.604    -5616475.82349  -4159724.90449  21777144.4204   21777149.0724
  24204740.771     4866710.88449   3778195.97249  24204741.7984   24204747.6364
  22390973.186     3975992.94149   3090282.51549  22390975.9424   22390981.5714
  20987007.812     -500234.65549   -386085.18949  20987010.8064   20987015.1634
 96  7  9 16 18 59.9990000  0  6 24  4  5  2  7  9
  21161862.937    -5961397.61549  -4622336.98549  21161866.1794   21161871.3824
  20553224.703    -1741226.52849  -1350034.45249  20553227.7634   20553231.9744
  21761153.830    -5700489.33949  -4225189.97449  21761156.8684   21761161.5124
  24219874.505     4946246.34949   3840171.54849  24219877.0294   24219882.9934
  22402852.878     4038421.53749   3138928.14849  22402855.7814   22402861.5734
  20988707.161     -491304.25949   -379126.45249  20988710.1354   20988714.7784
 96  7  9 16 19 29.9990000  0  6 24  4  5  2  7  9
  21146787.760    -6040616.90149  -4684066.27349  21146791.0654   21146796.4634
  20551580.752    -1749864.76849  -1356765.55249  20551584.2794   20551588.0974
  21745191.337    -5784375.53649  -4290555.83249  21745193.6564   21745198.4774
  24235034.761     5025910.07049   3902247.07849  24235035.9574   24235043.3234
  22414741.834     4100893.16149   3187607.30549  22414743.3554   22414749.2034
  20990501.348     -481876.50749   -371780.16749  20990503.9874   20990508.4954
 96  7  9 16 19 59.9990000  0  6 24  4  5  2  7  9
  21131781.333    -6119476.68549  -4745515.43049  21131784.3134   21131789.9454
  20550036.662    -1757979.62749  -1363088.82049  20550040.0244   20550044.1044
  21729251.482    -5868138.59349  -4355825.73549  21729253.8794   21729259.0594
  24250216.761     5105694.89449   3964417.00849  24250218.6784   24250226.0314
  22426636.644     4163406.22649   3236318.75249  22426639.6974   22426645.0984
  20992393.960     -471931.90749   -364031.14949  20992396.6954   20992400.9384
 96  7  9 16 20 29.9990000  0  6 24  4  5  2  7  9
  21116843.544    -6197974.19049  -4806682.29349  21116846.7404   21116852.7354
  20548593.334    -1765564.35149  -1368998.99649  20548596.8194   20548600.9204
  21713333.441    -5951789.82649  -4421008.50649  21713335.6414   21713341.1524
  24265416.572     5185584.13049   4026668.24949  24265421.4544   24265428.6514
  22438533.575     4225926.99149   3285036.20149  22438537.0674   22438542.5424
  20994381.481     -461486.72649   -355892.06549  20994384.3984   20994388.6974
 96  7  9 16 20 59.9990000  0  6 24  4  5  2  7  9
  21101980.537    -6276079.90249  -4867543.86449  21101983.7914   21101989.6564
  20547252.861    -1772609.74049  -1374488.91449  20547255.8844   20547260.3684
  21697436.823    -6035327.14149  -4486102.50949  21697439.3244   21697444.2534
  24280641.769     5265590.27149   4089010.59349  24280646.7084   24280654.0954
  22450433.386     4288456.51249   3333760.47449  22450435.7924   22450441.2674
  20996462.359     -450552.96749   -347372.26849  20996465.0514   20996469.4744
 96  7  9 16 21 29.9990000  0  6 24  4  5  2  7  9
  21087192.227    -6353794.66949  -4928100.80549  21087195.0874   21087200.7254
  20546015.306    -1779113.37649  -1379556.68349  20546018.3794   20546022.5234
  21681560.601    -6118756.13449  -4551112.10749  21681563.6264   21681568.4524
  24295890.791     5345718.68049   4151448.22049  24295893.9824   24295901.1644
  22462333.802     4350994.45049   3382491.30449  22462336.5284   22462342.0074
  20998636.636     -439126.77149   -338468.75149  20998639.4024   20998643.8144
 96  7  9 16 21 59.9990000  0  5 24  4  5  7  9
  21072479.795    -6431107.13249  -4988344.26349  21072483.1834   21072488.5534
  20544883.285    -1785062.27549  -1384192.18449  20544886.5584   20544890.7514
  21665707.151    -6202065.01549  -4616028.10749  21665710.0024   21665715.4834
  22474236.018     4413534.66049   3431223.91049  22474237.6054   22474243.0404
  21000906.466     -427199.52449   -329174.80649  21000909.0894   21000913.7074
 96  7  9 16 22 29.9990000  0  5 24  4  5  7  9
  21057848.718    -6507994.66949  -5048256.60749  21057851.7574   21057857.4464
  20543854.213    -1790468.20449  -1388404.60049  20543857.7624   20543862.1944
  21649877.272    -6285253.68349  -4680850.43449  21649879.8134   21649885.0724
  22486136.864     4476081.59349   3479961.74849  22486139.8204   22486145.1204
  21003269.686     -414779.63649   -319496.98849  21003272.4304   21003277.0474
 96  7  9 16 22 59.9990000  0  5 24  4  5  7  9
  21043296.208    -6584468.06949  -5107846.25349  21043299.6444   21043304.9314
  20542928.071    -1795335.21349  -1392197.07449  20542931.4724   20542935.7494
  21634067.722    -6368332.12849  -4745586.87049  21634070.3854   21634076.0924
  22498045.128     4538658.46749   3528722.91649  22498047.5094   22498052.9964
  21005726.964     -401865.80049   -309434.27449  21005729.7144   21005734.1514
 96  7  9 16 23 29.9990000  0  5 24  4  5  7  9
  21028819.898    -6660542.65849  -5167125.14149  21028822.9124   21028828.3524
  20542105.234    -1799659.05449  -1395566.30049  20542108.3104   20542112.6814
  21618279.521    -6451301.24849  -4810238.12349  21618282.1274   21618287.0354
  22509959.031     4601269.97549   3577511.07549  22509962.5524   22509967.9774
  21008281.266     -388443.96549   -298975.71549  21008284.0754   21008288.2214
 96  7  9 16 23 59.9990000  0  5 24  4  5  7  9
  21014419.854    -6736214.80449  -5226090.43949  21014423.0624   21014428.6994
  20541384.688    -1803445.33549  -1398516.64949  20541388.0494   20541392.4794
  21602511.877    -6534161.02249  -4874804.17249  21602514.3754   21602519.2824
  22521880.707     4663915.61049   3626325.83149  22521883.6494   22521888.6724
  21010932.528     -374511.86849   -288119.55249  21010935.2184   21010939.4484
 96  7  9 16 24 29.9990000  0  5 24  4  5  7  9
  21000094.330    -6811495.38449  -5284750.61549  21000097.5884   21000103.4064
  20540763.041    -1806711.91749  -1401062.03649  20540766.5494   20540770.6824
  21586761.993    -6616927.58649  -4939297.58949  21586764.5254   21586769.3614
  22533807.238     4726588.37449   3675161.71249  22533810.0164   22533814.5744
  21013678.530     -360082.38949   -276875.82249  21013680.9684   21013685.5574
 96  7  9 16 24 59.9990000  0  5 24  4  5  7  9
  20985842.223    -6886389.07949  -5343109.32749  20985845.5234   20985851.3374
  20540243.301    -1809446.18849  -1403192.63449  20540246.2164   20540250.2124
  21571032.839    -6699585.47349  -5003706.32449  21571035.6644   21571040.0734
  22545742.336     4789303.57249   3724030.67349  22545744.7164   22545749.0994
  21016519.562     -345152.19249   -265241.91949  21016522.0794   21016526.6104
 96  7  9 16 25 29.9990000  0  6 24  4  5  7  9 20
  20971663.448    -6960895.54949  -5401166.30249  20971667.3524   20971673.3054
  20539820.062    -1811668.44249  -1404924.25649  20539823.3184   20539827.3864
  21555325.079    -6782130.30449  -5068026.96249  21555327.4154   21555332.1604
  22557675.789     4852024.61049   3772904.17449  22557679.8374   22557684.9104
  21019453.306     -329739.32149   -253231.90849  21019455.3464   21019459.6374
  24407850.667    -4011187.29119  -3114825.85719  24407851.280    24407858.442
 96  7  9 16 25 59.9990000  0  6 24  4  5  7  9 20
  20957562.466    -7034999.43649  -5458909.58049  20957565.8354   20957571.9284
  20539495.047    -1813378.15149  -1406256.49849  20539498.1794   20539502.0684
  21539642.149    -6864542.63049  -5132244.35049  21539644.9944   21539649.4954
  22569613.627     4914754.37049   3821784.47449  22569616.2814   22569621.4254
  21022476.175     -313849.81249   -240850.48649  21022478.8104   21022483.3924
  24386711.947    -4122275.603 9  -3201390.854 9  24386715.070    24386721.599
 96  7  9 16 26 29.9990000  0  6 24  4  5  7  9 20
  20943539.705    -7108689.89949  -5516330.70549  20943543.0344   20943548.9094
  20539268.868    -1814566.48549  -1407182.47449  20539272.0854   20539276.2124
  21523988.638    -6946802.91449  -5196343.25449  21523991.3834   21523995.9274
  22581552.694     4977494.32249   3870672.71449  22581555.9984   22581561.7084
  21025588.921     -297490.17149   -228102.72949  21025591.7194   21025596.4734
  24365561.594    -4233436.160 9  -3288012.155 9  24365563.903    24365570.627
 96  7  9 16 26 59.9990000  0  6 24  4  5  7  9 20
  20929594.894    -7181971.40549  -5573433.16049  20929598.2614   20929603.7564
  20539141.680    -1815236.73249  -1407704.74549  20539144.4074   20539148.6114
  21508363.386    -7028911.86749  -5260324.24649  21508366.2794   21508371.1244
  22593490.366     5040227.48149   3919555.66449  22593493.6044   22593498.5864
  21028790.550     -280667.19049   -214993.93049  21028793.1714   21028797.9964
  24344396.184    -4344671.797 9  -3374691.966 9  24344398.743    24344405.872
 96  7  9 16 27 29.9990000  0  6 24  4  5  7  9 20
  20915729.147    -7254837.10249  -5630211.61049  20915732.5384   20915737.9134
  20539111.699    -1815390.99049  -1407824.95049  20539115.0084   20539119.1174
  21492767.227    -7110873.30749  -5324190.29049  21492770.0044   21492774.3184
  22605425.758     5102943.48649   3968425.24449  22605427.8744   22605433.0384
  21032080.394     -263378.44149   -201522.19149  21032083.1034   21032087.9754
  24323218.412    -4455981.779 9  -3461429.714 9  24323219.449    24323226.865
 96  7  9 16 27 59.9990000  0  6 24  4  5  7  9 20
  20901939.535    -7327301.58849  -5686677.42749  20901942.7454   20901948.1064
  20539178.723    -1815037.47049  -1407549.48049  20539182.1664   20539186.6174
  21477192.643    -7192717.11549  -5387964.67849  21477195.2144   21477199.9884
  22617355.624     5165639.06849   4017278.91149  22617358.4304   22617363.4984
  21035457.924     -245628.69549   -187691.23449  21035460.9294   21035465.7174
  24302022.849    -4567369.794 9  -3548228.277 9  24302025.929    24302032.021
 96  7  9 16 28 29.9990000  0  6 24  4  5  7  9 20
  20888225.437    -7399369.34949  -5742834.11149  20888228.7704   20888234.5384
  20539341.236    -1814183.80549  -1406884.29249  20539344.6014   20539349.1104
  21461638.481    -7274457.10149  -5451658.16249  21461640.7494   21461645.7424
  22629281.008     5228311.58849   4066114.60449  22629285.0474   22629289.8714
  21038924.033     -227416.19449   -173499.69349  21038926.6514   21038931.4664
  24280813.580    -4678836.766 9  -3635088.354 9  24280816.763    24280823.374
 96  7  9 16 28 59.9990000  0  6 24  4  5  7  9 20
  20874585.835    -7471046.53549  -5798686.44549  20874589.1884   20874594.9344
  20539597.471    -1812840.64349  -1405837.67249  20539600.3124   20539604.6134
  21446104.263    -7356089.14949  -5515267.54349  21446106.8664   21446111.4734
  22641206.630     5290974.04849   4114942.46549  22641208.8324   22641214.7584
  21042480.745     -208725.59049   -158935.59449  21042483.5374   21042488.2224
  24259591.247    -4790377.220 9  -3722005.687 9  24259593.243    24259599.919
 96  7  9 16 29 29.9990000  0  6 24  4  5  7  9 20
  20861018.148    -7542344.27449  -5854243.11249  20861021.5864   20861026.8724
  20539944.127    -1811017.97249  -1404417.40849  20539946.9974   20539951.4434
  21430591.661    -7437607.79949  -5578788.56249  21430594.5574   21430598.8414
  22653129.094     5353632.27249   4163767.02149  22653132.6954   22653137.8064
  21046127.711     -189561.60549   -144002.63549  21046130.4284   21046134.7444
  24238353.757    -4901991.647 9  -3808980.678 9  24238356.537    24238362.947
 96  7  9 16 29 59.9990000  0  6 24  4  5  7  9 20
  20847524.523    -7613255.18149  -5909498.35149  20847527.5914   20847533.3374
  20540383.697    -1808704.71549  -1402614.87149  20540387.2704   20540391.7594
  21415106.100    -7518983.75249  -5642198.38949  21415108.9834   21415113.8474
  22665054.281     5416297.07849   4212596.70649  22665056.9454   22665062.5664
  21049865.615     -169916.00549   -128694.39649  21049868.7274   21049873.1504
  24217103.060    -5013673.953 9  -3896008.535 9  24217105.623    24217112.705
 96  7  9 16 30 29.9990000  0  6 24  4  5  7  9 20
  20834101.992    -7683789.62249  -5964460.23849  20834105.2194   20834111.0594
  20540916.325    -1805909.93149  -1400437.11949  20540919.2374   20540923.4674
  21399652.637    -7600193.63249  -5705478.81149  21399655.1924   21399659.9254
  22676980.770     5478970.27749   4261432.92849  22676983.6244   22676989.4374
  21053693.395     -149801.62049   -113020.86449  21053696.2384   21053700.8104
  24195837.383    -5125428.600 9  -3983092.766 9  24195841.430    24195848.709
 96  7  9 16 30 59.9990000  0  6 24  4  5  7  9 20
  20820755.922    -7753923.93249  -6019110.33249  20820758.7804   20820764.9904
  20541544.234    -1802608.53549  -1397864.60349  20541547.3024   20541551.3994
  21384232.697    -7681224.20049  -5768619.51049  21384235.2854   21384240.2204
  22688910.897     5541664.16249   4310285.27049  22688914.2304   22688919.4834
  21057611.341     -129212.36249    -96977.30249  21057614.3894   21057618.7394
  24174564.054    -5237236.882 9  -4070218.812 9  24174568.477    24174574.503
 96  7  9 16 31 29.9990000  0  6 24  4  5  7  9 20
  20807488.550    -7823641.97449  -6073436.06549  20807492.0984   20807498.1504
  20542271.580    -1798785.23449  -1394885.40749  20542274.9884   20542279.2464
  21368843.926    -7762092.72849  -5831633.93949  21368846.6524   21368851.7714
  22700841.864     5604360.78749   4359139.74449  22700844.8464   22700850.6094
  21061615.793     -108168.51949    -80579.51749  21061618.9264   21061623.4354
  24153280.147    -5349105.112 9  -4157391.545 9  24153281.966    24153288.837
 96  7  9 16 31 59.9990000  0  6 24  4  5  7  9 20
  20794306.244    -7892918.49949  -6127417.76149  20794309.3754   20794314.9934
  20543099.672    -1794435.13349  -1391495.71849  20543102.5854   20543107.1284
  21353485.225    -7842804.51549  -5894526.23249  21353488.0624   21353492.9114
  22712774.735     5667063.60349   4407999.05049  22712776.8814   22712783.0104
  21065709.066      -86659.32949    -63819.12649  21065711.8104   21065716.5144
  24131987.081    -5461027.439 9  -4244606.448 9  24131987.253    24131992.894
 96  7  9 16 32 29.9990000  0  6 24  4  5  7  9 20
  20781211.010    -7961732.97049  -6181039.41149  20781214.5474   20781219.9034
  20544029.596    -1789547.71849  -1387687.34449  20544032.7974   20544037.1284
  21338154.520    -7923367.99749  -5957302.97049  21338157.1164   21338161.9024
  22724709.435     5729784.96649   4456872.80249  22724712.3344   22724718.3184
  21069892.807      -64675.76349    -46689.09649  21069895.5724   21069900.1234
  24110679.897    -5572989.280 9  -4331852.143 9  24110684.502    24110689.456
 96  7  9 16 32 59.9990000  0  6 24  4  5  7  9 20
  20768204.166    -8030083.12149  -6234299.25649  20768207.6544   20768213.2974
  20545059.627    -1784135.04049  -1383469.67249  20545062.9344   20545067.1274
  21322848.028    -8003804.08649  -6019980.43449  21322850.3644   21322855.5674
  22736644.396     5792504.62549   4505745.23549  22736647.5654   22736652.5254
  21074165.325      -42222.98149    -29193.44149  21074168.3544   21074172.8814
  24089368.727    -5685003.89919  -4419138.94119  24089369.357    24089375.977
 96  7  9 16 33 29.9990000  0  6 24  4  5  7  9 20
  20755283.374    -8097981.14549  -6287206.79549  20755287.2234   20755292.7244
  20546186.517    -1778212.63049  -1378854.81249  20546190.1304   20546194.1044
  21307568.311    -8084098.57149  -6082547.55749  21307571.3094   21307576.1574
  22748581.767     5855231.21849   4554623.06549  22748583.9524   22748589.8694
  21078529.617      -19289.00849    -11322.83549  21078532.4424   21078537.2184
  24068042.177    -5797067.68019  -4506464.07819  24068046.899    24068053.633
 96  7  9 16 33 59.9990000  0  6 24  4  5  7  9 20
  20742444.353    -8165454.50749  -6339783.42749  20742447.3364   20742453.0344
  20547407.347    -1771799.74349  -1373857.76049  20547410.2614   20547414.1914
  21292318.499    -8164238.15449  -6144993.98249  21292320.9724   21292325.9894
  22760519.978     5917968.64749   4603509.33849  22760522.3084   22760527.7994
  21082986.093        4127.99949      6924.16249  21082988.7134   21082993.3374
  24046711.329    -5909180.22019  -4593827.21819  24046715.752    24046722.218
 96  7  9 16 34 29.9990000  0  6 24  4  5  7  9 20
  20729680.736    -8232528.24749  -6392048.66049  20729683.7644   20729689.4084
  20548720.850    -1764895.91849  -1368478.16049  20548724.0184   20548728.1344
  21277099.350    -8244213.92049  -6207312.75249  21277102.1714   21277107.1164
  22772458.424     5980704.75649   4652394.58249  22772459.9504   22772466.2404
  21087531.227       28016.72149     25538.73349  21087534.2684   21087539.2544
  24025372.318    -6021345.81319  -4681231.65619  24025373.004    24025379.717
 96  7  9 16 34 59.9990000  0  6 24  4  5  7  9 20
  20716991.575    -8299209.20749  -6444007.83349  20716994.8344   20717000.1824
  20550127.562    -1757500.46149  -1362715.47349  20550130.9454   20550135.4734
  21261913.880    -8324013.84149  -6269494.50049  21261916.6034   21261921.5384
  22784396.716     6043437.92749   4701277.52949  22784398.6284   22784403.8124
  21092166.933       52377.74849     44521.33149  21092169.7804   21092174.8394
  24004018.558    -6133558.83319  -4768673.66719  24004022.196    24004029.350
 96  7  9 16 35 29.9990000  0  6 24  4  5  7  9 20
  20704378.142    -8365492.74949  -6495657.33249  20704381.6274   20704387.0534
  20551631.913    -1749597.00849  -1356556.94249  20551635.3354   20551639.5294
  21246765.012    -8403623.11449  -6331527.69249  21246767.5854   21246772.2774
  22796333.360     6106174.31849   4750162.99349  22796337.2274   22796342.8304
  21096893.015       77211.57249     63872.33849  21096895.6474   21096900.8524
  23982664.891    -6245801.96119  -4856138.38519  23982666.023    23982671.332
 96  7  9 16 35 59.9990000  0  5 24  4  5  7  9
  20691844.731    -8431357.61449  -6546980.58849  20691847.7304   20691853.3574
  20553235.726    -1741168.61549  -1349989.37049  20553239.1574   20553243.3744
  21231651.889    -8483041.56549  -6393412.19149  21231654.5514   21231659.8994
  22808272.896     6168907.67749   4799046.08549  22808274.4114   22808280.2604
  21101706.625      102507.29949     83583.27449  21101709.4174   21101714.2964
 96  7  9 16 36 29.9990000  0  5 24  4  5  7  9
  20679393.455    -8496789.67049  -6597966.59349  20679396.5544   20679402.0754
  20554937.373    -1732227.83349  -1343022.53149  20554940.3564   20554944.6954
  21216570.161    -8562295.91749  -6455168.82049  21216572.9174   21216578.0224
  22820204.922     6231614.58349   4847908.55849  22820207.8274   22820212.7314
  21106605.551      128249.94749    103642.46049  21106608.2474   21106612.9554
 96  7  9 16 36 59.9990000  0  5 24  4  5  7  9
  20667030.165    -8561758.66249  -6648591.77049  20667033.5954   20667038.9594
  20556736.298    -1722773.65649  -1335655.64749  20556739.4234   20556743.4624
  21201519.509    -8641388.96749  -6516799.75849  21201522.2194   21201527.3134
  22832135.464     6294306.02949   4896758.99849  22832137.6754   22832143.9914
  21111588.915      154440.28349    124050.49249  21111591.8564   21111596.7694
 96  7  9 16 37 29.9990000  0  5 24  4  5  7  9
  20654756.338    -8626258.42349  -6698851.30349  20654759.5754   20654765.1444
  20558633.500    -1712804.94049  -1327887.81749  20558636.5824   20558640.2994
  21186498.466    -8720323.77949  -6578307.39449  21186501.3284   21186506.4784
  22844061.893     6356979.69949   4945595.58249  22844063.5684   22844068.6954
  21116658.330      181078.07449    144807.19249  21116660.9774   21116665.6994
 96  7  9 16 37 59.9990000  0  5 24  4  5  7  9
  20642570.366    -8690295.31949  -6748750.17149  20642573.8404   20642579.2324
  20560627.044    -1702328.22149  -1319724.14449  20560630.0644   20560634.1384
  21171506.374    -8799108.73249  -6639698.25949  21171509.2424   21171514.4624
  22855983.647     6419633.42949   4994416.63149  22855986.8734   22855992.4144
  21121811.138      208158.36049    165908.69049  21121814.0464   21121818.8064
 96  7  9 16 38 29.9990000  0  5 24  4  5  7  9
  20630470.905    -8753877.45849  -6798294.68149  20630474.4654   20630480.2144
  20562714.417    -1691358.34749  -1311176.18849  20562717.8324   20562721.8314
  21156542.043    -8877747.83949  -6700975.47549  21156544.6444   21156549.5754
  22867904.498     6482270.18149   5043224.45249  22867905.5204   22867911.2414
  21127048.612      235681.18649    187355.02149  21127051.7874   21127056.3054
 96  7  9 16 38 59.9990000  0  5 24  4  5  7  9
  20618454.505    -8817024.00849  -6847499.76949  20618457.7894   20618463.6424
  20564897.358    -1679888.26449  -1302238.46449  20564900.4284   20564904.2024
  21141607.886    -8956227.64749  -6762128.56249  21141610.3464   21141615.2854
  22879822.059     6544904.73549   5092030.55549  22879824.9424   22879831.2914
  21132370.238      263644.69649    209144.74549  21132372.8224   21132377.4704
 96  7  9 16 39 29.9990000  0  5 24  4  5  7  9
  20606517.863    -8879750.38549  -6896377.45849  20606521.1964   20606527.6074
  20567172.379    -1667932.01849  -1292921.90649  20567175.6734   20567179.7604
  21126705.239    -9034541.95449  -6823152.68849  21126707.7514   21126712.4144
  22891739.525     6607532.75149   5140831.56949  22891742.6164   22891748.4204
  21137773.915      292043.37149    231273.55549  21137777.0714   21137781.6514
 96  7  9 16 39 59.9990000  0  5 24  4  5  7  9
  20594666.619    -8942029.01049  -6944906.25149  20594670.3374   20594676.0544
  20569541.684    -1655481.06349  -1283219.86949  20569544.7464   20569548.9304
  21111839.896    -9112661.43649  -6884024.99849  21111842.2744   21111846.9024
  22903661.945     6670183.51749   5189650.30549  22903664.4554   22903670.0484
  21143264.473      320895.99949    253756.10249  21143267.3504   21143272.1524
 96  7  9 16 40 29.9990000  0  5 24  4  5  7  9
  20582901.379    -9003856.61849  -6993083.59449  20582904.6564   20582910.8144
  20572004.524    -1642537.60249  -1273134.05349  20572007.8394   20572011.9694
  21097011.605    -9190582.13849  -6944742.42149  21097014.1404   21097019.1834
  22915587.434     6732864.16749   5238492.33249  22915592.0644   22915597.8674
  21148844.318      350216.78049    276603.44549  21148846.9284   21148851.7574
 96  7  9 16 40 59.9990000  0  5 24  4  5  7  9
  20571219.429    -9065244.13349  -7040918.01649  20571223.0254   20571229.1834
  20574562.312    -1629098.28549  -1262661.86249  20574565.2794   20574569.6064
  21082223.573    -9268293.12549  -7005296.42749  21082226.3954   21082230.7844
  22927520.140     6795564.83449   5287349.95849  22927523.7764   22927529.5374
  21154511.116      379997.18149    299808.93449  21154514.0874   21154518.9694
 96  7  9 16 41 29.9990000  0  5 24  4  5  7  9
  20559623.840    -9126181.37649  -7088401.57449  20559627.1944   20559633.1094
  20577211.821    -1615173.65749  -1251811.50549  20577214.9954   20577219.4894
  21067474.788    -9345798.31349  -7065690.07649  21067477.5344   21067482.2154
  22939454.812     6858271.84249   5336212.52549  22939457.2174   22939462.7674
  21160266.684      410242.22649    323376.48149  21160269.4694   21160274.3414
 96  7  9 16 41 59.9990000  0  5 24  4  5  7  9
  20548111.629    -9186677.62849  -7135541.50249  20548115.1674   20548120.9854
  20579954.386    -1600760.64749  -1240580.59549  20579957.8514   20579962.2994
  21052763.084    -9423110.04649  -7125932.98249  21052765.4904   21052770.2774
  22951384.893     6920971.50449   5385069.35749  22951388.1784   22951393.4784
  21166109.384      440945.81349    347301.34149  21166112.2454   21166117.1154
 96  7  9 16 42 29.9990000  0  5 24  4  5  7  9
  20536682.170    -9246739.93649  -7182343.29349  20536685.6614   20536691.4114
  20582790.629    -1585858.88149  -1228968.83249  20582793.4494   20582797.9594
  21038085.953    -9500235.43449  -7186030.68549  21038089.1624   21038093.8284
  22963312.891     6983644.94449   5433905.76449  22963314.9704   22963320.2784
  21172037.545      472098.20849    371575.92149  21172040.3564   21172044.7884
 96  7  9 16 42 59.9990000  0  5 24  4  5  7  9
  20525339.149    -9306349.58649  -7228792.35549  20525342.6134   20525347.9284
  20585717.933    -1570474.78249  -1216981.22849  20585721.1584   20585725.3304
  21023446.168    -9577169.61249  -7245979.38649  21023448.9224   21023453.8614
  22975231.211     7046285.32349   5482716.41949  22975234.5404   22975240.0384
  21178047.798      503681.41849    396186.19949  21178050.6774   21178055.0244
 96  7  9 16 43 29.9990000  0  5 24  4  5  7  9
  20514083.340    -9365499.48749  -7274883.17849  20514086.5374   20514091.9164
  20588736.476    -1554611.35049  -1204620.11349  20588739.8914   20588744.2264
  21008840.165    -9653924.33349  -7305788.25849  21008842.7684   21008847.7674
  22987143.471     7108885.91949   5531496.05449  22987147.2124   22987152.6344
  21184139.547      535694.87449    421131.73849  21184142.6024   21184147.1644
 96  7  9 16 43 59.9990000  0  5 24  4  5  7  9
  20502915.556    -9424186.37349  -7320613.20349  20502919.0274   20502924.3134
  20591847.865    -1538263.84749  -1191881.80249  20591850.8024   20591854.9864
  20994271.509    -9730482.96149  -7365444.32749  20994274.2664   20994279.1814
  22999050.447     7171454.32849   5580250.63149  22999053.8274   22999059.3684
  21190312.022      568131.64749    446407.12949  21190315.0184   21190319.5414
 96  7  9 16 44 29.9990000  0  5 24  4  5  7  9
  20491836.103    -9482409.89749  -7365982.16749  20491839.1354   20491844.6254
  20595048.889    -1521440.66749  -1178772.83249  20595052.3234   20595056.4244
  20979740.500    -9806845.22249  -7424947.38049  20979743.2344   20979748.1744
  23010952.764     7233994.50249   5628983.18149  23010954.7064   23010960.4654
  21196565.840      600994.36349    472014.43049  21196568.5214   21196573.4664
 96  7  9 16 44 59.9990000  0  5 24  4  5  7  9
  20480843.289    -9540176.02349  -7410994.72149  20480846.7074   20480852.2234
  20598341.290    -1504138.15349  -1165290.35349  20598344.6374   20598348.9364
  20965249.057    -9882998.39649  -7484287.50549  20965251.4854   20965256.6594
  23022848.938     7296516.97549   5677701.95249  23022852.9094   23022857.8934
  21202902.306      634291.17249    497959.97349  21202904.8684   21202909.5754
 96  7  9 16 45 29.9990000  0  5 24  4  5  7  9
  20469932.070    -9597515.65249  -7455674.94349  20469935.1224   20469940.5224
  20601722.571    -1486369.27749  -1151444.48049  20601725.9164   20601729.9644
  20950795.667    -9958951.01349  -7543471.36149  20950798.2134   20950803.1494
  23034740.880     7359008.96749   5726396.97149  23034743.2344   23034749.9034
  21209319.694      668016.26349    524239.23649  21209322.6814   21209327.2374
 96  7  9 16 45 59.9990000  0  5 24  4  5  7  9
  20459101.946    -9654425.86149  -7500020.54349  20459105.3944   20459111.0954
  20605190.763    -1468143.84449  -1137242.84649  20605194.0044   20605198.3084
  20936380.558   -10034704.89749  -7602500.35049  20936383.0634   20936387.8814
  23046631.808     7421486.22749   5775080.51249  23046633.1364   23046638.2464
  21215820.875      702178.98049    550859.51549  21215823.7944   21215828.3174
 96  7  9 16 46 29.9990000  0  5 24  4  5  7  9
  20448354.881    -9710904.56749  -7544029.91049  20448357.9164   20448363.4124
  20608746.173    -1449462.64149  -1122686.06249  20608749.0784   20608753.1314
  20922000.453   -10110271.86149  -7661383.69049  20922002.7344   20922007.8174
  23058517.817     7483949.88449   5823753.44449  23058519.3894   23058525.6014
  21222405.293      736782.11049    577822.97249  21222408.1154   21222413.0134
 96  7  9 16 46 59.9990000  0  5 24  4  5  7  9
  20437690.242    -9766942.50549  -7587695.82449  20437693.9784   20437699.8614
  20612387.177    -1430327.44449  -1107775.52249  20612390.3224   20612394.6154
  20907657.330   -10185644.56749  -7720115.66249  20907659.9174   20907664.6744
  23070401.378     7546402.95849   5872418.13649  23070403.7474   23070409.9934
  21229072.119      771814.59849    605120.98949  21229074.6104   21229079.6204
 96  7  9 16 47 29.9990000  0  5 24  4  5  7  9
  20427114.515    -9822522.12949  -7631004.61149  20427117.6984   20427123.6024
  20616115.938    -1410734.56549  -1092508.34949  20616119.0074   20616123.0084
  20893351.990   -10260820.69349  -7778694.45749  20893354.4064   20893359.2954
  23082286.666     7608856.63749   5921083.28649  23082288.8594   23082294.5994
  21235821.367      807283.24349    632758.86549  21235824.2944   21235829.2064
 96  7  9 16 47 59.9990000  0  5 24  4  5  7  9
  20416621.922    -9877661.35549  -7673970.23749  20416625.0174   20416630.9154
  20619928.203    -1390699.45849  -1076896.58449  20619931.5644   20619935.3774
  20879078.740   -10335827.12749  -7837141.02949  20879081.3494   20879086.1414
  23094169.009     7671297.10349   5969738.14949  23094171.4274   23094177.9414
  21242647.088      843152.83349    660709.18449  21242649.9464   21242654.9914
 96  7  9 16 48 29.9990000  0  5 24  4  5  7  9
  20406213.304    -9932359.22049  -7716591.93949  20406216.7614   20406222.5434
  20623827.063    -1370211.39049  -1060931.85949  20623830.2614   20623834.3124
  20864841.893   -10410639.68349  -7895436.51549  20864844.5984   20864849.9074
  23106045.864     7733714.51649   6018375.05649  23106049.1704   23106053.4724
  21249546.636      879410.45649    688961.86549  21249549.4714   21249554.6274
 96  7  9 16 48 59.9990000  0  5 24  4  5  7  9
  20395890.723    -9986605.38449  -7758861.66849  20395894.1324   20395899.7504
  20627815.290    -1349253.94149  -1044601.38949  20627818.2844   20627822.1904
  20850646.136   -10485242.03549  -7953568.21549  20850648.4604   20850653.4404
  23117920.738     7796116.35249   6066999.81249  23117923.9324   23117928.6024
  21256521.420      916062.54649    717521.91049  21256524.2734   21256529.2554
 96  7  9 16 49 29.9990000  0  5 24  4  5  7  9
  20385652.954   -10040406.18249  -7800784.35549  20385656.2114   20385661.7344
  20631894.396    -1327815.65949  -1027896.23649  20631898.0334   20631901.7174
  20836491.621   -10559623.94549  -8011528.14149  20836494.1014   20836499.0084
  23129792.274     7858505.42249   6115614.62549  23129795.9794   23129800.9774
  21263573.187      953119.55449    746397.47549  21263575.8874   21263581.1724
 96  7  9 16 49 59.9990000  0  5 24  4  5  7  9
  20375500.357   -10093757.54849  -7842356.83349  20375503.5814   20375508.9054
  20636066.107    -1305894.65449  -1010814.93649  20636069.1954   20636073.1734
  20822379.171   -10633785.73749  -8069316.54149  20822381.5584   20822386.5784
  23141659.265     7920865.26349   6164206.66349  23141662.0594   23141667.8804
  21270700.710      990576.36149    775584.58149  21270703.7584   21270708.7404
 96  7  9 16 50 29.9990000  0  5 24  4  5  7  9
  20365435.835   -10146646.46249  -7883568.95949  20365439.3404   20365444.5344
  20640329.364    -1283491.83649   -993358.20349  20640332.3674   20640336.4764
  20808310.626   -10707714.91549  -8126923.69049  20808313.2484   20808318.0154
  23153520.128     7983194.26649   6212774.66649  23153522.6994   23153529.4514
  21277909.106     1028454.61349    805100.08649  21277911.8114   21277917.1744
 96  7  9 16 50 59.9990000  0  5 24  4  5  7  9
  20355460.012   -10199071.06449  -7924419.28149  20355463.3664   20355468.3914
  20644682.418    -1260615.80849   -975532.73049  20644685.5354   20644689.4954
  20794284.510   -10781423.41949  -8184358.87849  20794287.1734   20794292.0584
  23165376.885     8045504.98749   6261328.41249  23165379.9744   23165386.5664
  21285197.445     1066756.94549    834946.04549  21285200.4894   21285205.4254
 96  7  9 16 51 29.9990000  0  5 24  4  5  7  9
  20345569.937   -10251043.98849  -7964917.64849  20345573.0844   20345578.2514
  20649120.657    -1237291.64049   -957358.05749  20649123.9824   20649127.8484
  20780299.212   -10854918.17649  -8241627.51549  20780301.4664   20780306.4974
  23177229.492     8107788.37149   6309860.86449  23177232.8164   23177238.1694
  21292565.098     1105473.93149    865115.10449  21292568.1554   21292573.0164
 96  7  9 16 51 59.9990000  0  5 24  4  5  7  9
  20335767.993   -10302551.96949  -8005053.72549  20335771.2564   20335776.5974
  20653640.823    -1213537.96649   -938848.70449  20653644.1684   20653648.0664
  20766353.090   -10928205.64749  -8298734.62849  20766355.7204   20766360.1364
  23189076.490     8170040.20449   6358368.73449  23189078.8104   23189085.2984
  21300010.048     1144595.11349    895599.12049  21300012.6844   21300017.5234
 96  7  9 16 52 29.9990000  0  5 24  4  5  7  9
  20326053.481   -10353602.25449  -8044833.15649  20326056.8314   20326061.9724
  20658239.992    -1189370.05749   -920016.57049  20658243.1914   20658247.1204
  20752445.378   -11001290.31649  -8355683.71949  20752447.9704   20752452.4994
  23200918.610     8232277.53349   6406865.29249  23200922.3614   23200928.1824
  21307529.249     1184110.23649    926390.08549  21307531.9804   21307536.6934
 96  7  9 16 52 59.9990000  0  5 24  4  5  7  9
  20316423.010   -10404209.96249  -8084267.72449  20316426.3774   20316431.8994
  20662915.574    -1164798.65449   -900870.02549  20662918.9174   20662922.8774
  20738575.676   -11074175.85649  -8412477.64649  20738578.1574   20738582.6664
  23212757.558     8294490.92449   6455343.20249  23212761.1724   23212767.3904
  21315121.331     1224006.50749    957478.06949  21315124.2024   21315129.0314
 96  7  9 16 53 29.9990000  0  5 24  4  5  7  9
  20306877.964   -10454367.96849  -8123351.87249  20306881.5214   20306886.8764
  20667670.614    -1139812.66549   -881400.43149  20667673.6114   20667677.4004
  20724745.504   -11146852.99949  -8469109.18649  20724748.3264   20724752.9454
  23224592.810     8356671.76349   6503795.75549  23224594.4304   23224599.5804
  21322786.678     1264288.41049    988866.53249  21322789.6104   21322794.5774
 96  7  9 16 53 59.9990000  0  5 24  4  5  7  9
  20297421.742   -10504063.77049  -8162075.86149  20297424.8604   20297430.3934
  20672506.592    -1114399.00549   -861597.58149  20672509.6904   20672513.6924
  20710955.292   -11219320.41449  -8525577.29349  20710958.2404   20710962.7024
  23236417.552     8418814.54649   6552218.65849  23236418.7924   23236425.0874
  21330524.786     1304949.77549   1020550.68849  21330527.4164   21330531.9544
 96  7  9 16 54 29.9990000  0  5 24  4  5  7  9
  20288048.450   -10553319.17349  -8200456.68049  20288051.9394   20288057.0194
  20677426.206    -1088545.44849   -841451.96049  20677429.3904   20677433.6284
  20697205.798   -11291574.71249  -8581879.34049  20697208.6914   20697213.3904
  23248230.263     8480907.47549   6600602.71649  23248235.6204   23248241.1374
  21338334.305     1345988.12849   1052528.58249  21338336.4814   21338341.0534
 96  7  9 16 54 59.9990000  0  5 24  4  5  7  9
  20278760.634   -10602126.38049  -8238488.25949  20278763.7404   20278769.1404
  20682432.920    -1062233.95749   -820949.50749  20682436.0674   20682440.1914
  20683501.577   -11363591.22149  -8637996.09649  20683504.2234   20683509.0464
  23260036.487     8542932.48149   6648933.83949  23260038.0554   23260043.7814
  21346214.979     1387403.27949   1084800.09249  21346217.9824   21346222.4474
 96  7  9 16 55 29.9980000  0  5 24  4  5  7  9
  20269561.726   -10650466.53349  -8276155.90249  20269565.2984   20269570.3414
  20687528.153    -1035459.49049   -800086.29249  20687531.2354   20687535.3804
  20669842.963   -11435369.40949  -8693927.14249  20669845.4624   20669850.4624
  23271824.616     8604892.23349   6697214.12349  23271828.1294   23271834.9544
  21354165.511     1429183.32649   1117355.92149  21354168.3954   21354172.9844
 96  7  9 16 55 59.9980000  0  5 24  4  5  7  9
  20260449.823   -10698353.51049  -8313470.41449  20260452.6534   20260457.7884
  20692707.501    -1008243.38749   -778878.94449  20692710.2884   20692714.4274
  20656226.392   -11506925.32949  -8749684.99349  20656228.8044   20656233.6974
  23283604.660     8666788.94549   6745445.27449  23283607.6174   23283613.4394
  21362182.723     1471316.16049   1150186.66849  21362185.7694   21362190.8434
 96  7  9 16 56 29.9980000  0  5 24  4  5  7  9
  20251420.288   -10745803.96649  -8350444.78449  20251423.2944   20251428.6394
  20697966.835     -980604.47549   -757342.13849  20697969.8444   20697974.0464
  20642651.730   -11578259.11149  -8805269.75349  20642654.6394   20642659.1544
  23295372.805     8728628.78749   6793632.09949  23295375.1154   23295380.9134
  21370266.745     1513797.73749   1183289.17449  21370269.7294   21370274.8764
 96  7  9 16 56 59.9980000  0  5 24  4  5  7  9
  20242479.310   -10792786.96849  -8387054.90749  20242482.7654   20242487.9114
  20703305.806     -952548.53749   -735480.37349  20703308.9824   20703313.0344
  20629121.382   -11649361.57249  -8860674.26149  20629124.2244   20629128.8064
  23307131.414     8790427.28249   6841786.72949  23307135.4854   23307140.9544
  21378418.378     1556634.69549   1216668.59649  21378421.3484   21378426.4724
 96  7  9 16 57 29.9980000  0  5 24  4  5  7  9
  20233627.723   -10839302.50249  -8423300.76449  20233631.0294   20233636.7204
  20708722.684     -924082.46949   -713299.02849  20708725.6384   20708729.8794
  20615632.857   -11720244.78649  -8915907.92849  20615635.4724   20615639.7714
  23318887.519     8852204.10849   6889924.46149  23318891.1974   23318897.7144
  21386640.632     1599840.02749   1250335.06949  21386643.0454   21386648.2084
 96  7  9 16 57 59.9980000  0  5 24  4  5  7  9
  20224862.464   -10885365.33649  -8459193.87049  20224865.5184   20224870.7794
  20714214.934     -895218.59649   -690807.70349  20714218.4614   20714222.4544
  20602187.707   -11790899.30149  -8970963.39349  20602190.1864   20602194.6404
  23330639.592     8913955.65549   6938042.50349  23330641.7404   23330648.6474
  21394932.974     1643418.53449   1284292.32549  21394936.0284   21394941.1414
 96  7  9 16 58 29.9980000  0  5 24  4  5  7  9
  20216184.186   -10930968.47849  -8494728.77349  20216187.5134   20216193.0564
  20719787.543     -865936.88049   -667990.78549  20719790.4224   20719794.6394
  20588788.150   -11861313.06449  -9025831.25449  20588790.9694   20588795.3854
  23342385.805     8975687.80549   6986145.42549  23342388.7474   23342394.8904
  21403298.657     1687378.65349   1318546.94949  21403301.3014   21403306.2764
 96  7  9 16 58 59.9980000  0  5 24  4  5  7  9
  20207594.670   -10976107.38549  -8529901.94049  20207597.9614   20207603.5314
  20725438.419     -836240.80149   -644850.98949  20725441.5364   20725445.6504
  20575432.856   -11931494.54449  -9080518.12349  20575435.7904   20575440.4464
  23354128.399     9037384.81949   7034220.95649  23354130.2124   23354135.3274
  21411735.689     1731716.45849   1353095.87449  21411738.5494   21411743.5534
 96  7  9 16 59 29.9980000  0  5 24  4  5  7  9
  20199089.926   -11020799.17449  -8564726.70149  20199093.1954   20199098.9024
  20731167.574     -806134.09049   -621391.21949  20731170.6054   20731174.6864
  20562121.381   -12001447.68649  -9135027.05849  20562124.1274   20562128.2724
  23365859.136     9099042.11749   7082265.56449  23365863.1804   23365868.8804
  21420243.147     1776423.84149   1387932.76949  21420245.8834   21420251.0214
 96  7  9 16 59 59.9980000  0  5 24  4  5  7  9
  20190667.051   -11065061.63449  -8599216.92049  20190670.4804   20190676.1294
  20736971.811     -775632.56249   -597623.79949  20736974.9864   20736978.7774
  20548851.280   -12071184.60549  -9189367.50949  20548853.6674   20548858.2204
  23377582.937     9160633.98449   7130259.17549  23377584.3394   23377589.3004
  21428816.373     1821475.20749   1423037.71249  21428819.0314   21428823.5984
 96  7  9 17  0 29.9980000  0  5 24  4  5  7  9
  20182328.494   -11108883.03549  -8633363.45649  20182331.4164   20182336.8224
  20742853.047     -744726.26549   -573540.97449  20742856.1224   20742860.0854
  20535622.453   -12140701.74949  -9243536.70349  20535624.9594   20535629.2664
  23389287.209     9222157.30649   7178199.37349  23389291.2004   23389296.9194
  21437452.857     1866862.21549   1458404.19549  21437455.7764   21437460.5044
 96  7  9 17  0 59.9980000  0  5 24  4  5  7  9
  20174077.225   -11152241.35449  -8667149.14849  20174080.8554   20174085.8984
  20748812.102     -713411.67449   -549139.99749  20748815.1574   20748819.1594
  20522441.481   -12209970.73949  -9297512.53049  20522443.8824   20522448.1344
  23400982.380     9283612.57249   7226086.53749  23400985.6134   23400991.4314
  21446155.173     1912591.96049   1494037.74249  21446157.8724   21446162.7884
 96  7  9 17  1 29.9980000  0  5 24  4  5  7  9
  20165912.145   -11195150.64849  -8700584.95349  20165915.1294   20165920.5304
  20754847.116     -681696.24649   -524426.67949  20754850.3374   20754854.6064
  20509309.373   -12278979.03749  -9351285.22549  20509311.9134   20509316.2564
  23412663.235     9345002.08949   7273922.47449  23412667.5134   23412673.6284
  21454920.681     1958655.10549   1529931.07949  21454923.5404   21454928.7544
 96  7  9 17  1 59.9980000  0  5 24  4  5  7  9
  20157830.660   -11237620.57549  -8733678.38749  20157833.7344   20157838.8594
  20760956.744     -649590.00849   -499408.83949  20760959.8484   20760964.1314
  20496226.913   -12347727.51049  -9404855.45649  20496229.7414   20496234.2354
  23424333.347     9406319.84149   7321702.48049  23424335.9514   23424341.2684
  21463748.607     2005044.92949   1566078.94849  21463751.2344   21463756.2224
 96  7  9 17  2 29.9980000  0  5 24  4  5  7  9
  20149837.316   -11279624.17549  -8766408.45549  20149840.5754   20149845.5014
  20767142.952     -617082.91749   -474078.64349  20767145.7994   20767149.9764
  20483201.318   -12416180.03849  -9458195.09049  20483203.4124   20483207.7574
  23435993.806     9467598.73549   7369452.20749  23435996.9594   23436002.3184
  21472642.544     2051783.49649   1602498.56949  21472645.4634   21472650.4844
 96  7  9 17  2 59.9980000  0  5 24  4  5  7  9
  20141930.963   -11321173.99749  -8798784.92749  20141934.1034   20141939.0034
  20773401.343     -584194.36549   -448451.20649  20773404.3844   20773408.4934
  20470228.889   -12484348.14349  -9511313.09149  20470231.3304   20470235.9424
  23447649.713     9528849.79249   7417180.24449  23447652.1434   23447658.4904
  21481604.038     2098875.73049   1639193.79349  21481606.4604   21481611.9184
 96  7  9 17  3 29.9980000  0  5 24  4  5  7  9
  20134109.317   -11362275.73949  -8830812.24949  20134112.6004   20134117.8474
  20779732.548     -550925.04949   -422527.07449  20779735.3094   20779739.1674
  20457308.780   -12552244.03449  -9564218.98249  20457311.2424   20457315.6654
  23459304.700     9590093.23449   7464902.36149  23459306.4904   23459313.5194
  21490633.150     2146323.70249   1676166.22349  21490635.7024   21490640.6774
 96  7  9 17  3 59.9980000  0  5 24  4  5  7  9
  20126376.314   -11402912.37149  -8862477.14849  20126379.6164   20126385.3364
  20786135.469     -517276.35649   -396307.31949  20786138.4504   20786142.2114
  20444438.464   -12619877.66649  -9616920.51349  20444441.1054   20444445.7144
  23470957.411     9651324.40249   7512614.89649  23470959.1534   23470965.7604
  21499728.800     2194122.62249   1713412.12949  21499731.5064   21499736.6004
 96  7  9 17  4 29.9980000  0  5 24  4  5  7  9
  20118730.266   -11443092.06049  -8893785.98749  20118733.5824   20118739.0334
  20792608.668     -483259.09149   -369800.36749  20792611.9064   20792615.6854
  20431612.067   -12687281.14449  -9669442.70449  20431614.8064   20431619.1294
  23482601.178     9712513.79849   7560294.90149  23482602.7984   23482609.1884
  21508886.311     2242244.84249   1750909.95149  21508889.0634   21508893.9034
 96  7  9 17  4 59.9980000  0  5 24  4  5  7  9
  20111175.716   -11482793.01649  -8924721.78749  20111178.7464   20111184.2024
  20799158.956     -448838.59449   -342979.20649  20799161.7184   20799165.5174
  20418830.058   -12754450.95449  -9721782.81149  20418832.6844   20418837.0974
  23494238.653     9773672.68249   7607951.12149  23494241.0524   23494246.7284
  21518106.547     2290697.33749   1788665.13649  21518109.0184   21518114.1814
 96  7  9 17  5 29.9980000  0  5 24  4  5  7  9
  20103712.664   -11522012.22849  -8955282.20649  20103715.8964   20103721.0444
  20805787.135     -414003.79749   -315835.21649  20805790.7364   20805794.3544
  20406092.855   -12821384.61349  -9773938.91149  20406095.2134   20406100.2044
  23505867.529     9834783.35149   7655569.78549  23505870.2404   23505876.9914
  21527387.555     2339473.37149   1826672.42049  21527390.8624   21527396.0584
 96  7  9 17  5 59.9980000  0  5 24  4  5  7  9
  20096340.592   -11560752.72349  -8985469.60249  20096343.5444   20096349.1574
  20812495.336     -378755.02349   -288368.64549  20812498.4644   20812502.0364
  20393401.865   -12888075.63849  -9825905.94749  20393404.6484   20393409.2454
  23517484.801     9895831.68049   7703139.85549  23517487.8104   23517493.2984
  21536730.340     2388569.34549   1864929.00549  21536733.4314   21536738.3774
 96  7  9 17  6 29.9980000  0  5 24  4  5  7  9
  20089057.105   -11599025.70149  -9015292.69549  20089060.2524   20089065.8964
  20819281.284     -343093.61749   -260580.54449  20819284.6454   20819288.4014
  20380760.145   -12954510.23549  -9877673.16749  20380762.4834   20380766.9814
  23529092.526     9956825.34349   7750667.32149  23529093.9524   23529099.7534
  21546135.899     2437994.78349   1903442.31049  21546139.0234   21546143.9724
 96  7  9 17  6 59.9980000  0  5 24  4  5  7  9
  20081861.174   -11636840.53749  -9044758.79549  20081864.4674   20081870.0544
  20826141.971     -307041.01749   -232487.61649  20826144.9624   20826149.0484
  20368170.860   -13020666.77249  -9929223.71049  20368173.5744   20368177.9374
  23540691.111    10017775.92549   7798161.23649  23540692.4874   23540698.8894
  21555607.288     2487763.75349   1942223.31249  21555609.5314   21555614.7594
 96  7  9 17  7 29.9980000  0  5 24  4  5  7  9
  20074747.827   -11674222.48049  -9073887.57549  20074751.1274   20074756.5574
  20833071.028     -270627.28349   -204113.28849  20833074.2744   20833078.2364
  20355636.558   -13086535.51949  -9980550.00849  20355638.9314   20355643.8084
  23552278.915    10078678.25349   7845617.55649  23552282.0674   23552287.7904
  21565142.814     2537876.49649   1981272.18449  21565145.9024   21565150.7324
 96  7  9 17  7 59.9980000  0  5 24  4  5  7  9
  20067717.507   -11711166.22249  -9102674.90449  20067721.0214   20067726.2474
  20840068.557     -233856.63149   -175460.84349  20840071.5054   20840075.5184
  20343160.166   -13152099.04849 -10031638.46849  20343162.5964   20343167.2574
  23563863.053    10139550.32749   7893050.28549  23563865.6914   23563872.0704
  21574742.944     2588323.36749   2020581.41149  21574745.7444   21574750.9064
 96  7  9 17  8 29.9980000  0  5 24  4  5  7  9
  20060771.221   -11747670.77449  -9131120.00049  20060774.1614   20060779.6414
  20847130.956     -196743.41649   -146541.46849  20847133.9264   20847137.8464
  20330740.145   -13217366.95649 -10082496.57549  20330742.6024   20330747.1254
  23575441.964    10200394.88749   7940461.57949  23575443.9164   23575450.3614
  21584402.754     2639087.57949   2060137.91349  21584405.7934   21584410.5074
 96  7  9 17  8 59.9980000  0  5 24  4  5  7  9
  20053911.216   -11783720.02149  -9159210.31049  20053914.1234   20053919.4954
  20854261.874     -159270.44649   -117341.76449  20854264.9834   20854268.8394
  20318376.567   -13282336.59049 -10133122.26049  20318379.1614   20318383.6024
  23587016.500    10261212.98049   7987852.26649  23587016.8634   23587024.3414
  21594121.217     2690156.11049   2099931.55649  21594124.0144   21594128.9854
 96  7  9 17  9 29.9980000  0  5 24  4  5  7  9
  20047140.477   -11819298.71349  -9186933.95649  20047143.7514   20047149.1854
  20861466.813     -121407.83049    -87838.43949  20861469.5254   20861473.5704
  20306068.269   -13347018.22149 -10183523.53149  20306070.9204   20306075.5334
  23598581.505    10321993.53149   8035213.68549  23598583.8564   23598590.2704
  21603893.384     2741509.16649   2139946.89749  21603895.9164   21603901.4064
 96  7  9 17  9 59.9980000  0  5 24  4  5  7  9
  20040463.857   -11854385.67749  -9214274.44349  20040466.9234   20040472.3464
  20868748.754      -83139.60249    -58019.05149  20868752.4364   20868756.0134
  20293813.123   -13411419.67349 -10233706.47749  20293815.4504   20293820.3074
  23610138.738    10382728.28549   8082539.42149  23610141.5444   23610148.4854
  21613721.286     2793156.65249   2180191.67149  21613723.9424   21613729.2404
 96  7  9 17 10 29.9980000  0  5 24  4  5  7  9
  20033879.457   -11888986.93649  -9241236.45249  20033882.7564   20033887.8234
  20876108.502      -44464.69849    -27882.77249  20876111.6764   20876115.7474
  20281609.933   -13475547.38049 -10283676.11549  20281612.5764   20281617.1894
  23621684.541    10443401.70149   8129817.35549  23621687.0384   23621694.2284
  21623609.912     2845121.08949   2220683.41149  21623612.5714   21623617.6184
 96  7  9 17 10 59.9980000  0  5 24  4  5  7  9
  20027384.811   -11923113.37349  -9267828.46949  20027388.5684   20027393.8194
  20883548.529       -5367.82049      2582.31549  20883551.6674   20883555.8624
  20269461.163   -13539389.35549 -10333423.10549  20269463.6354   20269468.2794
  23633218.158    10504015.82849   8177049.07849  23633221.3424   23633227.6904
  21633562.747     2897426.37649   2261440.75349  21633565.9494   21633571.0854
 96  7  9 17 11 29.9980000  0  5 24  4  5  7  9
  20020983.386   -11956758.50549  -9294045.44849  20020986.1784   20020991.5304
  20891066.906       34141.61649     33368.88049  20891070.1884   20891074.0884
  20257370.079   -13602926.93249 -10382932.90549  20257372.8034   20257377.6694
  23644745.897    10564592.12149   8224251.34049  23644749.1994   23644755.0104
  21643586.893     2950100.88949   2302485.80849  21643589.5744   21643594.8624
 96  7  9 17 11 59.9980000  0  5 24  4  5  7  9
  20014667.304   -11989946.63349  -9319906.31749  20014670.5284   20014675.9274
  20898656.302       74022.32949     64444.74849  20898659.2694   20898663.3434
  20245338.920   -13666151.26349 -10432198.61449  20245341.4754   20245346.2714
  23656267.387    10625133.20149   8271426.14349  23656269.5464   23656275.1164
  21653681.308     3003147.06049   2343820.47949  21653684.0364   21653689.1004
 96  7  9 17 12 29.9980000  0  5 24  4  5  7  9
  20008433.994   -12022702.51349  -9345430.37749  20008437.4354   20008442.7914
  20906309.395      114240.39449     95783.49249  20906312.5814   20906316.3444
  20233363.536   -13729084.78049 -10481237.71649  20233366.0934   20233370.8144
  23667780.044    10685631.96849   8318567.98249  23667781.7634   23667787.8424
  21663836.372     3056513.37249   2385404.59949  21663838.9194   21663844.4054
 96  7  9 17 12 59.9980000  0  5 24  4  5  7  9
  20002287.759   -12055002.14649  -9370598.91349  20002290.9434   20002296.4514
  20914026.352      154794.86149    127384.36549  20914029.7294   20914033.7344
  20221444.028   -13791720.77049 -10530044.97549  20221446.7954   20221451.2494
  23679285.983    10746101.20249   8365686.81949  23679288.5804   23679295.4674
  21674046.987     3110171.61049   2427216.18649  21674049.9104   21674055.5344
 96  7  9 17 13 29.9980000  0  6  6 24  4  5  7  9
  24447965.967    -3771867.92159  -2678289.13059  24447968.7034   24447975.2914
  19996235.780   -12086804.25049  -9395379.76849  19996239.0584   19996244.9474
  20921808.372      195688.51049    159249.53449  20921811.1854   20921815.3184
  20209585.622   -13854038.25249 -10578604.05049  20209588.0484   20209592.9774
  23690791.958    10806561.77749   8412798.89549  23690793.7964   23690800.3474
  21684314.764     3164124.98849   2469257.75449  21684316.8644   21684322.1774
 96  7  9 17 13 59.9980000  0  6  6 24  4  5  7  9
  24429013.427    -3871464.82349  -2755897.07549  24429015.4794   24429022.2134
  19990277.101   -12118117.32149  -9419779.55749  19990280.7554   19990286.1874
  20929654.995      236921.60949    191379.20949  20929657.7304   20929662.1084
  20197784.191   -13916053.19649 -10626927.37949  20197787.0434   20197791.7014
  23702293.223    10866997.99249   8459892.00249  23702295.2804   23702301.1794
  21694632.870     3218346.63449   2511508.36249  21694635.0054   21694640.4614
 96  7  9 17 14 29.9980000  0  6  6 24  4  5  7  9
  24410055.504    -3971086.24849  -2833524.15649  24410058.2214   24410064.8044
  19984413.738   -12148932.32649  -9443791.23749  19984416.7584   19984422.3664
  20937567.943      278505.10649    223781.92449  20937571.0094   20937574.8924
  20186040.221   -13977771.24049 -10675019.35349  20186042.4264   20186047.4464
  23713789.163    10927415.05849   8506970.18749  23713791.8234   23713797.9394
  21704999.426     3272825.42549   2553959.34249  21705002.4244   21705007.3094
 96  7  9 17 14 59.9980000  0  6  6 24  4  5  7  9
  24391091.859    -4070741.91349  -2911177.91949  24391095.2224   24391102.5634
  19978641.641   -12179261.72249  -9467424.53049  19978645.4314   19978650.7534
  20945548.446      320441.46049    256459.59049  20945551.2874   20945555.1764
  20174353.526   -14039184.21649 -10722873.61849  20174355.9834   20174360.6214
  23725281.138    10987807.14949   8554028.91449  23725284.6104   23725290.9254
  21715418.762     3327579.46849   2596624.80549  21715421.5284   21715426.3294
 96  7  9 17 15 29.9980000  0  6  6 24  4  5  7  9
  24372124.672    -4170414.01649  -2988844.49649  24372127.6484   24372134.3224
  19972960.038   -12209119.96549  -9490690.68149  19972963.4834   19972968.8934
  20953597.152      362738.23149    289418.09949  20953600.2124   20953603.8744
  20162729.897   -14100265.73249 -10770469.60249  20162732.7174   20162736.9604
  23736773.176    11048188.84649   8601079.53049  23736774.1664   23736782.1284
  21725896.914     3382642.25449   2639530.84349  21725899.6074   21725904.6654
 96  7  9 17 15 59.9980000  0  6  6 24  4  5  7  9
  24353152.090    -4270111.90649  -3066531.14349  24353154.7764   24353162.3704
  19967361.725   -12238538.71549  -9513614.37749  19967365.1514   19967370.1454
  20961714.576      405394.50049    322656.73649  20961717.1624   20961721.2714
  20151167.415   -14161026.08749 -10817815.33049  20151169.9864   20151174.8234
  23748255.213    11108541.11549   8648107.22049  23748259.2464   23748266.6434
  21736431.989     3438002.20149   2682668.44149  21736434.2254   21736439.2524
 96  7  9 17 16 29.9980000  0  6  6 24  4  5  7  9
  24334175.238    -4369838.05449  -3144239.80549  24334177.1584   24334185.7804
  19961846.578   -12267520.42049  -9536197.52149  19961850.2264   19961855.1744
  20969896.627      448395.63649    356164.10349  20969900.1874   20969903.8774
  20139666.180   -14221467.66849 -10864912.66249  20139668.5504   20139673.2594
  23759734.129    11168851.45949   8695102.25449  23759736.3614   23759742.3554
  21747022.992     3493659.10749   2726037.43549  21747025.6074   21747030.6744
 96  7  9 17 16 59.9980000  0  6  6 24  4  5  7  9
  24315193.666    -4469587.93949  -3221966.92849  24315196.2594   24315203.4044
  19956416.786   -12296056.54049  -9558433.44749  19956419.8354   19956425.2764
  20978145.723      491743.03749    389941.28549  20978148.5304   20978152.8964
  20128225.736   -14281586.10449 -10911758.19649  20128228.6374   20128233.0364
  23771200.656    11229101.64049   8742050.38849  23771202.1594   23771206.7764
  21757673.359     3549625.85849   2769647.86249  21757675.9164   21757681.1014
 96  7  9 17 17 29.9980000  0  6  6 24  4  5  7  9
  24296208.542    -4569355.88849  -3299708.13849  24296210.3704   24296218.0124
  19951074.901   -12324128.60149  -9580307.77449  19951078.0734   19951083.2694
  20986461.040      535439.77249    423990.67349  20986463.9774   20986468.0424
  20116848.652   -14341373.48549 -10958345.76349  20116851.2294   20116855.9394
  23782653.583    11289293.57649   8788953.13749  23782655.4334   23782663.1824
  21768381.637     3605901.35349   2813498.87349  21768384.8334   21768389.4484
 96  7  9 17 17 59.9980000  0  6  6 24  4  5  7  9
  24277221.222    -4669132.35449  -3377455.97649  24277223.8104   24277230.6924
  19945824.706   -12351717.74549  -9601805.80049  19945827.7814   19945833.2284
  20994841.347      579480.17349    458307.85249  20994844.7304   20994848.7164
  20105531.252   -14400848.42449 -11004689.87049  20105533.6314   20105537.9484
  23794091.618    11349407.19849   8835794.86349  23794094.4564   23794101.2594
  21779144.840     3662463.08949   2857572.92349  21779147.8514   21779153.1174
 96  7  9 17 18 29.9980000  0  6  6 24  4  5  7  9
  24258236.310    -4768899.33649  -3455196.41349  24258238.6904   24258245.8994
  19940668.806   -12378813.26049  -9622919.18349  19940672.0284   19940676.9994
  21003283.995      623845.99749    492878.61049  21003286.9824   21003291.1994
  20094273.550   -14460007.36949 -11050787.74949  20094276.0224   20094280.4994
  23805518.249    11409447.43549   8882579.41849  23805519.8094   23805527.1124
  21789961.090     3719300.99049   2901862.16149  21789963.9784   21789968.8074
 96  7  9 17 18 59.9980000  0  6  6 24  4  5  7  9
  24239257.654    -4868635.77949  -3532913.04049  24239260.2644   24239266.5754
  19935608.570   -12405405.68349  -9643640.54649  19935611.5844   19935616.8054
  21011791.615      668551.63749    527714.15949  21011794.2224   21011798.4104
  20083079.904   -14518830.10449 -11096623.64349  20083082.4494   20083086.9694
  23816933.566    11469438.53649   8929325.70249  23816936.1694   23816942.7574
  21800831.377     3776424.01249   2946373.57649  21800834.0504   21800839.5394
 96  7  9 17 19 29.9980000  0  6  6 24  4  5  7  9
  24220284.680    -4968341.70749  -3610605.92549  24220286.5794   24220293.4694
  19930638.856   -12431519.77749  -9663989.18649  19930641.9554   19930647.3094
  21020362.224      713589.83949    562808.84649  21020364.9434   21020368.9994
  20071949.831   -14577319.75549 -11142199.99049  20071951.9284   20071956.9544
  23828340.177    11529382.61449   8976035.32449  23828342.9814   23828350.1914
  21811751.520     3833809.97649   2991089.87949  21811754.5514   21811759.2474
 96  7  9 17 19 59.9980000  0  6  6 24  4  5  7  9
  24201315.283    -5068020.70249  -3688277.83249  24201318.4604   24201326.1854
  19925760.463   -12457157.55349  -9683966.66849  19925763.3354   19925768.7184
  21028994.145      758951.99349    598155.96649  21028997.0374   21029001.2154
  20060881.908   -14635482.34649 -11187521.49249  20060884.2794   20060888.7234
  23839737.315    11589276.15449   9022705.57349  23839739.6734   23839745.8104
  21822719.291     3891446.72749   3036001.60449  21822721.8844   21822727.4984
 96  7  9 17 20 29.9980000  0  6  6 24  4  5  7  9
  24182353.174    -5167674.07749  -3765929.77849  24182354.8984   24182362.1484
  19920973.214   -12482313.90849  -9703569.02049  19920976.3414   19920981.6824
  21037691.252      804657.47749    633770.61349  21037694.5074   21037698.7354
  20049879.441   -14693301.06249 -11232575.03849  20049881.8644   20049885.9934
  23851128.610    11649153.48149   9069363.20449  23851134.7034   23851141.0924
  21833739.996     3949360.21249   3081128.95949  21833742.7314   21833748.1994
 96  7  9 17 20 59.9980000  0  6  6 24  4  5  7  9
  24163384.586    -5267350.10549  -3843599.34049  24163386.9694   24163394.5634
  19916270.199   -12507027.88849  -9722826.66649  19916273.7044   19916278.6334
  21046452.493      850695.36349    669644.27349  21046455.3074   21046459.3174
  20038934.257   -14750816.91249 -11277392.58949  20038937.0314   20038941.1884
  23862517.112    11708979.08849   9115980.51649  23862519.5694   23862525.9524
  21844807.090     4007518.24249   3126446.86849  21844809.9054   21844815.3404
 96  7  9 17 21 29.9980000  0  6  6 24  4  5  7  9
  24144411.792    -5367051.33149  -3921288.55649  24144414.6124   24144422.0694
  19911652.861   -12531292.18349  -9741733.90049  19911656.0674   19911661.1954
  21055276.918      897066.40949    705777.54149  21055279.4244   21055283.2964
  20028047.860   -14808027.48849 -11321972.25949  20028050.1384   20028054.2484
  23873893.043    11768761.11849   9162563.86549  23873895.4444   23873901.7034
  21855920.961     4065920.29749   3171954.92849  21855923.2364   21855928.5584
 96  7  9 17 21 59.9980000  0  6  6 24  4  5  7  9
  24125430.874    -5466797.69449  -3999012.95649  24125433.5724   24125440.8254
  19907120.940   -12555106.34049  -9760290.38249  19907124.0414   19907129.4544
  21064159.987      943750.45349    742154.70649  21064162.7914   21064166.9044
  20017217.265   -14864942.93249 -11366321.95549  20017219.6024   20017223.7424
  23885260.966    11828504.25249   9209116.91449  23885264.2174   23885271.0064
  21867078.283     4124550.29349   3217640.59849  21867080.7114   21867085.8964
 96  7  9 17 22 29.9980000  0  6  6 24  4  5  7  9
  24106443.326    -5566577.55649  -4076763.43649  24106446.2244   24106453.0924
  19902672.176   -12578484.70549  -9778507.28549  19902675.6884   19902680.7944
  21073104.990      990757.48149    778783.54649  21073108.3854   21073112.1544
  20006444.946   -14921551.46049 -11410432.49849  20006447.4434   20006451.7794
  23896625.250    11888221.28049   9255649.60949  23896628.0654   23896635.1974
  21878278.205     4183408.24149   3263503.89749  21878280.7424   21878285.9614
 96  7  9 17 22 59.9980000  0  6  6 24  4  5  7  9
  24087451.989    -5666384.52249  -4154535.02149  24087453.7214   24087460.4464
  19898309.231   -12601414.17449  -9796374.40149  19898312.3194   19898317.3034
  21082112.414     1038088.74149    815665.03549  21082115.0914   21082118.9604
  19995736.161   -14977825.83049 -11454282.65949  19995738.9114   19995742.8184
  23907985.129    11947916.43249   9302165.26649  23907987.4684   23907994.3884
  21889520.889     4242488.73549   3309540.60649  21889523.5104   21889528.8914
 96  7  9 17 23 29.9980000  0  5  6 24  4  5  9
  24068452.965    -5766220.40249  -4232329.13449  24068455.8764   24068461.9604
  19894031.746   -12623894.07649  -9813891.20549  19894034.6884   19894039.7014
  21091175.712     1085718.95149    852779.47149  21091178.8464   21091182.8114
  19985093.624   -15033754.36449 -11497863.33349  19985095.9514   19985100.0704
  21900806.821     4301793.51549   3355752.10049  21900809.3174   21900814.3544
 96  7  9 17 23 59.9980000  0  5  6 24  4  5  9
  24049448.618    -5866084.95749  -4310145.63049  24049451.1194   24049458.7974
  19889837.546   -12645933.83049  -9831065.03549  19889840.6354   19889845.7034
  21100295.483     1133643.86449    890123.54249  21100298.7034   21100302.6284
  19974516.846   -15089335.91549 -11541173.63549  19974519.2244   19974523.3834
  21912133.526     4361316.75749   3402133.80849  21912136.1444   21912141.6074
 96  7  9 17 24 29.9980000  0  5  6 24  4  5  9
  24030441.048    -5965973.08749  -4387980.47849  24030442.9444   24030451.3674
  19885729.464   -12667523.12849  -9847887.86249  19885732.5224   19885737.0204
  21109473.525     1181872.24549    927704.08349  21109476.0364   21109480.2234
  19964006.889   -15144564.43149 -11584208.84349  19964009.4504   19964013.8354
  21923503.863     4421069.79149   3448694.56949  21923506.7054   21923511.7064
 96  7  9 17 24 59.9980000  0  5  6 24  4  5  9
  24011425.859    -6065898.33349  -4465844.25349  24011427.6834   24011435.5374
  19881707.218   -12688660.90149  -9864358.85049  19881710.1484   19881714.8404
  21118705.628     1230388.83249    965509.20149  21118708.7214   21118712.8324
  19953564.014   -15199443.47849 -11626971.74749  19953566.3184   19953570.5564
  21934919.084     4481057.44149   3495438.16149  21934921.6474   21934927.5834
 96  7  9 17 25 29.9980000  0  5  6 24  4  5  9
  23992405.674    -6165847.09249  -4543726.36049  23992407.2714   23992414.7174
  19877768.133   -12709358.25749  -9880486.65849  19877771.6774   19877776.3634
  21127994.505     1279201.59149   1003545.09749  21127997.2674   21128001.7454
  19943185.804   -15253981.41749 -11669468.85149  19943188.2154   19943192.2484
  21946381.072     4541289.02249   3542371.81749  21946383.6064   21946388.8614
 96  7  9 17 25 59.9980000  0  5  6 24  4  5  9
  23973382.160    -6265815.17549  -4621623.51749  23973383.8314   23973392.2084
  19873911.509   -12729626.52549  -9896280.10949  19873914.5004   19873919.1684
  21137339.669     1328308.04949   1041809.84949  21137342.2074   21137346.5494
  19932869.993   -15308190.65249 -11711709.81749  19932872.7024   19932876.8474
  21957886.625     4601753.49349   3589486.96249  21957889.4204   21957894.4864
 96  7  9 17 26 29.9980000  0  5  6 24  4  5  9
  23954357.145    -6365798.14649  -4699532.27449  23954360.1134   23954366.1594
  19870135.735   -12749467.80649  -9911740.84649  19870139.0144   19870143.6234
  21146740.168     1377709.05549   1080304.12449  21146742.9104   21146747.1634
  19922618.016   -15362064.96449 -11753689.80349  19922620.2974   19922624.6754
  21969440.670     4662471.38349   3636799.56849  21969444.0354   21969448.9954
 96  7  9 17 26 59.9980000  0  5  6 24  4  5  9
  23935328.720    -6465786.57249  -4777445.27749  23935331.8884   23935337.8144
  19866439.288   -12768892.25749  -9926876.77549  19866442.6354   19866447.4454
  21156195.666     1427399.66849   1119024.06349  21156198.5174   21156202.8934
  19912431.164   -15415595.44349 -11795401.86449  19912433.6454   19912438.1144
  21981044.581     4723447.00849   3684313.00549  21981046.7434   21981052.3544
 96  7  9 17 27 29.9980000  0  5  6 24  4  5  9
  23916300.214    -6565779.69649  -4855361.94749  23916303.5444   23916310.3454
  19862824.833   -12787886.11749  -9941677.18649  19862827.9144   19862833.0474
  21165704.924     1477369.69249   1157961.72549  21165707.7724   21165711.6954
  19902311.327   -15468777.06049 -11836842.08649  19902313.5764   19902317.8934
  21992694.487     4784671.13449   3732020.08349  21992697.6594   21992703.2044
 96  7  9 17 27 59.9980000  0  5  6 24  4  5  9
  23897270.429    -6665792.46849  -4933293.91249  23897271.2484   23897278.4974
  19859293.846   -12806442.17149  -9956136.44949  19859297.0434   19859302.1214
  21175262.438     1527596.79949   1197099.71549  21175265.5944   21175269.7014
  19892258.462   -15521605.01449 -11878006.72449  19892260.9384   19892265.3734
  22004389.721     4846130.18049   3779910.20249  22004392.6024   22004398.3594
 96  7  9 17 28 29.9980000  0  5  6 24  4  5  9
  23878233.281    -6765829.49249  -5011244.78549  23878236.0144   23878241.5354
  19855850.075   -12824540.41749  -9970238.97649  19855853.2074   19855858.1794
  21184871.851     1578093.13149   1236447.48949  21184874.8044   21184878.5984
  19882276.250   -15574062.83449 -11918882.94849  19882278.6164   19882282.8534
  22016129.811     4907820.59649   3827980.61349  22016132.3054   22016137.3824
 96  7  9 17 28 59.9980000  0  5  6 24  4  5  9
  23859193.818    -6865879.02149  -5089205.40349  23859196.0284   23859203.0614
  19852497.584   -12842155.30849  -9983964.86149  19852500.6764   19852506.1524
  21194535.698     1628876.42749   1276018.87249  21194538.6914   21194542.4594
  19872366.924   -15626137.03649 -11959460.24949  19872369.0594   19872373.4484
  22027910.974     4969732.38249   3876223.52749  22027913.4784   22027918.8784
 96  7  9 17 29 29.9980000  0  5  6 24  4  5  9
  23840154.293    -6965929.75749  -5167166.96849  23840156.7434   23840163.5104
  19849239.295   -12859277.73749  -9997307.01249  19849242.5604   19849247.5254
  21204254.459     1679949.87249   1315816.34649  21204257.5154   21204261.4584
  19862529.051   -15677836.30449 -11999745.39549  19862531.1084   19862535.6244
  22039733.677     5031862.25949   3924636.38249  22039737.0204   22039742.0174
 96  7  9 17 29 59.9980000  0  5  6 24  4  5  9
  23821115.807    -7065981.01849  -5245128.95649  23821117.3954   23821125.0094
  19846070.029   -12875934.88049 -10010286.60649  19846072.8404   19846078.0074
  21214029.606     1731317.68149   1355843.19249  21214032.3084   21214036.6734
  19852757.747   -15729181.98049 -12039755.01849  19852760.2324   19852765.0314
  22051595.507     5094192.62749   3973205.46149  22051597.8634   22051603.1914
 96  7  9 17 30 29.9980000  0  5  6 24  4  5  9
  23802079.879    -7166013.71949  -5323076.46249  23802082.9584   23802089.3714
  19842988.163   -12892129.33049 -10022905.65549  19842991.4674   19842996.4604
  21223864.317     1782998.76249   1396114.14749  21223867.0754   21223871.0964
  19843054.712   -15780172.78449 -12079488.11349  19843057.0714   19843061.7124
  22063496.513     5156732.71449   4021937.96749  22063498.8864   22063504.0944
 96  7  9 17 30 59.9980000  0  6  6 16 24  4  5  9
  23783049.482    -7266012.82249  -5400997.77949  23783052.8994   23783059.8874
  24081824.898    -1642138.79059  -1262453.13059  24081828.1134   24081836.9654
  19839991.714   -12907874.86349 -10035174.90149  19839994.9574   19839999.6514
  21233757.132     1834986.29349   1436623.89249  21233760.1154   21233763.6794
  19833418.920   -15830807.58149 -12118943.80049  19833421.6664   19833425.7914
  22075437.728     5219487.53749   4070837.78549  22075440.7754   22075445.4964
 96  7  9 17 31 29.9980000  0  6  6 16 24  4  5  9
  23764023.571    -7366000.86749  -5478910.47149  23764026.3504   23764032.6184
  24058776.022    -1763251.93749  -1356826.92249  24058780.2544   24058789.9334
  19837077.054   -12923191.66749 -10047110.06849  19837080.4044   19837084.9894
  21243704.834     1887263.63249   1477359.46749  21243707.9004   21243711.6424
  19823850.538   -15881091.97149 -12158126.44149  19823852.8654   19823857.1904
  22087414.906     5282428.95049   4119883.00249  22087418.2644   22087423.2364
 96  7  9 17 31 59.9980000  0  6  6 16 24  4  5  9
  23744994.263    -7465998.20849  -5556830.39449  23744997.7764   23745005.2714
  24035706.791    -1884492.09649  -1451299.67549  24035709.5974   24035717.5754
  19834244.778   -12938075.21249 -10058707.63449  19834248.0974   19834252.8034
  21253710.537     1939839.61349   1518327.75149  21253712.9364   21253717.0154
  19814354.481   -15930993.75049 -12197010.94849  19814356.9034   19814361.2934
  22099428.217     5345554.80249   4169071.94449  22099430.2794   22099436.2304
 96  7  9 17 32 29.9980000  0  6  6 16 24  4  5  9
  23725962.981    -7566007.63949  -5634759.72849  23725966.3674   23725972.8384
  24012613.696    -2005856.23749  -1545869.02249  24012614.8634   24012623.5234
  19831498.240   -12952508.35149 -10069954.22949  19831501.6224   19831506.6264
  21263771.214     1992710.21949   1559525.61049  21263774.0554   21263778.0604
  19804936.587   -15980486.71449 -12235576.89849  19804938.7634   19804942.8534
  22111477.853     5408877.16049   4218413.99749  22111480.4914   22111485.8684
 96  7  9 17 32 59.9980000  0  6  6 16 24  4  5  9
  23706927.447    -7666042.20949  -5712708.68149  23706930.0254   23706936.7304
  23989492.719    -2127354.46549  -1640542.87049  23989493.8124   23989502.4724
  19828839.813   -12966479.36149 -10080840.72549  19828842.9574   19828847.8864
  21273885.242     2045861.41449   1600942.10649  21273888.3424   21273892.2784
  19795598.110   -16029560.81149 -12273816.45949  19795600.1464   19795604.5054
  22123562.525     5472383.99549   4267899.80249  22123564.9044   22123570.9844
 96  7  9 17 33 29.9980000  0  6  6 16 24  4  5  9
  23687885.494    -7766107.75149  -5790681.75349  23687888.7444   23687895.0944
  23966347.495    -2248974.00249  -1735311.22149  23966350.0164   23966359.1234
  19826271.141   -12979978.51149 -10091359.53649  19826274.1224   19826279.2334
  21284052.358     2099287.55749   1642572.84949  21284054.8554   21284059.0534
  19786338.578   -16078219.43949 -12311732.27249  19786340.6734   19786345.3244
  22135683.760     5536083.14149   4317535.46849  22135686.7394   22135691.8604
 96  7  9 17 33 59.9980000  0  6  6 16 24  4  5  9
  23668836.584    -7866206.23749  -5868680.50149  23668838.7474   23668846.7554
  23943180.823    -2370716.26949  -1830175.20549  23943183.3694   23943192.4554
  19823786.737   -12993034.91249 -10101533.35349  19823789.6534   19823794.8404
  21294263.178     2152947.39349   1684385.69249  21294266.3174   21294269.9314
  19777150.344   -16126502.41449 -12349355.37049  19777152.5754   19777157.2084
  22147843.963     5599981.46549   4367326.33049  22147845.9554   22147851.8144
 96  7  9 17 34 29.9980000  0  6  6 16 24  4  5  9
  23649789.548    -7966303.45349  -5946678.27449  23649792.6894   23649799.8984
  23919996.240    -2492565.13849  -1925122.28949  23919996.3784   23920005.2274
  19821386.070   -13005650.51349 -10111363.69349  19821389.1194   19821394.0304
  21304518.114     2206835.70049   1726376.56249  21304520.7274   21304525.0994
  19768029.815   -16174431.15749 -12386702.44849  19768031.8314   19768036.6754
  22160041.473     5664081.46349   4417274.34849  22160044.4384   22160049.4034
 96  7  9 17 34 59.9980000  0  6  6 16 24  4  5  9
  23630744.265    -8066393.61349  -6024670.56549  23630746.3414   23630752.9164
  23896789.267    -2614511.71049  -2020145.49649  23896790.5084   23896798.9694
  19819067.175   -13017835.42649 -10120858.42549  19819070.1714   19819074.8964
  21314816.626     2260957.07049   1768549.03849  21314819.5584   21314823.8914
  19758973.257   -16222023.42949 -12423787.33349  19758975.2634   19758980.1224
  22172276.352     5728374.31749   4467372.63849  22172279.1914   22172284.0594
 96  7  9 17 35 29.9980000  0  6  6 16 24  4  5  9
  23611698.139    -8166477.44949  -6102657.92249  23611699.9634   23611706.6074
  23873567.556    -2736548.61849  -2115239.09549  23873569.2014   23873576.5974
  19816826.753   -13029609.77349 -10130033.23849  19816829.7164   19816834.5954
  21325160.203     2315313.13049   1810904.39149  21325163.2414   21325167.5124
  19749978.097   -16269292.12749 -12460620.08649  19749980.5804   19749985.4314
  22184546.364     5792853.61549   4517616.20649  22184548.9624   22184554.4284
 96  7  9 17 35 59.9980000  0  6  6 16 24  4  5  9
  23592652.372    -8266563.15849  -6180646.74949  23592655.4374   23592661.9074
  23850326.677    -2858679.15849  -2210405.65049  23850327.0454   23850335.4434
  19814663.328   -13040979.65749 -10138892.88749  19814666.1554   19814671.0374
  21335549.417     2369906.85449   1853444.93349  21335552.4244   21335556.3364
  19741046.333   -16316229.60749 -12497194.74649  19741048.9284   19741053.3474
  22196847.515     5857495.54449   4567986.50049  22196849.6274   22196855.1834
 96  7  9 17 36 29.9970000  0  6  6 16 24  4  5  9
  23573620.816    -8366578.82349  -6258580.98249  23573621.8894   23573628.8674
  23827081.979    -2980819.33249  -2305579.72949  23827085.4264   23827092.4804
  19812595.351   -13051843.69449 -10147358.37449  19812598.2494   19812603.6434
  21346001.594     2424836.38449   1896247.14149  21346004.4394   21346008.9274
  19732198.185   -16362728.00149 -12533427.27149  19732200.5564   19732205.1514
  22209190.503     5922356.42349   4618527.40149  22209192.7874   22209197.8034
 96  7  9 17 36 59.9970000  0  6  6 16 24  4  5  9
  23554577.708    -8466645.27049  -6336554.75449  23554580.4874   23554586.7824
  23803816.603    -3103078.66349  -2400846.65349  23803819.3074   23803826.8194
  19810606.079   -13062296.74149 -10155503.60249  19810609.5804   19810614.2794
  21356501.485     2480008.97549   1939238.74949  21356503.7314   21356507.9244
  19723417.468   -16408870.03249 -12569382.10449  19723419.9754   19723424.5384
  22221557.515     5987348.08749   4669170.20949  22221560.4024   22221565.2144
 96  7  9 17 37 29.9970000  0  6  6 16 24  4  5  9
  23535533.772    -8566723.49449  -6414537.71449  23535536.2674   23535542.5264
  23780540.652    -3225407.15849  -2496167.47949  23780541.5984   23780548.1424
  19808702.918   -13072299.79249 -10163298.18249  19808705.8624   19808710.7744
  21367052.509     2535456.12349   1982444.29549  21367055.3014   21367059.3064
  19714716.759   -16454592.97349 -12605010.37249  19714719.4364   19714723.8504
  22233958.701     6052515.24649   4719949.76849  22233961.0524   22233966.2744
 96  7  9 17 37 59.9970000  0  6  6 16 24  4  5  9
  23516492.516    -8666788.17449  -6492510.12849  23516494.5664   23516499.8654
  23757250.617    -3347793.01249  -2591532.99549  23757252.8304   23757259.6274
  19806887.922   -13081837.62749 -10170730.26049  19806891.2504   19806895.8384
  21377655.307     2591173.85149   2025860.68549  21377657.8914   21377662.2684
  19706099.798   -16499874.72649 -12640294.85649  19706102.1904   19706106.7374
  22246395.273     6117868.20149   4770874.09449  22246397.3954   22246402.4944
 96  7  9 17 38 29.9970000  0  6  6 16 24  4  5  9
  23497451.222    -8766851.80249  -6570481.70749  23497453.3964   23497459.3094
  23733949.358    -3470254.44249  -2686957.40549  23733949.0364   23733955.5694
  19805155.894   -13090938.67249 -10177821.98249  19805159.2424   19805164.1014
  21388302.995     2647128.33949   2069461.56649  21388305.6704   21388310.1954
  19697563.931   -16544731.53749 -12675248.21249  19697566.3134   19697571.0184
  22258863.071     6183387.99949   4821928.43649  22258865.7734   22258870.6784
 96  7  9 17 38 59.9970000  0  6  6 16 24  4  5  9
  23478409.149    -8866913.44749  -6648451.73149  23478411.9024   23478418.8614
  23710630.704    -3592781.54549  -2782432.98349  23710632.0144   23710638.6434
  19803503.373   -13099624.72649 -10184590.33049  19803506.3644   19803511.1004
  21398993.813     2703305.28749   2113235.78949  21398995.8384   21398999.9064
  19689107.219   -16589172.26249 -12709877.35049  19689109.6074   19689114.4964
  22271362.747     6249073.30549   4873111.73749  22271365.0454   22271370.8324
 96  7  9 17 39 29.9970000  0  6  6 16 24  4  5  9
  23459369.980    -8966965.26349  -6726414.09649  23459371.9104   23459378.8834
  23687302.063    -3715367.69549  -2877954.59849  23687305.6924   23687309.4504
  19801930.586   -13107889.89749 -10191030.72549  19801933.3204   19801938.4214
  21409725.265     2759702.77649   2157181.85949  21409727.9504   21409732.0544
  19680730.559   -16633193.88249 -12744179.91249  19680732.4294   19680737.0154
  22283893.113     6314923.63349   4924423.64449  22283895.7424   22283901.1184
 96  7  9 17 39 59.9970000  0  6  6 16 24  4  5  9
  23440334.026    -9067001.23249  -6804364.12349  23440336.7874   23440341.7104
  23663961.737    -3838037.69449  -2973541.53649  23663962.3714   23663966.5444
  19800440.281   -13115720.41949 -10197132.43549  19800443.5304   19800448.1194
  21420498.636     2816317.65149   2201297.32249  21420501.2254   21420505.0424
  19672430.117   -16676811.48949 -12778167.66149  19672432.4104   19672437.1074
  22296454.928     6380935.79449   4975861.63949  22296457.1054   22296463.4994
 96  7  9 17 40 29.9970000  0  6  6 16 24  4  5  9
  23421295.706    -9167049.13549  -6882323.45749  23421297.9374   23421304.1574
  23640596.925    -3960808.82949  -3069207.28649  23640599.6704   23640603.4064
  19799030.565   -13123131.66049 -10202907.43449  19799032.8774   19799037.9674
  21431314.775     2873154.77449   2245585.96449  21431317.2434   21431321.1614
  19664202.170   -16720049.16149 -12811859.35549  19664204.4834   19664208.9914
  22309046.481     6447109.42549   5027425.46249  22309049.9594   22309055.5184
 96  7  9 17 40 59.9970000  0  6  6 16 24  4  5  9
  23402255.990    -9267103.42949  -6960287.76949  23402258.2364   23402263.4294
  23617216.155    -4083676.01049  -3164947.86949  23617218.7214   23617223.4904
  19797702.096   -13130107.71449 -10208343.32249  19797705.6654   19797710.4254
  21442175.626     2930231.24649   2290061.11449  21442178.4754   21442182.4324
  19656046.989   -16762907.91149 -12845255.78249  19656048.9714   19656053.7964
  22321674.000     6513459.22249   5079126.55349  22321675.8984   22321681.1834
 96  7  9 17 41 29.9970000  0  6  6 16 24  4  5  9
  23383213.532    -9367168.27149  -7038260.29249  23383215.5284   23383221.0854
  23593816.172    -4206646.77749  -3260769.19449  23593817.3374   23593822.4404
  19796459.099   -13136640.16149 -10213433.55349  19796462.1364   19796467.2974
  21453082.342     2987547.31749   2334722.95649  21453085.4664   21453089.5074
  19647963.169   -16805388.10649 -12878357.23949  19647965.3364   19647969.8854
  22334332.859     6579981.58449   5130962.11349  22334334.9484   22334340.5884
 96  7  9 17 41 59.9970000  0  6  6 16 24  4  5  9
  23364168.888    -9467250.36149  -7116246.25549  23364171.0304   23364176.6794
  23570398.044    -4329707.25449  -3356660.39349  23570399.7644   23570403.9394
  19795300.020   -13142733.71849 -10218181.78249  19795302.8954   19795308.0724
  21464035.226     3045103.82049   2379572.15549  21464038.0544   21464041.9214
  19639951.644   -16847489.74149 -12911163.71249  19639953.8154   19639958.1064
  22347020.939     6646662.41249   5182921.14949  22347023.6404   22347029.4344
 96  7  9 17 42 29.9970000  0  6  6 16 24  4  5  9
  23345122.390    -9567344.78449  -7194241.83449  23345123.2894   23345128.6444
  23546972.603    -4452802.71049  -3452578.87049  23546974.3204   23546979.7334
  19794223.981   -13148387.65249 -10222587.45249  19794226.9924   19794232.1224
  21475035.602     3102907.63849   2424614.06649  21475038.0304   21475041.8824
  19632016.887   -16889186.01849 -12943654.32249  19632019.1664   19632023.6904
  22359739.724     6713497.87149   5235000.68749  22359741.5884   22359747.4794
 96  7  9 17 42 59.9970000  0  6  6 16 24  4  5  9
  23326068.767    -9667459.90749  -7272253.56249  23326072.0354   23326078.1804
  23523542.537    -4575935.03349  -3548526.06249  23523544.5924   23523548.7174
  19793229.867   -13153610.28649 -10226657.04349  19793233.1224   19793237.7824
  21486075.434     3160926.98449   2469823.92049  21486078.4904   21486082.5794
  19624159.351   -16930478.25049 -12975830.09349  19624161.5474   19624165.8564
  22372481.581     6780457.10049   5287176.65549  22372484.2094   22372489.0794
 96  7  9 17 43 29.9970000  0  6  6 16 24  4  5  9
  23307013.879    -9767599.55049  -7350284.37349  23307016.0634   23307022.3644
  23500103.638    -4699106.57149  -3644503.80549  23500105.3374   23500111.0524
  19792315.978   -13158415.46449 -10230401.33949  19792318.6894   19792323.4744
  21497154.292     3219146.02149   2515189.37849  21497157.3714   21497161.4394
  19616377.483   -16971371.18849 -13007694.71749  19616379.7724   19616384.1954
  22385244.418     6847527.26349   5339439.07449  22385247.3554   22385252.9404
 96  7  9 17 43 59.9970000  0  6  6 16 24  4  5  9
  23287952.437    -9867769.86749  -7428339.10549  23287954.3314   23287960.4514
  23476655.539    -4822322.76449  -3740516.34549  23476658.5024   23476662.1174
  19791477.643   -13162822.71149 -10233835.56049  19791480.4774   19791484.7964
  21508267.222     3277543.15949   2560693.61449  21508270.0174   21508274.1684
  19608670.573   -17011871.50949 -13039253.40949  19608672.9094   19608677.4564
  22398026.752     6914695.88949   5391778.21549  22398029.2304   22398034.6434
 96  7  9 17 44 29.9970000  0  6  6 16 24  4  5  9
  23268886.737    -9967955.80849  -7506405.99349  23268888.3294   23268894.6674
  23453201.902    -4945576.59649  -3836558.23249  23453202.6804   23453207.8254
  19790715.347   -13166826.51649 -10236955.40949  19790718.2964   19790722.6964
  21519415.393     3336124.27249   2606341.20649  21519417.6204   21519421.7994
  19601040.089   -17051971.57149 -13070500.21249  19601042.2934   19601046.7844
  22410830.273     6981978.52949   5444206.19149  22410832.3994   22410837.6064
 96  7  9 17 44 59.9970000  0  6  6 16 24  4  5  9
  23249822.082   -10068145.08649  -7584475.50549  23249824.0494   23249828.8454
  23429737.955    -5068879.31549  -3932638.20349  23429738.6664   23429744.6004
  19790030.692   -13170424.78849 -10239759.25849  19790033.4034   19790038.2044
  21530601.573     3394907.51549   2652146.30149  21530603.7634   21530607.9944
  19593486.366   -17091665.62449 -13101430.64849  19593488.4794   19593493.1694
  22423657.236     7049386.60349   5496731.91249  22423660.2734   22423665.0584
 96  7  9 17 45 29.9970000  0  6  6 16 24  4  5  9
  23230761.490   -10168309.82449  -7662525.89549  23230763.9384   23230768.7444
  23406270.333    -5192194.56049  -4028727.93349  23406273.9454   23406278.3744
  19789427.297   -13173594.34149 -10242229.04249  19789430.3034   19789435.2164
  21541832.644     3453930.21749   2698137.98849  21541835.1044   21541839.5674
  19586015.667   -17130924.10949 -13132021.67549  19586017.8374   19586022.6074
  22436511.127     7116933.18049   5549365.55449  22436513.4654   22436519.3584
 96  7  9 17 45 59.9970000  0  6  6 16 24  4  5  9
  23211708.004   -10268435.16049  -7740545.57649  23211710.8784   23211714.4414
  23382807.745    -5315496.29849  -4124807.15249  23382809.7084   23382814.9074
  19788907.554   -13176325.85649 -10244357.50749  19788910.5264   19788915.4234
  21553114.251     3513216.35349   2744334.94549  21553116.8734   21553121.3544
  19578632.140   -17169723.98149 -13162255.34549  19578634.5794   19578639.1284
  22449390.543     7184619.88849   5602108.39049  22449393.7384   22449399.3364
 96  7  9 17 46 29.9970000  0  6  6 16 24  4  5  9
  23192660.235   -10368529.54449  -7818541.15749  23192663.3294   23192668.0224
  23359345.191    -5438802.02349  -4220889.47449  23359345.7134   23359351.1514
  19788467.002   -13178641.25149 -10246161.71449  19788470.0034   19788474.9074
  21564446.197     3572763.78549   2790735.51349  21564449.0924   21564453.0824
  19571335.139   -17208070.79249 -13192135.98249  19571337.6134   19571341.7604
  22462296.419     7252435.51349   5654951.68749  22462298.5174   22462304.7354
 96  7  9 17 46 59.9970000  0  6  6 16 24  4  5  9
  23173620.325   -10468585.70949  -7896506.94749  23173623.4754   23173628.7714
  23335877.254    -5562114.61349  -4316977.15649  23335880.4214   23335886.6304
  19788105.380   -13180541.17649 -10247642.17649  19788108.4884   19788113.5274
  21575826.430     3632569.38449   2837337.24949  21575829.2724   21575833.4934
  19564125.565   -17245956.23449 -13221657.11349  19564127.9724   19564132.6054
  22475223.802     7320375.12349   5707891.59349  22475226.5544   22475233.0574
 96  7  9 17 47 29.9970000  0  6  6 16 24  4  5  9
  23154587.098   -10568606.83249  -7974445.42949  23154588.8184   23154594.1114
  23312410.908    -5685441.71749  -4413076.14349  23312412.1894   23312417.1974
  19787823.690   -13182022.32749 -10248796.32449  19787826.7924   19787831.6254
  21587253.234     3692616.61049   2884127.27149  21587256.0034   21587260.3404
  19557003.400   -17283385.02149 -13250822.39949  19557005.3174   19557010.1524
  22488177.027     7388443.25849   5760931.64249  22488179.7714   22488185.8494
 96  7  9 17 47 59.9970000  0  6  6 16 24  4  5  9
  23135558.317   -10668601.39549  -8052363.21449  23135561.7884   23135566.5154
  23288937.215    -5808797.38349  -4509197.38149  23288938.0824   23288944.1054
  19787621.985   -13183083.58849 -10249623.28849  19787624.3294   19787629.4464
  21598721.832     3752884.74449   2931089.42749  21598724.3314   21598728.7694
  19549967.666   -17320357.54249 -13279632.16349  19549969.8904   19549974.8434
  22501160.001     7456664.11249   5814090.70649  22501161.5174   22501168.1994
 96  7  9 17 48 29.9970000  0  6  6 16 24  4  5  9
  23116532.836   -10768582.26949  -8130270.33149  23116535.9754   23116540.5034
  23265454.197    -5932189.95449  -4605347.39549  23265457.0044   23265462.1624
  19787502.934   -13183711.17249 -10250112.32749  19787505.4924   19787510.3324
  21610228.619     3813353.66249   2978208.03449  21610231.6914   21610235.8454
  19543017.434   -17356882.17949 -13308092.92149  19543019.5984   19543023.9794
  22514170.218     7525034.23849   5867366.07849  22514172.4454   22514177.5624
 96  7  9 17 48 59.9970000  0  6  6 16 24  4  5  9
  23097508.699   -10868555.10349  -8208171.17749  23097510.5164   23097515.8044
  23241970.338    -6055602.80549  -4701513.20349  23241972.2644   23241978.4544
  19787469.438   -13183883.67149 -10250246.74149  19787472.7304   19787477.6054
  21621771.229     3874009.95849   3025472.65049  21621773.9294   21621778.5274
  19536149.690   -17392973.10549 -13336215.72549  19536151.7974   19536156.1914
  22527207.002     7593540.36149   5920747.42549  22527209.2354   22527214.5064
 96  7  9 17 49 29.9970000  0  6  6 16 24  4  5  9
  23078484.013   -10968528.47549  -8286072.43649  23078486.4144   23078492.9574
  23218486.926    -6179013.22649  -4797677.12649  23218487.5544   23218494.4154
  19787523.992   -13183598.70949 -10250024.70249  19787526.9504   19787531.6004
  21633349.365     3934852.97649   3072882.76549  21633351.8514   21633356.2994
  19529362.422   -17428639.34849 -13364007.60449  19529364.7664   19529369.0224
  22540267.972     7662178.79449   5974231.86049  22540270.2444   22540276.0564
 96  7  9 17 49 59.9970000  0  6  6 16 24  4  5  9
  23059461.202   -11068498.32249  -8363970.96349  23059463.6524   23059468.3844
  23195007.823    -6302386.57749  -4893812.14349  23195011.2094   23195018.3724
  19787663.880   -13182864.01949 -10249452.21949  19787666.4554   19787671.4124
  21644964.590     3995889.35349   3120443.54749  21644967.2274   21644971.3554
  19522656.285   -17463881.21949 -13391468.80749  19522658.4874   19522662.9324
  22553351.480     7730931.63249   6027805.44449  22553354.4464   22553359.3614
 96  7  9 17 50 29.9970000  0  6  6 16 24  4  5  9
  23040437.447   -11168468.35649  -8441869.63349  23040438.8884   23040445.6944
  23171539.625    -6425724.76649  -4989919.76649  23171540.6374   23171546.9514
  19787882.920   -13181715.59549 -10248557.34649  19787885.0444   19787889.8574
  21656612.191     4057104.68349   3168143.77949  21656615.9624   21656620.2004
  19516024.323   -17498732.81549 -13418625.89649  19516026.6614   19516030.7294
  22566449.704     7799758.59549   6081436.78649  22566451.0284   22566457.0734
 96  7  9 17 50 59.9970000  0  6  6 16 24  4  5  9
  23021416.491   -11268420.98749  -8519754.73449  23021418.5324   23021424.6004
  23148078.629    -6549011.77649  -5085987.51149  23148079.8504   23148085.9614
  19788177.662   -13180163.86249 -10247348.20749  19788180.4154   19788185.4494
  21668299.989     4118517.68049   3215998.02949  21668301.9504   21668306.8284
  19509469.647   -17533176.73749 -13445465.31949  19509472.0384   19509476.3104
  22579563.555     7868678.61649   6135140.64149  22579566.5934   22579571.8634
 96  7  9 17 51 29.9970000  0  6  6 16 24  4  5  9
  23002400.998   -11368351.19849  -8597622.36449  23002402.6244   23002409.1774
  23124626.852    -6672246.40849  -5182014.44149  23124629.9684   23124635.1824
  19788547.291   -13178220.02549 -10245833.54049  19788550.1714   19788554.9504
  21680024.940     4180133.38049   3264010.23949  21680027.2654   21680031.4454
  19502996.652   -17567192.60549 -13471971.19449  19502998.9354   19503003.5764
  22592698.683     7937699.72149   6188923.26649  22592701.0974   22592706.3174
 96  7  9 17 51 59.9970000  0  6  6 16 24  4  5  9
  22983388.113   -11468261.01449  -8675474.09049  22983390.6974   22983395.9474
  23101179.995    -6795459.13349  -5278024.29749  23101182.6384   23101189.0564
  19788990.917   -13175886.84149 -10244015.47849  19788994.3374   19788998.8894
  21691785.650     4241935.61149   3312167.79649  21691788.1734   21691792.4334
  19496607.369   -17600770.38649 -13498135.70049  19496609.3524   19496613.6434
  22605851.939     8006823.13849   6242785.61749  22605854.2994   22605860.4974
 96  7  9 17 52 29.9970000  0  6  6 16 24  4  5  9
  22964380.404   -11568145.69349  -8753306.23149  22964382.5174   22964388.1974
  23077733.592    -6918670.02649  -5374032.71349  23077735.5554   23077743.0794
  19789512.679   -13173147.71849 -10241881.10249  19789515.2794   19789520.2704
  21703579.287     4303914.70249   3360463.16449  21703582.4204   21703586.7954
  19490304.149   -17633893.17549 -13523945.67049  19490306.2014   19490310.9014
  22619028.416     8076063.22649   6296738.88249  22619030.8454   22619036.4534
 96  7  9 17 52 59.9970000  0  6  6 16 24  4  5  9
  22945379.673   -11667994.16449  -8831110.17049  22945382.2464   22945388.0004
  23054292.733    -7041852.32149  -5470018.86149  23054294.8194   23054302.5754
  19790117.439   -13169970.63549 -10239405.45549  19790120.2224   19790124.8164
  21715410.749     4366088.94049   3408910.59549  21715413.5874   21715418.1124
  19484095.211   -17666521.69149 -13549370.49049  19484097.0924   19484101.7024
  22632229.228     8145434.14749   6350794.09649  22632231.6004   22632236.9214
 96  7  9 17 53 29.9970000  0  6  6 16 24  4  5  9
  22926388.377   -11767796.28049  -8908877.98649  22926391.1234   22926396.7664
  23030860.372    -7164992.78349  -5565972.40749  23030862.7924   23030869.6674
  19790807.766   -13166342.10549 -10236578.03649  19790810.4244   19790815.3184
  21727278.665     4428452.72849   3457505.72549  21727281.1534   21727285.8004
  19477979.747   -17698658.05749 -13574411.81849  19477981.9954   19477986.4864
  22645453.817     8214933.96449   6404949.73849  22645456.8814   22645462.3754
 96  7  9 17 53 59.9970000  0  6  6 16 24  4  5  9
  22907403.991   -11867554.34849  -8986611.47849  22907407.0834   22907412.6374
  23007437.841    -7288082.58149  -5661886.48149  23007439.0884   23007446.1994
  19791582.966   -13162265.98749 -10233401.84849  19791586.1824   19791590.7724
  21739182.298     4491007.62749   3506249.77749  21739184.9234   21739188.8604
  19471956.208   -17730310.50949 -13599076.06949  19471958.7774   19471963.3054
  22658705.617     8284569.39449   6459211.05549  22658707.5484   22658713.7324
 96  7  9 17 54 29.9970000  0  6  6 16 24  4  5  9
  22888432.754   -11967253.85849  -9064299.35249  22888434.2494   22888440.0294
  22984029.971    -7411086.74749  -5757733.81949  22984032.2124   22984038.3494
  19792443.605   -13157746.03749 -10229879.81549  19792446.4524   19792450.8734
  21751126.634     4553773.19449   3555157.99049  21751128.4294   21751133.0934
  19466025.434   -17761478.37749 -13623362.71949  19466027.7044   19466031.9874
  22671981.332     8354338.02249   6513576.16249  22671984.6754   22671990.3964
 96  7  9 17 54 59.9970000  0  6  6 16 24  4  5  9
  22869466.585   -12066922.24349  -9141962.96049  22869468.6934   22869474.3564
  22960636.375    -7534017.72649  -5853524.13349  22960638.7834   22960646.1044
  19793380.843   -13152819.51249 -10226040.96949  19793383.9084   19793388.4524
  21763107.476     4616735.48849   3604219.49649  21763110.6314   21763114.3854
  19460179.449   -17792198.84049 -13647300.74749  19460181.5854   19460186.1914
  22685278.612     8424211.21249   6568022.73749  22685281.0024   22685287.5464
 96  7  9 17 55 29.9970000  0  6  6 16 24  4  5  9
  22850509.427   -12166544.96049  -9219591.00449  22850511.4144   22850516.8744
  22937258.686    -7656872.77549  -5949255.26549  22937260.5374   22937267.9654
  19794398.758   -13147471.06749 -10221873.35949  19794401.6084   19794406.0424
  21775130.755     4679914.37149   3653449.76749  21775132.8314   21775137.2424
  19454421.871   -17822456.89349 -13670878.45249  19454423.9354   19454428.4284
  22698601.093     8494219.76849   6622574.80749  22698603.0264   22698608.7374
 96  7  9 17 55 59.9970000  0  6  6 16 24  4  5  9
  22831560.126   -12266120.57749  -9297182.34949  22831563.1804   22831567.1564
  22913891.940    -7779668.50849  -6044940.18549  22913892.8044   22913900.8574
  19795495.745   -13141708.15349 -10217382.77749  19795498.4544   19795502.7974
  21787194.759     4743311.72549   3702850.27449  21787196.9054   21787201.3594
  19448752.613   -17852248.60749 -13694092.77849  19448754.6784   19448759.2604
  22711946.327     8564346.91949   6677219.27049  22711947.9044   22711953.5994
 96  7  9 17 56 29.9970000  0  6  6 16 24  4  5  9
  22812620.624   -12365649.76949  -9374737.50749  22812622.3324   22812628.1244
  22890531.301    -7902420.80049  -6140591.25649  22890534.0664   22890541.4254
  19796669.621   -13135537.74649 -10212574.67449  19796672.8334   19796677.1574
  21799298.234     4806917.62849   3752413.29149  21799301.0544   21799305.3584
  19443169.863   -17881586.85149 -13716953.74849  19443171.7994   19443176.4634
  22725306.924     8634556.34449   6731927.84949  22725308.5214   22725314.5054
 96  7  9 17 56 59.9970000  0  6  6 16 24  4  5  9
  22793689.922   -12465128.43049  -9452253.29249  22793693.2844   22793698.0974
  22867182.426    -8025122.73049  -6236203.09049  22867184.3264   22867192.8174
  19797925.066   -13128941.15749 -10207434.47949  19797928.0284   19797932.2084
  21811443.436     4870742.29949   3802146.77549  21811446.2604   21811450.6874
  19437677.313   -17910449.91049 -13739444.44849  19437679.5294   19437683.7934
  22738684.407     8704857.18249   6786707.65249  22738686.0254   22738691.2874
 96  7  9 17 57 29.9970000  0  6  6 16 24  4  5  9
  22774769.903   -12564555.22749  -9529728.67149  22774771.8614   22774777.5624
  22843843.828    -8147768.67349  -6331771.29849  22843846.0254   22843852.8784
  19799260.251   -13121925.05549 -10201967.39849  19799263.0734   19799267.6664
  21823629.832     4934779.09249   3852045.54649  21823632.1864   21823636.2294
  19432276.730   -17938828.90149 -13761557.95449  19432278.9724   19432283.4254
  22752077.342     8775238.22349   6841549.94249  22752080.1144   22752084.9684
 96  7  9 17 57 59.9970000  0  6  6 16 24  4  5  9
  22755858.091   -12663934.72449  -9607167.19249  22755860.6374   22755866.4444
  22820517.154    -8270351.16849  -6427290.05849  22820519.5264   22820527.1854
  19800671.107   -13114508.41949 -10196188.20249  19800674.3984   19800678.6474
  21835851.510     4999008.62449   3902094.50349  21835854.7314   21835858.8054
  19426966.192   -17966735.32249 -13783303.22049  19426968.4694   19426973.0634
  22765482.335     8845679.86749   6896439.47449  22765484.3744   22765490.0274
 96  7  9 17 58 29.9970000  0  6  6 16 24  4  5  9
  22736955.326   -12763270.29149  -9684571.47549  22736957.3854   22736963.4004
  22797208.949    -8392840.05049  -6522735.88449  22797210.1744   22797217.3394
  19802161.762   -13106676.80849 -10190085.65549  19802164.5614   19802169.0814
  21848112.199     5063437.88749   3952299.10049  21848114.8454   21848119.3024
  19421750.314   -17994145.34449 -13804661.68449  19421752.7084   19421757.2914
  22778903.359     8916207.78549   6951396.21649  22778905.0574   22778910.7104
 96  7  9 17 58 59.9970000  0  6  6 16 24  4  5  9
  22718054.864   -12862592.21849  -9761965.12749  22718057.5494   22718062.6624
  22773915.421    -8515244.66749  -6618116.04149  22773917.3714   22773924.4114
  19803727.926   -13098447.08449 -10183672.88349  19803730.7794   19803734.9834
  21860405.140     5128037.23549   4002636.22349  21860408.0744   21860412.6954
  19416628.519   -18021061.08449 -13825634.98749  19416630.7234   19416635.0224
  22792339.525     8986819.88449   7006418.56449  22792342.7114   22792348.1694
 96  7  9 17 59 29.9970000  0  6  6 16 24  4  5  9
  22699161.742   -12961880.48649  -9839332.55749  22699162.5614   22699169.2864
  22750644.874    -8637541.58749  -6713412.28649  22750645.5984   22750652.3164
  19805372.543   -13089802.44449 -10176936.80449  19805375.9654   19805380.3094
  21872729.332     5192802.54149   4053102.66949  21872732.2304   21872737.4054
  19411602.117   -18047476.66949 -13846218.56749  19411604.1314   19411608.1974
  22805795.528     9057527.40149   7061515.25749  22805797.6524   22805803.0314
 96  7  9 17 59 59.9970000  0  6  6 16 24  4  5  9
  22680273.557   -13061137.34149  -9916675.51149  22680275.9544   22680281.0404
  22727391.253    -8759732.30549  -6808625.78249  22727393.2674   22727399.6864
  19807098.532   -13080735.21249 -10169871.43249  19807101.3404   19807105.8634
  21885083.355     5257723.57849   4103690.46349  21885086.2364   21885090.7084
  19406669.641   -18073398.22549 -13866417.19149  19406671.3054   19406675.5624
  22819268.210     9128324.40949   7116681.68949  22819269.7454   22819275.9754
 96  7  9 18  0 29.9970000  0  6  6 16 24  4  5  9
  22661394.023   -13160349.31749  -9993983.48849  22661396.3804   22661401.8514
  22704162.816    -8881794.88849  -6903739.42549  22704164.5994   22704171.7484
  19808906.834   -13071233.01849 -10162467.12949  19808909.4584   19808914.0044
  21897471.429     5322819.87449   4154414.81649  21897474.0714   21897477.9584
  19401833.727   -18098807.68649 -13886216.77649  19401835.8354   19401840.4724
  22832758.039     9199214.75149   7171920.84049  22832759.7384   22832766.5054
 96  7  9 18  0 59.9970000  0  6  6 16 24  4  5  9
  22642521.606   -13259524.79549 -10071263.03849  22642523.3184   22642528.9104
  22680955.585    -9003743.37049  -6998764.14749  22680958.3204   22680965.8334
  19810791.251   -13061329.45449 -10154750.06749  19810794.1044   19810798.6964
  21909886.050     5388063.18849   4205253.72549  21909889.3994   21909893.7194
  19397088.788   -18123747.25249 -13905650.21249  19397090.5214   19397094.5514
  22846259.853     9270169.05749   7227209.83949  22846262.3354   22846268.2864
 96  7  9 18  1 29.9970000  0  6  6 16 24  4  5  9
  22623659.187   -13358644.76949 -10148499.33349  22623661.7144   22623667.1274
  22657772.505    -9125578.26949  -7093700.35749  22657774.1114   22657781.6954
  19812751.074   -13051029.89849 -10146724.44249  19812753.9974   19812758.5174
  21922332.224     5453464.01049   4256215.38449  21922334.5104   21922339.3904
  19392432.124   -18148216.29149 -13924717.00149  19392434.1794   19392438.1524
  22859773.822     9341186.99349   7282548.41249  22859776.8424   22859783.0994
 96  7  9 18  1 59.9970000  0  6  6 16 24  4  5  9
  22604812.240   -13457685.72649 -10225674.05849  22604814.6954   22604820.1774
  22634611.257    -9247290.87749  -7188541.28149  22634613.0494   22634619.8314
  19814787.239   -13040331.55349 -10138388.07349  19814789.6384   19814794.0474
  21934815.381     5519062.88949   4307331.36549  21934817.6434   21934822.2994
  19387871.322   -18172183.66949 -13943392.89449  19387873.2324   19387877.4694
  22873303.604     9412282.72349   7337947.60549  22873306.1664   22873312.0534
 96  7  9 18  2 29.9970000  0  6  6 16 24  4  5  9
  22585978.990   -13556653.22749 -10302791.52749  22585981.8184   22585987.0834
  22611470.225    -9368897.15449  -7283299.34849  22611472.3794   22611478.8184
  19816898.013   -13029238.60249 -10129744.22049  19816900.9694   19816905.3294
  21947335.551     5584859.33249   4358601.28949  21947338.4414   21947343.1704
  19383404.392   -18195655.63149 -13961682.73949  19383406.7214   19383411.0604
  22886846.617     9483453.23749   7393405.07549  22886848.3434   22886854.7864
 96  7  9 18  2 59.9970000  0  6  6 16 24  4  5  9
  22567160.304   -13655547.01649 -10379851.56649  22567163.3844   22567168.3824
  22588348.339    -9490404.50149  -7377980.34549  22588350.7644   22588356.4784
  19819088.560   -13017727.29749 -10120774.37449  19819091.2144   19819096.2044
  21959894.136     5650853.74649   4410025.47849  21959896.9504   21959901.4104
  19379034.260   -18218621.38649 -13979578.13949  19379036.6274   19379040.7634
  22900405.270     9554703.29749   7448924.52749  22900407.4594   22900414.5124
 96  7  9 18  3 29.9970000  0  6  6 16 24  4  5  9
  22548354.855   -13754370.10349 -10456856.52249  22548357.3664   22548362.2404
  22565242.922    -9611827.96049  -7472595.96549  22565243.7814   22565250.4244
  19821359.528   -13005793.54849 -10111475.35649  19821362.0894   19821367.1824
  21972491.008     5717051.30149   4461607.96749  21972493.6484   21972498.3884
  19374762.761   -18241069.33649 -13997070.05349  19374764.5854   19374769.0584
  22913977.855     9626028.65849   7504502.66049  22913980.9604   22913986.6864
 96  7  9 18  3 59.9970000  0  6  6 16 24  4  5  9
  22529561.508   -13853131.44149 -10533813.35649  22529563.8434   22529569.4604
  22542156.146    -9733144.27749  -7567128.09449  22542158.4854   22542164.5624
  19823715.166   -12993413.19249 -10101828.32849  19823718.2134   19823723.0094
  21985125.492     5783446.71549   4513344.63349  21985128.3924   21985132.7784
  19370589.360   -18262999.28649 -14014158.33049  19370591.6234   19370596.0614
  22927566.102     9697430.15149   7560140.11549  22927567.7224   22927574.0244
 96  7  9 18  4 29.9970000  0  6  6 16 24  4  5  9
  22510775.430   -13951851.58049 -10610738.09249  22510778.4444   22510783.8814
  22519093.544    -9854339.70749  -7661566.02949  22519095.3684   22519101.8284
  19826157.526   -12980579.31249 -10091827.91149  19826160.1484   19826165.1464
  21997790.987     5850005.07549   4565208.26449  21997793.9024   21997798.4964
  19366511.541   -18284429.69649 -14030857.35549  19366513.3604   19366517.8604
  22941168.308     9768912.17349   7615840.30649  22941169.7264   22941177.6844
 96  7  9 18  4 59.9970000  0  6  6 16 24  4  5  9
  22491997.627   -14050530.18549 -10687630.46449  22492000.3674   22492005.0284
  22496056.371    -9975399.88649  -7755898.57749  22496057.9514   22496064.3714
  19828681.132   -12967315.52549 -10081492.49749  19828684.1744   19828688.8744
  22010486.636     5916717.78049   4617192.16049  22010489.3494   22010493.6644
  19362529.586   -18305354.03149 -14047162.03449  19362531.5144   19362535.9304
  22954785.967     9840474.41749   7671603.01449  22954788.6194   22954795.1984
 96  7  9 18  5 29.9970000  0  6  6 16 24  4  5  9
  22473229.811   -14149154.90149 -10764480.83549  22473232.4364   22473237.1384
  22473047.520   -10096311.64649  -7850115.48449  22473050.1774   22473056.3724
  19831283.717   -12953642.92849 -10070838.53149  19831286.2914   19831290.9994
  22023212.324     5983590.95449   4669301.09549  22023214.6374   22023219.2874
  19358644.463   -18325769.80749 -14063070.43749  19358646.7214   19358650.7934
  22968420.182     9912123.36349   7727433.28749  22968423.0564   22968429.3744
 96  7  9 18  5 59.9970000  0  6  6 16 24  4  5  9
  22454472.359   -14247729.08049 -10841291.84449  22454474.0474   22454478.8474
  22450072.127   -10217054.79949  -7944200.99249  22450072.1904   22450079.2344
  19833962.506   -12939564.35149 -10059868.21249  19833964.8974   19833969.9884
  22035968.018     6050622.48749   4721533.43749  22035970.3434   22035974.6234
  19354856.381   -18345677.84649 -14078583.20349  19354858.2934   19354862.5314
  22982070.180     9983850.21449   7783324.25949  22982072.2074   22982078.4284
 96  7  9 18  6 29.9970000  0  6  6 16 24  4  5  9
  22435722.787   -14346257.80549 -10918067.42549  22435724.7254   22435729.9514
  22427122.436   -10337649.07749  -8038170.51049  22427124.8514   22427130.2184
  19836710.364   -12925125.07049 -10048616.83149  19836712.8664   19836717.8594
  22048752.043     6117807.44649   4773885.32949  22048755.3594   22048759.4264
  19351163.115   -18365086.71949 -14093707.00949  19351164.7344   19351169.3374
  22995729.594    10055633.19849   7839258.95849  22995732.0744   22995739.4494
 96  7  9 18  6 59.9970000  0  6  6 16 24  4  5  9
  22416986.111   -14444718.27949 -10994789.83549  22416988.2064   22416994.0794
  22404204.481   -10458084.36049  -8132016.12849  22404206.0604   22404212.7394
  19839524.543   -12910332.85549 -10037090.43549  19839527.6134   19839532.5294
  22061571.088     6185167.35149   4826373.52949  22061573.2614   22061577.7214
  19347568.574   -18383976.48849 -14108426.32149  19347570.2284   19347574.7794
  23009397.133    10127456.38649   7895224.99949  23009399.5444   23009405.8234
 96  7  9 18  7 29.9970000  0  6  6 16 24  4  5  9
  22398262.358   -14543114.00949 -11071461.79349  22398264.3094   22398269.1514
  22381318.149   -10578349.44549  -8225729.12849  22381320.3754   22381326.2004
  19842410.853   -12895167.80549 -10025273.51649  19842413.5524   19842418.5424
  22074421.909     6252696.71449   4878993.78049  22074423.6234   22074428.0784
  19344070.855   -18402356.38549 -14122748.32649  19344072.8134   19344076.9524
  23023070.616    10199309.44249   7951214.29649  23023072.6074   23023079.3674
 96  7  9 18  7 59.9970000  0  6  6 16 24  4  5  9
  22379551.046   -14641440.97949 -11148080.16349  22379553.5974   22379557.5494
  22358467.756   -10698427.86049  -8319296.66749  22358470.2514   22358476.9974
  19845372.812   -12879604.12049 -10013145.97349  19845375.2854   19845380.0014
  22087303.430     6320388.49149   4931740.59449  22087305.6404   22087309.2424
  19340670.523   -18420224.58649 -14136671.60749  19340672.6924   19340676.8694
  23036750.210    10271195.63449   8007229.41649  23036751.7964   23036758.8784
 96  7  9 18  8 29.9970000  0  6  6 16 24  4  5  9
  22360855.876   -14739684.91249 -11224633.82949  22360857.8054   22360863.5424
  22335653.601   -10818321.90349  -8412720.54249  22335654.9274   22335660.8924
  19848412.739   -12863628.08049 -10000697.11849  19848415.1804   19848419.7564
  22100216.201     6388246.12149   4984616.63549  22100218.5924   22100222.6454
  19337370.648   -18437566.43849 -14150184.74049  19337372.4904   19337377.0384
  23050439.849    10343129.78349   8063281.89449  23050440.8484   23050447.1594
 96  7  9 18  8 59.9970000  0  6  6 16 24  4  5  9
  22342175.216   -14837850.23549 -11301126.25049  22342177.2194   22342183.3154
  22312872.524   -10938037.62149  -8506005.45949  22312874.4194   22312880.3584
  19851533.986   -12847226.98149  -9987917.04449  19851536.3654   19851541.3754
  22113158.889     6456261.82049   5037615.85449  22113161.3524   22113165.8774
  19334169.858   -18454385.47649 -14163290.48949  19334172.0824   19334176.6594
  23064138.033    10415117.70749   8119376.27749  23064139.6824   23064145.0934
 96  7  9 18  9 29.9960000  0  6  6 16 24  4  5  9
  22323510.369   -14935935.74249 -11377556.46549  22323512.1934   22323517.8284
  22290122.371   -11057581.36249  -8599156.38449  22290126.0394   22290132.0484
  19854738.781   -12830385.36649  -9974793.71249  19854741.2754   19854746.1824
  22126130.171     6524423.36849   5090728.71249  22126132.0564   22126136.5424
  19331068.079   -18470687.23749 -14175993.16449  19331069.8844   19331074.2544
  23077849.801    10487174.35449   8175524.21749  23077851.7994   23077857.4364
 96  7  9 18  9 59.9960000  0  6  6 16 24  4  5  9
  22304859.736   -15033945.75549 -11453927.85849  22304862.1214   22304866.9904
  22267403.757   -11176971.81749  -8692187.84449  22267406.0854   22267413.4884
  19858023.745   -12813123.59449  -9961342.98849  19858026.0324   19858030.6664
  22139127.419     6592732.00849   5143956.20049  22139130.5014   22139135.4074
  19328064.742   -18486469.15749 -14188290.76849  19328066.7384   19328071.0114
  23091574.999    10559302.09449   8231727.56549  23091577.5544   23091583.2924
 96  7  9 18 10 29.9960000  0  6  6 16 24  4  5  9
  22286227.174   -15131860.82249 -11530225.26749  22286228.9664   22286234.3354
  22244716.424   -11296195.47849  -8785089.34549  22244718.8564   22244726.0574
  19861385.174   -12795455.89649  -9947575.95549  19861388.0254   19861392.9074
  22152157.406     6661200.31149   5197308.09149  22152159.1914   22152164.1254
  19325164.041   -18501710.02849 -14200166.77549  19325166.5454   19325170.3584
  23105316.769    10631513.53149   8287996.13149  23105319.3934   23105324.0224
 96  7  9 18 10 59.9960000  0  6  6 16 24  4  5  9
  22267611.856   -15229681.84949 -11606449.39749  22267614.5184   22267619.6764
  22222064.182   -11415233.44849  -8877846.16049  22222065.5034   22222073.7844
  19864823.482   -12777388.43449  -9933497.41949  19864826.2154   19864830.7904
  22165215.488     6729821.48849   5250779.10449  22165217.9354   22165222.0714
  19322365.890   -18516417.71449 -14211627.31549  19322367.7074   19322371.9614
  23119073.074    10703802.43549   8344325.05949  23119074.9544   23119079.6584
 96  7  9 18 11 29.9960000  0  6  6 16 24  4  5  9
  22249014.119   -15327412.28349 -11682602.94749  22249016.4394   22249021.4444
  22199449.368   -11534069.60049  -8970445.70749  22199452.4074   22199459.5484
  19868336.443   -12758928.82849  -9919113.31549  19868339.1794   19868343.4934
  22178301.857     6798589.09349   5304364.23049  22178303.9274   22178308.7904
  19319665.567   -18530607.26449 -14222684.11549  19319667.6104   19319671.6974
  23132839.018    10776146.36149   8400696.85449  23132841.4954   23132847.7834
 96  7  9 18 11 59.9960000  0  6  6 16 24  4  5  9
  22230435.720   -15425047.23749 -11758682.09149  22230437.4704   22230442.0704
  22176881.455   -11652673.54449  -9062864.32149  22176882.3814   22176890.4784
  19871924.015   -12740076.43149  -9904423.14049  19871926.4514   19871931.2364
  22191420.952     6867536.79649   5358089.67249  22191424.3944   22191428.1324
  19317067.365   -18544260.15449 -14233322.73749  19317069.7554   19317073.6914
  23146615.972    10848542.69149   8457109.47549  23146618.5044   23146624.2134
 96  7  9 18 12 29.9960000  0  6  6 16 24  4  5  9
  22211872.525   -15522593.17249 -11834691.88649  22211875.2984   22211879.7434
  22154354.475   -11771047.48249  -9155103.70049  22154356.6314   22154364.7324
  19875586.677   -12720828.17949  -9889424.50849  19875589.1604   19875593.9554
  22204577.691     6936674.72049   5411963.35749  22204580.6184   22204585.4964
  19314570.994   -18557379.25349 -14243545.42049  19314573.0594   19314577.3234
  23160399.282    10920976.19249   8513551.07049  23160401.0934   23160408.1874
 96  7  9 18 12 59.9960000  0  6  6 16 24  4  5  9
  22193327.416   -15620050.26549 -11910632.45149  22193329.1924   22193334.0454
  22131874.806   -11889178.81749  -9247154.05249  22131877.2314   22131884.9464
  19879330.232   -12701155.07049  -9874094.81849  19879332.9964   19879337.6034
  22217774.840     7006020.70949   5465999.16649  22217777.1784   22217781.4784
  19312176.943   -18569959.30749 -14253348.07049  19312179.1594   19312183.6024
  23174190.380    10993443.55549   8570019.05549  23174191.6544   23174197.9414
 96  7  9 18 13 29.9960000  0  6  6 16 24  4  5  9
  22174795.035   -15717437.70449 -11986518.74049  22174797.3994   22174802.2524
  22109435.442   -12007098.26449  -9339039.29049  22109438.3494   22109445.6714
  19883151.192   -12681076.21949  -9858448.96549  19883153.9024   19883158.6314
  22231006.446     7075557.61049   5520183.73549  22231009.0834   22231013.7264
  19309886.525   -18581997.52049 -14262728.50849  19309888.3664   19309892.7044
  23187983.209    11065931.02549   8626502.70549  23187986.5694   23187991.0594
 96  7  9 18 13 59.9960000  0  6  6 16 24  4  5  9
  22156275.577   -15814761.40349 -12062355.37149  22156277.4614   22156282.4364
  22087031.542   -12124836.18849  -9430783.08049  22087032.8844   22087041.0014
  19887046.447   -12660608.16049  -9842499.83449  19887048.8784   19887053.4604
  22244271.238     7145257.95149   5574495.66249  22244272.7854   22244277.6864
  19307701.603   -18593479.72549 -14271675.69149  19307703.6344   19307707.6144
  23201783.495    11138450.01149   8683010.90649  23201785.1654   23201792.5254
 96  7  9 18 14 29.9960000  0  6  6 16 24  4  5  9
  22137769.776   -15912009.42949 -12138133.02749  22137771.9794   22137777.3944
  22064659.956   -12242399.68949  -9522390.96349  22064661.6084   22064668.6704
  19891014.948   -12639753.75049  -9826249.65649  19891017.2864   19891021.9844
  22257558.484     7215088.80349   5628909.27949  22257561.0634   22257566.6514
  19305620.342   -18604414.87549 -14280196.60549  19305622.3104   19305626.7124
  23215590.223    11211006.01049   8739547.94749  23215593.5984   23215599.0384
 96  7  9 18 14 59.9960000  0  6  6 16 24  4  5  9
  22119275.840   -16009197.42049 -12213863.89749  22119277.7594   22119283.1404
  22042321.365   -12359788.22749  -9613862.51149  22042323.5444   22042330.6944
  19895053.531   -12618531.20649  -9809712.61849  19895055.7994   19895060.5744
  22270865.149     7285011.20249   5683394.24549  22270867.0274   22270871.8724
  19303640.755   -18614818.48149 -14288303.32549  19303642.6874   19303647.1454
  23229404.188    11283591.44349   8796107.92249  23229406.0154   23229412.6264
 96  7  9 18 15 29.9960000  0  6  6 16 24  4  5  9
  22100794.380   -16106314.89949 -12289539.82749  22100796.3814   22100802.2594
  22020018.954   -12476986.03949  -9705185.43249  22020021.1424   22020028.1484
  19899160.198   -12596949.35249  -9792895.59449  19899162.4894   19899167.2794
  22284186.130     7355012.02249   5737940.31049  22284187.6624   22284192.6294
  19301762.349   -18624691.48849 -14295996.58549  19301764.1884   19301768.1984
  23243222.453    11356214.11849   8852696.91049  23243225.2974   23243231.4324
 96  7  9 18 15 59.9960000  0  6  6 16 24  4  5  9
  22082329.315   -16203348.25549 -12365150.19049  22082331.8054   22082336.5794
  21997759.783   -12593966.75449  -9796339.19349  21997760.9144   21997768.0314
  19903337.281   -12574999.78749  -9775792.04449  19903339.4694   19903344.2074
  22297523.377     7425103.93949   5792557.35049  22297526.1854   22297530.5624
  19299982.095   -18634046.06249 -14303285.86649  19299983.7604   19299988.0804
  23257046.144    11428864.72049   8909307.67349  23257051.0564   23257057.0624
 96  7  9 18 16 29.9960000  0  6  6 16 24  4  5  9
  22063881.736   -16300293.21149 -12440691.67449  22063883.7964   22063888.4174
  21975546.565   -12710689.55849  -9887291.98949  21975549.6054   21975556.5874
  19907587.199   -12552665.38949  -9758388.62549  19907589.7554   19907594.2554
  22310887.221     7495327.89449   5847277.28149  22310889.1054   22310894.2334
  19298301.786   -18642876.88849 -14310167.03849  19298303.5034   19298307.4474
  23270876.984    11501531.27049   8965930.84149  23270878.5284   23270884.3334
 96  7  9 18 16 59.9960000  0  6  6 16 24  4  5  9
  22045448.876   -16397159.31249 -12516171.71449  22045450.6574   22045455.6424
  21953385.821   -12827150.58849  -9978040.80149  21953387.0854   21953394.2704
  19911909.829   -12529949.85049  -9740688.21149  19911912.3834   19911916.8984
  22324278.673     7565694.21649   5902108.14749  22324280.1744   22324284.4804
  19296722.014   -18651177.93849 -14316635.40149  19296723.7114   19296727.9254
  23284704.590    11574199.74649   9022555.52949  23284707.7134   23284713.3714
 96  7  9 18 17 29.9960000  0  6  6 16 24  4  5  9
  22027034.068   -16493929.82849 -12591577.27949  22027035.5644   22027041.1454
  21931274.410   -12943347.39549 -10068583.72549  21931275.6034   21931281.9544
  19916305.886   -12506848.53349  -9722687.18949  19916308.3174   19916312.8034
  22337698.609     7636223.49149   5957065.98049  22337701.3504   22337705.3824
  19295244.615   -18658941.83349 -14322685.20549  19295246.4294   19295250.6304
  23298534.229    11646870.85149   9079182.26549  23298535.9334   23298542.0294
 96  7  9 18 17 59.9960000  0  6  6 16 24  4  5  9
  22008636.598   -16590608.23949 -12666911.07249  22008638.6984   22008643.8184
  21909211.869   -13059284.92049 -10158924.61549  21909213.5234   21909220.4384
  19920774.175   -12483366.90549  -9704389.82749  19920776.4534   19920781.1434
  22351151.832     7706922.11049   6012155.79149  22351154.4684   22351158.8824
  19293871.153   -18666160.77449 -14328310.36049  19293872.7574   19293876.7084
  23312361.991    11719537.09749   9135805.21649  23312364.2234   23312370.0314
 96  7  9 18 18 29.9960000  0  6  6 16 24  4  5  9
  21990251.672   -16687222.60149 -12742194.95849  21990253.0544   21990259.0264
  21887194.547   -13174987.30349 -10249082.26549  21887196.3284   21887202.5894
  19925310.175   -12459528.11149  -9685814.14849  19925312.9574   19925317.5984
  22364631.607     7777755.51549   6067350.61549  22364633.1894   22364638.5914
  19292597.466   -18672851.49249 -14333523.91049  19292599.2094   19292603.7194
  23326187.059    11792192.69849   9192419.86249  23326189.7164   23326196.5234
 96  7  9 18 18 59.9960000  0  6  6 16 24  4  5  9
  21971882.345   -16783750.50549 -12817411.47449  21971884.2674   21971890.1214
  21865223.161   -13290451.39549 -10339054.24249  21865224.3984   21865230.7984
  19929916.137   -12435326.00649  -9666955.37249  19929918.7044   19929923.4264
  22378133.074     7848706.64049   6122637.17349  22378135.4954   22378140.1714
  19291424.429   -18679015.33549 -14338326.91249  19291426.6054   19291430.9794
  23340014.921    11864853.88649   9249038.87549  23340016.0074   23340023.8194
 96  7  9 18 19 29.9960000  0  6  6 16 24  4  5  9
  21953529.875   -16880195.58149 -12892563.44049  21953532.1324   21953536.9924
  21843296.159   -13405675.92849 -10428839.54749  21843297.6784   21843303.1864
  19934588.390   -12410772.40449  -9647822.69749  19934590.8864   19934595.3134
  22391654.379     7919763.17549   6178005.86649  22391656.7144   22391661.8064
  19290351.941   -18684656.22349 -14342722.41949  19290353.1604   19290357.5684
  23353843.976    11937525.28949   9305665.84949  23353846.0374   23353852.2674
 96  7  9 18 19 59.9960000  0  6  6 16 24  4  5  9
  21935188.315   -16976580.01549 -12967668.15849  21935189.9604   21935195.1874
  21821413.992   -13520667.14049 -10518443.05249  21821415.9004   21821421.6394
  19939324.671   -12385882.65749  -9628428.09349  19939327.2504   19939331.8994
  22405190.611     7990899.90449   6233437.05349  22405193.9854   22405198.5484
  19289375.340   -18689783.70849 -14346717.87049  19289377.2154   19289381.7224
  23367671.708    12010190.47949   9362287.97749  23367673.6094   23367681.3454
 96  7  9 18 20 29.9960000  0  6  6 16 24  4  5  9
  21916863.868   -17072875.60949 -13042703.64449  21916865.9904   21916871.2614
  21799580.107   -13635402.80849 -10607847.41949  21799581.4014   21799588.2664
  19944129.153   -12360635.94049  -9608755.33049  19944131.6384   19944136.3914
  22418747.509     8062139.53449   6288948.41749  22418749.7744   22418754.6884
  19288500.033   -18694383.50249 -14350302.13449  19288502.0224   19288506.2294
  23381500.487    12082860.87349   9418914.16649  23381502.4224   23381509.8714
 96  7  9 18 20 59.9960000  0  6  6 16 24  4  5  9
  21898559.493   -17169065.53049 -13117656.80349  21898560.8604   21898566.5354
  21777796.876   -13749871.42449 -10697043.70749  21777798.8864   21777805.4154
  19949003.062   -12335024.70249  -9588798.53049  19949005.4244   19949010.1154
  22432327.849     8133502.81649   6344556.12449  22432330.0004   22432334.6824
  19287728.565   -18698437.97449 -14353461.48149  19287730.8094   19287734.7564
  23395330.388    12155534.65749   9475542.99549  23395332.1274   23395340.0174
 96  7  9 18 21 29.9960000  0  6  6 16 24  4  5  9
  21880273.484   -17265156.27749 -13192532.68149  21880275.9704   21880281.4504
  21756065.743   -13864071.91449 -10786031.06549  21756067.9814   21756072.9134
  19953946.218   -12309046.50549  -9568555.78449  19953948.8424   19953953.6814
  22445933.543     8205000.32149   6400268.43849  22445935.6574   22445940.2854
  19287062.198   -18701940.43049 -14356190.68549  19287064.1334   19287067.9974
  23409158.402    12228209.33249   9532172.50549  23409161.5594   23409169.1064
 96  7  9 18 21 59.9960000  0  6  6 16 24  4  5  9
  21862008.241   -17361144.07849 -13267328.33049  21862010.5124   21862015.4194
  21734385.185   -13978004.32949 -10874809.52749  21734386.4444   21734392.3324
  19958962.780   -12282684.00949  -9548013.58349  19958965.4074   19958970.3164
  22459566.987     8276647.44849   6456097.33049  22459569.6774   22459573.9474
  19286499.098   -18704901.56149 -14358498.07749  19286500.7494   19286504.9084
  23422988.940    12300879.86249   9588798.80349  23422989.6964   23422998.0444
 96  7  9 18 22 29.9960000  0  6  6 16 24  4  5  9
  21843761.223   -17457031.55749 -13342045.80449  21843763.5104   21843767.8494
  21712754.737   -14091674.56149 -10963383.70449  21712756.0234   21712761.3064
  19964053.965   -12255932.25249  -9527168.06449  19964056.3094   19964061.0064
  22473232.099     8348454.04349   6512050.48149  22473234.3834   22473238.2834
  19286039.419   -18707317.31849 -14360380.49249  19286040.9184   19286045.1304
  23436817.049    12373554.11049   9645427.98449  23436819.8604   23436827.8654
 96  7  9 18 22 59.9960000  0  6  6 16 24  4  5  9
  21825531.282   -17552828.37349 -13416692.64449  21825533.9604   21825538.3404
  21691171.397   -14205089.54949 -11051758.98649  21691174.0564   21691178.7934
  19969216.184   -12228804.19749  -9506029.32649  19969218.4554   19969223.2614
  22486921.033     8420396.14049   6568109.22449  22486924.0644   22486929.2394
  19285683.400   -18709187.82849 -14361838.04249  19285684.9624   19285689.4724
  23450646.839    12446224.85049   9702054.44649  23450648.9674   23450656.2954
 96  7  9 18 23 29.9960000  0  6  6 16 24  4  5  9
  21807317.275   -17648542.34649 -13491274.92449  21807319.9574   21807324.8984
  21669637.989   -14318254.33949 -11139939.30949  21669639.1494   21669644.9314
  19974446.557   -12201316.96749  -9484610.70649  19974449.0614   19974453.8514
  22500632.998     8492451.04249   6624255.88149  22500635.6454   22500639.9854
  19285428.512   -18710525.84649 -14362880.66949  19285430.2414   19285434.4444
  23464473.692    12518877.67449   9758666.93649  23464474.2214   23464482.4544
 96  7  9 18 23 59.9960000  0  6  6 16 24  4  5  9
  21789120.053   -17744172.96949 -13565792.26549  21789122.1084   21789127.2514
  21648152.189   -14431159.90749 -11227917.63649  21648153.2654   21648159.0674
  19979743.488   -12173479.26549  -9462918.99549  19979746.5454   19979751.1914
  22514364.501     8564610.29149   6680483.82049  22514366.9894   22514371.7394
  19285276.836   -18711323.19649 -14363501.99149  19285278.6854   19285282.9854
  23478293.743    12591509.53049   9815263.08849  23478295.8244   23478302.5124
 96  7  9 18 24 29.9960000  0  6  6 16 24  4  5  9
  21770938.848   -17839714.30149 -13640240.03849  21770941.1334   21770946.2234
  21626717.616   -14543795.48749 -11315685.58649  21626719.0884   21626725.7644
  19985104.555   -12145310.39449  -9440969.22749  19985106.7314   19985111.4874
  22528111.321     8636848.33049   6736773.16849  22528112.3094   22528117.9704
  19285229.730   -18711570.58449 -14363694.77449  19285231.7164   19285235.7514
  23492109.104    12664104.20949   9871830.26149  23492109.6474   23492117.6244
 96  7  9 18 24 59.9960000  0  6  6 16 24  4  5  9
  21752775.333   -17935165.40249 -13714617.47849  21752777.2374   21752782.5204
  21605338.032   -14656146.24549 -11403231.59349  21605340.0294   21605346.1974
  19990526.127   -12116818.36449  -9418767.65349  19990528.6624   19990533.3254
  22541869.376     8709146.99349   6793109.75949  22541871.5034   22541875.9134
  19285283.255   -18711288.48949 -14363474.96449  19285285.4724   19285289.5074
  23505909.974    12736642.59949   9928353.57849  23505913.0574   23505921.1404
 96  7  9 18 25 29.9960000  0  6  6 16 24  4  5  9
  21734631.849   -18030510.99749 -13788912.72549  21734633.4874   21734638.8274
  21584018.625   -14768183.16349 -11490533.05449  21584019.9664   21584027.0014
  19996015.477   -12087972.54249  -9396290.38749  19996017.8174   19996022.2154
  22555645.859     8781540.26449   6849520.06549  22555647.9824   22555652.7404
  19285439.472   -18710467.94549 -14362835.58149  19285441.4054   19285445.8224
  23519709.534    12809149.50649   9984852.35249  23519710.8394   23519718.5944
 96  7  9 18 25 59.9960000  0  6  6 16 24  4  5  9
  21716511.647   -18125733.48749 -13863112.03149  21716513.5644   21716518.6164
  21562760.982   -14879891.80149 -11577578.71849  21562762.7994   21562769.1934
  20001575.311   -12058753.71949  -9373522.48149  20001577.9884   20001582.4544
  22569442.230     8854046.89749   6906018.70749  22569444.6304   22569450.1874
  19285700.977   -18709095.42849 -14361766.09249  19285702.5634   19285706.8814
  23533504.378    12881639.42949  10041337.89649  23533505.8664   23533513.5574
 96  7  9 18 26 29.9960000  0  6  6 16 24  4  5  9
  21698411.316   -18220849.91849 -13937228.70549  21698413.6604   21698418.0014
  21541558.972   -14991305.92149 -11664394.88649  21541561.0054   21541568.0334
  20007203.771   -12029177.61249  -9350476.16849  20007206.2114   20007210.8854
  22583258.735     8926645.67249   6962589.15249  22583260.9954   22583265.3284
  19286064.221   -18707186.16049 -14360278.36049  19286065.9174   19286070.3304
  23547288.180    12954087.87749  10097791.12049  23547292.7854   23547300.7804
 96  7  9 18 26 59.9960000  0  6  6 16 24  4  5  9
  21680331.118   -18315865.03349 -14011266.43349  21680332.8384   21680337.5154
  21520411.849   -15102436.93249 -11750990.43549  21520413.1824   21520420.6484
  20012900.716   -11999240.37749  -9327148.45749  20012903.2314   20012907.6274
  22597092.170     8999342.09849   7019235.67249  22597094.3074   22597099.2054
  19286529.230   -18704740.38849 -14358372.57549  19286531.1384   19286535.6954
  23561068.649    13026506.32549  10154220.95049  23561073.5004   23561080.0934
 96  7  9 18 27 29.9960000  0  6  6 16 24  4  5  9
  21662269.914   -18410775.50649 -14085222.61749  21662271.8494   21662276.7724
  21499316.851   -15213293.58249 -11837372.21549  21499318.4464   21499325.2654
  20018666.102   -11968944.46949  -9303541.26349  20018668.5444   20018672.8404
  22610943.228     9072128.41349   7075952.23649  22610945.2144   22610950.0224
  19287099.329   -18701744.03949 -14356037.77349  19287101.4324   19287105.9294
  23574844.277    13098901.37549  10210632.56049  23574849.1564   23574857.0244
 96  7  9 18 27 59.9960000  0  6  6 16 24  4  5  9
  21644226.836   -18505590.40749 -14159104.32349  21644229.0534   21644233.8234
  21478272.671   -15323883.55249 -11923546.18249  21478274.3714   21478280.5984
  20024493.072   -11938321.56149  -9279679.26049  20024495.7204   20024500.4304
  22624804.470     9144977.08049   7132717.40249  22624807.1344   22624811.7084
  19287773.600   -18698201.97349 -14353277.73649  19287775.3254   19287779.8924
  23588616.399    13171263.32849  10267018.37649  23588618.9034   23588626.7764
 96  7  9 18 28 29.9960000  0  6  6 16 24  4  5  9
  21626201.750   -18600317.13449 -14232917.33349  21626203.7194   21626207.4814
  21457281.204   -15434195.54749 -12009503.55549  21457282.7224   21457288.9914
  20030382.759   -11907371.13549  -9255562.04649  20030385.3594   20030389.6604
  22638680.938     9217891.26049   7189533.60749  22638683.4654   22638688.3384
  19288550.114   -18694121.76949 -14350098.37249  19288551.8284   19288556.4094
  23602382.680    13243596.39049  10323381.67049  23602384.0284   23602391.1644
 96  7  9 18 28 59.9960000  0  6  6 16 24  4  5  9
  21608193.180   -18694951.88649 -14306658.66849  21608195.4944   21608199.1424
  21436349.098   -15544191.57449 -12095214.71149  21436350.5784   21436357.3344
  20036333.710   -11876098.16849  -9231193.50049  20036336.4864   20036340.7574
  22652570.559     9290885.87449   7246412.47749  22652573.5614   22652578.2524
  19289426.014   -18689518.44449 -14346511.37849  19289428.0464   19289432.5084
  23616143.624    13315908.72449  10379728.80649  23616145.1284   23616151.9474
 96  7  9 18 29 29.9960000  0  6  6 16 24  4  5  9
  21590200.385   -18789500.87249 -14380333.17249  21590202.1374   21590207.5504
  21415479.718   -15653862.10949 -12180672.24249  21415481.2314   21415487.8264
  20042343.725   -11844516.80649  -9206584.64849  20042346.3264   20042350.5044
  22666478.949     9363971.63349   7303362.37949  22666480.6584   22666485.9864
  19290401.138   -18684395.76249 -14342519.69249  19290402.7084   19290407.2224
  23629896.550    13388187.14649  10436049.52749  23629899.0754   23629906.5104
 96  7  9 18 29 59.9960000  0  6  6 16 24  4  5  9
  21572227.580   -18883949.30849 -14453929.32349  21572229.5394   21572234.6334
  21394675.742   -15763190.05649 -12265862.83249  21394676.8624   21394683.0694
  20048414.310   -11812616.62949  -9181727.37549  20048416.9334   20048421.1234
  22680409.853     9437185.44749   7360412.06049  22680413.4104   22680418.4134
  19291477.708   -18678736.57949 -14338109.95249  19291479.6154   19291483.9964
  23643643.751    13460433.31549  10492345.08349  23643648.0824   23643654.2124
 96  7  9 18 30 29.9960000  0  6  6 16 24  4  5  9
  21554273.376   -18978299.81249 -14527449.17149  21554275.5174   21554280.0544
  21373935.603   -15872179.05049 -12350789.30349  21373937.2384   21373942.9644
  20054547.585   -11780385.02249  -9156611.83649  20054550.1844   20054554.4884
  22694370.126     9510538.48449   7417570.22849  22694371.5054   22694376.6334
  19292659.507   -18672528.05549 -14333272.15149  19292661.1804   19292665.4864
  23657382.306    13532633.25749  10548604.63749  23657386.5264   23657393.6494
 96  7  9 18 30 59.9960000  0  6  6 16 24  4  5  9
  21536338.931   -19072544.06749 -14600886.22749  21536340.9804   21536346.1214
  21353259.347   -15980827.17149 -12435450.15249  21353261.9444   21353268.1154
  20060743.612   -11747823.64349  -9131239.33949  20060745.9954   20060750.8754
  22708355.490     9584030.47249   7474836.67349  22708356.8324   22708361.7634
  19293947.398   -18665759.61949 -14327998.05749  19293949.1454   19293953.7754
  23671112.565    13604779.48449  10604822.35649  23671115.2414   23671123.1124
 96  7  9 18 31 29.9960000  0  6  6 16 24  4  5  9
  21518424.553   -19166684.78649 -14674242.61149  21518426.6794   21518431.7804
  21332646.553   -16089151.85549 -12519858.98049  21332648.3734   21332654.0354
  20067003.188   -11714929.42249  -9105607.48649  20067005.8934   20067010.2634
  22722361.280     9657635.90749   7532191.52249  22722363.9944   22722368.9144
  19295343.017   -18658425.90949 -14322283.48949  19295344.8274   19295349.4394
  23684827.720    13676853.38749  10660983.71849  23684830.3964   23684838.3124
 96  7  9 18 31 59.9960000  0  6  6 16 24  4  5  9
  21500529.299   -19260724.87349 -14747520.58949  21500531.0724   21500536.4224
  21312094.364   -16197157.44249 -12604019.15149  21312095.6124   21312101.2284
  20073326.925   -11681700.67149  -9079714.95749  20073328.9484   20073333.6114
  22736383.462     9731318.80349   7589606.71949  22736385.0854   22736390.4544
  19296842.405   -18650544.60849 -14316142.23149  19296844.5614   19296848.8884
  23698529.909    13748850.25849  10717085.06649  23698529.8704   23698538.9334
 96  7  9 18 32 29.9960000  0  5  6 16 24  4  5
  21482655.135   -19354656.38949 -14820713.98749  21482657.2794   21482661.5674
  21291608.330   -16304812.42249 -12687906.12649  21291609.3984   21291614.7274
  20079716.371   -11648122.89149  -9053550.46049  20079718.5784   20079723.2464
  22750417.165     9805072.76049   7647077.28849  22750419.6424   22750425.4344
  19298446.499   -18642116.75349 -14309575.08849  19298448.3004   19298452.9134
 96  7  9 18 32 59.9960000  0  5  6 16 24  4  5
  21464799.423   -19448488.87049 -14893830.20449  21464801.3614   21464805.8644
  21271188.468   -16412122.24849 -12771524.14649  21271189.1944   21271195.0224
  20086168.922   -11614215.07549  -9027128.79449  20086171.3094   20086175.5604
  22764460.467     9878867.34049   7704579.50549  22764462.9324   22764467.8464
  19300147.800   -18633175.79249 -14302608.12149  19300149.5864   19300154.5824
 96  7  9 18 33 29.9960000  0  5  6 16 24  4  5
  21446966.999   -19542196.96649 -14966849.47749  21446969.0784   21446973.8584
  21250834.598   -16519076.74549 -12854865.28549  21250836.4334   21250841.6954
  20092687.345   -11579959.52949  -9000436.17149  20092689.8534   20092694.3424
  22778513.408     9952711.12449   7762120.06949  22778514.6804   22778519.8894
  19301952.295   -18623694.37649 -14295220.02449  19301953.7824   19301958.6584
 96  7  9 18 33 59.9960000  0  5  6 16 24  4  5
  21429155.994   -19635797.01749 -15039784.55949  21429157.6594   21429162.7074
  21230547.114   -16625690.31249 -12937940.77049  21230548.4764   21230554.1664
  20099268.591   -11545376.19049  -8973488.12249  20099270.9684   20099275.4854
  22792574.935    10026605.63549   7819700.16849  22792576.8844   22792582.0734
  19303856.119   -18613688.44249 -14287423.20849  19303857.8444   19303862.8284
 96  7  9 18 34 29.9960000  0  5  6 16 24  4  5
  21411365.723   -19729284.60449 -15112632.00349  21411367.6654   21411372.0974
  21210328.683   -16731937.30749 -13020730.61449  21210330.1834   21210335.2404
  20105913.536   -11510455.95749  -8946277.56549  20105916.0934   20105920.4734
  22806649.589    10100573.31249   7877337.26649  22806652.7814   22806657.2534
  19305864.955   -18603132.77249 -14279198.03149  19305866.6964   19305871.2034
 96  7  9 18 34 59.9960000  0  5  6 16 24  4  5
  21393596.299   -19822660.98149 -15185392.78549  21393598.6044   21393603.2124
  21190175.283   -16837842.20149 -13103253.88049  21190177.2534   21190182.5654
  20112617.769   -11475224.87649  -8918824.78249  20112620.1674   20112624.3634
  22820736.775    10174601.95249   7935021.88049  22820738.6244   22820743.8124
  19307978.275   -18592029.01649 -14270545.77149  19307980.0034   19307984.0284
 96  7  9 18 35 29.9960000  0  5  6 16 24  4  5
  21375852.386   -19915908.68249 -15258053.30249  21375854.2934   21375858.3714
  21170092.114   -16943380.44149 -13185491.44849  21170093.5274   21170099.2544
  20119382.111   -11439678.14349  -8891126.04049  20119384.5524   20119388.9294
  22834843.604    10248724.55749   7992779.71449  22834844.3484   22834849.7404
  19310199.762   -18580353.61749 -14261448.07949  19310201.3044   19310205.6934
 96  7  9 18 35 59.9960000  0  5  6 16 24  4  5
  21358128.418   -20009047.74949 -15330629.16449  21358130.3784   21358135.2534
  21150080.897   -17048541.01849 -13267434.73549  21150082.3124   21150088.0664
  20126202.659   -11403835.70049  -8863196.87349  20126205.0534   20126209.6194
  22848964.908    10322938.33849   8050608.59649  22848966.4684   22848972.3014
  19312528.096   -18568119.38649 -14251914.92849  19312529.5914   19312533.8474
 96  7  9 18 36 29.9960000  0  5  6 16 24  4  5
  21340428.333   -20102061.86249 -15403107.66349  21340430.2774   21340435.0944
  21130143.536   -17153314.51149 -13349076.39749  21130144.7074   21130150.4854
  20133079.182   -11367697.32349  -8835037.10649  20133081.8784   20133086.1674
  22863103.892    10397242.77949   8108508.12349  22863107.0544   22863111.5344
  19314963.848   -18555316.95249 -14241939.02249  19314965.7664   19314970.2714
 96  7  9 18 36 59.9960000  0  5  6 16 24  4  5
  21322757.258   -20194922.60549 -15475466.66249  21322759.2064   21322763.8784
  21110277.021   -17257714.06249 -13430426.68149  21110278.2294   21110284.5514
  20140013.470   -11331258.07249  -8806642.89749  20140016.3434   20140020.6824
  22877266.038    10471660.88549   8166496.20249  22877267.4184   22877272.7324
  19317507.410   -18541950.61449 -14231523.71249  19317509.3754   19317514.0004
 96  7  9 18 37 29.9960000  0  5  6 16 24  4  5
  21305111.429   -20287652.74949 -15547723.89449  21305113.5684   21305118.2194
  21090480.103   -17361742.08749 -13511487.46549  21090482.0524   21090488.5024
  20147005.421   -11294516.08749  -8778012.78949  20147007.7514   20147012.6154
  22891445.411    10546173.04049   8224557.57349  22891447.2404   22891451.4904
  19320154.344   -18528040.38949 -14220684.58849  19320156.2374   19320160.9534
 96  7  9 18 37 59.9960000  0  5  6 16 24  4  5
  21287489.810   -20380254.24349 -15619880.87949  21287491.5854   21287496.5904
  21070753.219   -17465408.49849 -13592266.46649  21070754.9714   21070761.8864
  20154055.558   -11257467.07749  -8749143.43849  20154057.9194   20154062.5104
  22905637.141    10620753.45449   8282672.16249  22905639.5514   22905644.4074
  19322903.470   -18513594.58749 -14209428.13349  19322905.0454   19322910.1344
 96  7  9 18 38 29.9960000  0  5  6 16 24  4  5
  21269895.167   -20472712.65749 -15691926.36349  21269897.7494   21269902.6214
  21051094.901   -17568713.97749 -13672764.22249  21051096.8524   21051103.3324
  20161166.754   -11220096.13349  -8720023.23449  20161169.5444   20161174.4864
  22919841.431    10695399.25749   8340837.68449  22919844.0414   22919848.2134
  19325753.083   -18498619.84449 -14197759.51749  19325754.8744   19325759.6474
 96  7  9 18 38 59.9960000  0  5  6 16 24  4  5
  21252327.219   -20565034.81549 -15763865.69049  21252329.0934   21252334.5134
  21031508.876   -17671637.79849 -13752964.58349  21031511.0014   21031517.6484
  20168342.129   -11182389.59949  -8690641.53349  20168344.7024   20168349.6794
  22934058.482    10770105.78949   8399050.53449  22934060.3324   22934064.6274
  19328706.268   -18483100.98249 -14185666.91649  19328708.0464   19328713.0174
 96  7  9 18 39 29.9960000  0  5  6 16 24  4  5
  21234774.830   -20657271.95449 -15835738.76549  21234776.9894   21234782.1254
  21011991.174   -17774204.82549 -13832886.93249  21011993.2464   21011999.7584
  20175573.232   -11144391.52049  -8661032.65849  20175575.5114   20175580.7434
  22948274.987    10844819.62449   8457269.06649  22948278.3244   22948281.8534
  19331758.431   -18467060.77549 -14173168.07149  19331760.4394   19331765.1904
 96  7  9 18 39 59.9960000  0  5  6 16 24  4  5
  21217240.626   -20749414.93049 -15907538.47549  21217242.7674   21217247.9924
  20992542.471   -17876414.48449 -13912530.81149  20992543.5974   20992549.8304
  20182857.401   -11106112.41149  -8631204.79049  20182859.9444   20182864.9194
  22962498.682    10919560.71549   8515508.83049  22962500.2754   22962505.0814
  19334910.931   -18450494.78949 -14160259.52449  19334913.1374   19334917.5764
 96  7  9 18 40 29.9960000  0  5  6 16 24  4  5
  21199724.720   -20841461.35649 -15979262.93749  21199727.1514   21199732.0164
  20973164.125   -17978245.99749 -13991880.03049  20973165.6074   20973171.4424
  20190197.894   -11067538.94849  -8601147.55749  20190200.3444   20190205.0494
  22976730.348    10994352.07249   8573787.76049  22976733.5204   22976737.8754
  19338166.436   -18433385.43849 -14146927.57749  19338168.5064   19338173.1404
 96  7  9 18 40 59.9960000  0  5  6 16 24  4  5
  21182225.983   -20933419.17949 -16050918.36649  21182228.3544   21182233.5484
  20953857.191   -18079699.93549 -14070935.01649  20953859.3394   20953864.8774
  20197592.637   -11028677.51349  -8570865.93349  20197595.1904   20197600.1554
  22990973.692    11069196.91149   8632108.37549  22990975.9034   22990979.4404
  19341526.735   -18415729.57449 -14133169.77649  19341528.5484   19341532.8254
 96  7  9 18 41 29.9960000  0  5  6 16 24  4  5
  21164745.152   -21025278.68249 -16122497.17549  21164747.6634   21164752.6024
  20934623.997   -18180775.67449 -14149695.30849  20934625.4914   20934630.8894
  20205041.716   -10989532.17149  -8540363.07749  20205044.2994   20205049.1314
  23005229.241    11144105.93449   8690479.00949  23005230.1624   23005235.2264
  19344985.659   -18397552.46249 -14119005.80749  19344987.3054   19344992.0104
 96  7  9 18 41 59.9950000  0  5  6 16 24  4  5
  21147285.682   -21117032.25949 -16193993.44349  21147287.9524   21147292.6244
  20915465.741   -18281455.02849 -14228146.72549  20915466.5554   20915471.8504
  20212547.485   -10950089.47449  -8509628.51749  20212550.1234   20212554.6054
  23019492.505    11219077.52649   8748898.38049  23019496.6804   23019501.1154
  19348544.915   -18378846.68249 -14104429.88949  19348546.6954   19348551.4724
 96  7  9 18 42 29.9950000  0  5  6 16 24  4  5
  21129845.462   -21208678.96649 -16265406.44149  21129847.8784   21129852.7404
  20896384.378   -18381728.76049 -14306282.06249  20896385.6474   20896390.6244
  20220115.015   -10910323.72349  -8478642.23049  20220117.4084   20220122.0834
  23033773.243    11294111.52249   8807366.38449  23033775.3514   23033781.5234
  19352208.545   -18359595.82149 -14089429.24049  19352210.0064   19352214.7074
 96  7  9 18 42 59.9950000  0  5  6 16 24  4  5
  21112427.374   -21300212.37949 -16336731.15549  21112429.7944   21112434.5924
  20877379.225   -18481601.50349 -14384104.94449  20877380.3044   20877385.1474
  20227738.064   -10870263.82249  -8447426.73749  20227740.4054   20227744.9544
  23048062.755    11369195.61149   8865873.41949  23048063.3964   23048068.3514
  19355971.096   -18339823.41849 -14074022.19349  19355972.7474   19355977.2224
 96  7  9 18 43 29.9950000  0  5  6 16 24  4  5
  21095030.908   -21391633.41649 -16407968.30049  21095032.8924   21095037.4784
  20858450.619   -18581069.85849 -14461612.71449  20858451.4774   20858456.9144
  20235415.213   -10829920.24549  -8415990.19049  20235417.3594   20235422.3864
  23062357.242    11444322.32149   8924413.65149  23062359.5174   23062363.2984
  19359831.878   -18319531.90349 -14058210.64049  19359834.1684   19359838.9374
 96  7  9 18 43 59.9950000  0  5  6 16 24  4  5
  21077660.590   -21482910.79549 -16479093.50949  21077662.9014   21077667.4754
  20839602.626   -18680114.90749 -14538790.63849  20839604.5904   20839609.3974
  20243151.445   -10789267.05949  -8384312.39549  20243153.8204   20243158.5654
  23076666.142    11519515.74649   8983005.88449  23076668.8044   23076671.5994
  19363799.759   -18298684.18349 -14041965.68549  19363801.5814   19363805.8874
 96  7  9 18 44 29.9950000  0  5  6 16 24  4  5
  21060318.611   -21574047.42949 -16550109.04849  21060320.4634   21060325.0444
  20820832.095   -18778757.45449 -14615654.93149  20820833.0784   20820838.1574
  20250941.829   -10748326.02849  -8352410.30449  20250944.3914   20250949.3224
  23090984.998    11594770.11549   9041645.60249  23090988.1534   23090994.8014
  19367866.008   -18277314.37049 -14025313.90749  19367867.9394   19367872.5104
 96  7  9 18 44 59.9950000  0  5  6 16 24  4  5
  21043002.086   -21665044.66749 -16621015.96149  21043003.8844   21043009.0554
  20802134.448   -18877007.06249 -14692213.03849  20802136.2804   20802141.7444
  20258783.476   -10707120.07649  -8320301.78249  20258785.8954   20258790.5744
  23105318.255    11670081.19749   9100329.52049  23105319.7844   23105324.9054
  19372030.420   -18255434.00949 -14008264.28749  19372031.8844   19372036.2294
 96  7  9 18 45 29.9950000  0  5  6 16 24  4  5
  21025711.367   -21755909.52049 -16691819.72149  21025712.8964   21025717.7684
  20783512.262   -18974871.89249 -14768471.30749  20783513.7034   20783518.6854
  20266676.552   -10665640.43049  -8287979.99149  20266679.2314   20266683.8444
  23119659.602    11745435.80649   9159047.34849  23119660.3314   23119666.0644
  19376292.646   -18233035.91749 -13990811.24849  19376294.1684   19376298.6934
 96  7  9 18 45 59.9950000  0  5  6 16 24  4  5
  21008445.799   -21846638.31149 -16762517.46349  21008448.1964   21008452.7664
  20764963.919   -19072342.68649 -14844422.53949  20764965.5814   20764970.7124
  20274620.929   -10623893.47049  -8255449.90049  20274623.3824   20274627.9854
  23134004.039    11820826.55349   9217793.34049  23134006.3214   23134011.4254
  19380653.414   -18210118.16849 -13972953.28649  19380655.2054   19380659.9054
 96  7  9 18 46 29.9950000  0  5  6 16 24  4  5
  20991202.229   -21937255.56549 -16833128.29349  20991204.0304   20991208.9254
  20746492.280   -19169411.47849 -14920060.53349  20746493.3844   20746499.0644
  20282609.270   -10581914.32249  -8222738.88849  20282611.5804   20282616.6024
  23148354.631    11896233.13449   9276551.67549  23148355.0514   23148359.6344
  19385111.002   -18186693.27549 -13954700.14049  19385112.7074   19385117.5374
 96  7  9 18 46 59.9950000  0  5  6 16 24  4  5
  20973979.481   -22027761.16449 -16903652.11549  20973981.0214   20973986.3724
  20728101.386   -19266055.26549 -14995367.35149  20728103.2144   20728108.7424
  20290641.409   -10539705.75949  -8189849.10949  20290643.9504   20290648.4634
  23162703.159    11971644.33649   9335313.57749  23162706.1674   23162711.0794
  19389667.500   -18162748.39749 -13936041.80649  19389669.2204   19389673.9664
 96  7  9 18 47 29.9950000  0  5  6 16 24  4  5
  20956777.613   -22118159.22049 -16974092.14149  20956779.4884   20956783.6864
  20709794.963   -19362259.41549 -15070331.59149  20709796.3144   20709801.9564
  20298715.955   -10497273.82149  -8156785.27049  20298718.5824   20298722.9204
  23177052.012    12047046.23849   9394068.26149  23177054.8184   23177059.4074
  19394321.170   -18138292.09049 -13916984.95049  19394322.9824   19394328.0524
 96  7  9 18 47 59.9950000  0  5  6 16 24  4  5
  20939596.764   -22208444.24649 -17044444.09349  20939598.6174   20939603.2094
  20691576.662   -19457993.88449 -15144929.85949  20691578.2364   20691584.4514
  20306832.079   -10454622.34049  -8123550.36249  20306834.6734   20306839.2844
  23191399.670    12122441.43049   9452817.70449  23191400.8824   23191406.9494
  19399074.303   -18113314.38649 -13897521.81649  19399075.9864   19399080.8904
 96  7  9 18 48 29.9950000  0  5  6 16 24  4  5
  20922440.597   -22298601.57749 -17114696.53649  20922442.0744   20922447.2254
  20673449.069   -19553257.18149 -15219160.97349  20673450.4704   20673456.6014
  20314995.627   -10411723.61749  -8090122.79849  20314998.0594   20315002.5954
  23205750.718    12197851.84249   9511579.01149  23205751.9004   23205758.6154
  19403929.024   -18087804.13349 -13877643.70649  19403930.9444   19403935.5134
 96  7  9 18 48 59.9950000  0  5  6 16 24  4  5
  20905306.953   -22388635.80449 -17184853.05849  20905309.0734   20905313.6964
  20655404.723   -19648079.21649 -15293048.24949  20655406.7924   20655412.0894
  20323206.115   -10368575.89449  -8056501.20849  20323208.7754   20323213.2604
  23220098.786    12273259.53049   9570338.18849  23220101.5704   23220105.1674
  19408881.609   -18061777.57549 -13857363.28849  19408883.5594   19408887.7814
 96  7  9 18 49 29.9950000  0  5  6 16 24  4  5
  20888200.087   -22478535.63449 -17254904.85249  20888202.1814   20888206.4904
  20637446.493   -19742453.88749 -15366586.92449  20637447.7804   20637453.3394
  20331468.218   -10325160.35049  -8022670.93049  20331470.4374   20331475.2424
  23234454.069    12348685.93949   9629111.95949  23234455.6324   23234460.3344
  19413936.301   -18035215.86549 -13836665.87949  19413938.1004   19413942.4664
 96  7  9 18 49 59.9950000  0  5  6 16 24  4  5
  20871116.486   -22568310.44649 -17324859.23149  20871118.8484   20871122.8644
  20619566.790   -19836407.39449 -15439797.42049  20619568.9154   20619574.4044
  20339779.619   -10281481.71549  -7988635.65049  20339782.1624   20339786.9554
  23248808.273    12424123.28049   9687894.24349  23248810.8774   23248814.5534
  19419090.417   -18008130.24149 -13815560.23049  19419092.4664   19419096.5614
 96  7  9 18 50 29.9950000  0  5  6 16 24  4  5
  20854059.934   -22657941.37049 -17394701.48249  20854062.5354   20854066.5994
  20601768.267   -19929943.43449 -15512682.62049  20601769.2254   20601775.0954
  20348144.559   -10237523.73849  -7954382.69849  20348147.3064   20348151.9484
  23263167.649    12499590.69749   9746699.98049  23263172.0734   23263176.4474
  19424343.651   -17980525.93049 -13794050.40549  19424345.3014   19424349.6644
 96  7  9 18 50 59.9950000  0  5  6 16 24  4  5
  20837027.172   -22747449.49949 -17464448.05949  20837029.4354   20837034.0184
  20584048.187   -20023060.30249 -15585241.18749  20584049.6694   20584055.5684
  20356557.814   -10193311.76449  -7919931.82349  20356560.4804   20356565.0524
  23277531.738    12575063.72849   9805510.09449  23277533.0964   23277538.4774
  19429691.803   -17952419.45249 -13772149.27349  19429693.8754   19429698.3494
 96  7  9 18 51 29.9950000  0  5  6 16 24  4  5
  20820020.675   -22836818.91649 -17534086.54549  20820022.7084   20820027.3274
  20566413.015   -20115733.11749 -15657453.73849  20566414.9154   20566420.7734
  20365022.059   -10148830.65749  -7885271.24349  20365024.8524   20365029.4594
  23291897.761    12650564.20749   9864341.55949  23291900.9794   23291905.2054
  19435138.362   -17923797.24949 -13749846.27549  19435140.4144   19435145.2424
 96  7  9 18 51 59.9950000  0  5  6 16 24  4  5
  20803038.120   -22926064.27149 -17603628.36349  20803039.8594   20803044.7494
  20548857.543   -20207988.60749 -15729341.10149  20548858.9134   20548864.7624
  20373535.453   -10104095.44849  -7850412.66249  20373537.6374   20373542.5924
  23306269.833    12726082.78249   9923187.14649  23306270.9374   23306275.1134
  19440678.753   -17894684.20949 -13727160.80949  19440680.4154   19440685.4484
 96  7  9 18 52 29.9950000  0  5  6 16 24  4  5
  20786075.286   -23015203.68649 -17673087.63449  20786077.0124   20786082.1904
  20531380.816   -20299827.22049 -15800903.63249  20531382.5504   20531388.2764
  20382096.197   -10059107.48749  -7815357.12949  20382098.4894   20382103.4464
  23320644.506    12801624.49049   9982050.76449  23320647.9674   23320651.6564
  19446312.777   -17865079.42249 -13704092.15749  19446313.8684   19446319.0284
 96  7  9 18 52 59.9950000  0  6  6 16 24  4  5 25
  20769132.969   -23104235.76449 -17742463.26249  20769135.0504   20769139.7554
  20513986.514   -20391239.37849 -15872133.85349  20513987.7844   20513992.9204
  20390709.363   -10013845.60149  -7780088.14049  20390711.8994   20390716.7504
  23335025.579    12877194.40849  10040936.37549  23335028.2814   23335033.3554
  19452043.383   -17834962.25049 -13680624.23949  19452045.2304   19452050.0384
  23358328.475    -3953351.14659  -3072306.48959  23358330.7834   23358336.0894
 96  7  9 18 53 29.9950000  0  6  6 16 24  4  5 25
  20752211.089   -23193163.17649 -17811757.33849  20752212.8444   20752217.2374
  20496670.257   -20482234.64949 -15943039.22749  20496672.0014   20496676.6244
  20399373.673    -9968310.90949  -7744606.58249  20399376.4584   20399381.4644
  23349411.559    12952796.96049  10099847.40649  23349413.5814   23349416.6744
  19457870.869   -17804339.19849 -13656762.13849  19457872.5804   19457877.8264
  23348915.433    -4002816.00949  -3110850.53349  23348917.6724   23348923.5104
 96  7  9 18 53 59.9950000  0  6  6 16 24  4  5 25
  20735305.934   -23281996.31449 -17880977.94649  20735308.3734   20735313.0164
  20479434.280   -20572808.34449 -16013616.10249  20479436.0694   20479441.7294
  20408087.281    -9922525.07549  -7708929.32749  20408089.2604   20408094.1784
  23363804.724    13028426.75049  10158779.68649  23363806.3164   23363810.4264
  19463793.285   -17773217.92249 -13632511.81049  19463794.7934   19463799.6984
  23339607.333    -4051735.29249  -3148969.45649  23339608.0194   23339613.9974
 96  7  9 18 54 29.9950000  0  6  6 16 24  4  5 25
  20718420.329   -23370732.54549 -17950123.04849  20718422.3994   20718427.1624
  20462285.255   -20662930.63449 -16083841.23449  20462286.2784   20462292.1724
  20416843.737    -9876508.50549  -7673072.27949  20416846.1994   20416850.6704
  23378196.738    13104063.10749  10217717.04549  23378198.5624   23378204.8564
  19469809.068   -17741602.78149 -13607876.64849  19469810.6504   19469816.0284
  23330398.178    -4100123.61049  -3186674.66149  23330400.4294   23330404.7264
 96  7  9 18 54 59.9950000  0  6  6 16 24  4  5 25
  20701560.348   -23459332.14149 -18019161.67649  20701562.6954   20701567.4874
  20445228.454   -20752565.09449 -16153686.23949  20445229.9384   20445234.8794
  20425642.431    -9830269.97949  -7637042.28249  20425645.2364   20425649.7654
  23392589.117    13179702.31449  10276656.62649  23392592.2684   23392597.3014
  19475921.474   -17709481.47149 -13582847.07349  19475923.0944   19475928.2704
  23321293.867    -4147969.94749  -3223957.50749  23321295.8364   23321302.0084
 96  7  9 18 55 29.9950000  0  6  6 16 24  4  5 25
  20684727.656   -23547790.26049 -18088090.05949  20684729.6974   20684734.2614
  20428264.115   -20841710.90249 -16223150.48049  20428266.1664   20428271.1494
  20434475.896    -9783850.51049  -7600871.28149  20434478.4674   20434482.9574
  23406981.873    13255333.18249  10335589.72649  23406984.4724   23406988.0704
  19482128.961   -17676861.29349 -13557428.77349  19482130.5294   19482135.4934
  23312289.835    -4195284.23449  -3260825.80349  23312292.4464   23312298.8454
 96  7  9 18 55 59.9950000  0  6  6 16 24  4  5 25
  20667923.487   -23636097.30449 -18156900.72249  20667925.0884   20667929.7574
  20411394.894   -20930358.68249 -16292226.64449  20411396.8484   20411401.8984
  20443343.391    -9737251.83649  -7564560.63949  20443345.9774   20443350.6144
  23421369.032    13330940.99649  10394504.85349  23421373.4204   23421378.1074
  19488433.590   -17643733.82649 -13531615.18149  19488434.7274   19488439.4964
  23303383.389    -4242080.85849  -3297290.70849  23303386.7574   23303392.4994
 96  7  9 18 56 29.9950000  0  6  6 16 24  4  5 25
  20651150.054   -23724242.76249 -18225585.47749  20651151.7094   20651155.8854
  20394620.530   -21018508.77849 -16360915.00849  20394622.1504   20394627.6894
  20452250.407    -9690448.39849  -7528090.44249  20452252.4004   20452257.3934
  23435753.712    13406518.80849  10453396.61449  23435754.5434   23435758.2264
  19494835.246   -17610091.87349 -13505400.68449  19494836.7604   19494841.4214
  23294580.156    -4288355.45349  -3333348.83649  23294582.4284   23294586.3494
 96  7  9 18 56 59.9950000  0  6  6 16 24  4  5 25
  20634405.184   -23812234.58949 -18294150.52049  20634407.1514   20634411.9874
  20377935.745   -21106186.73149 -16429235.46149  20377937.6254   20377943.0934
  20461196.344    -9643435.67249  -7491457.16349  20461198.6094   20461203.3234
  23450130.177    13482080.94549  10512276.14049  23450133.0374   23450135.4594
  19501332.142   -17575949.85149 -13478796.53249  19501333.9584   19501338.4714
  23285870.146    -4334113.50149  -3369004.47349  23285874.1904   23285879.1344
 96  7  9 18 57 29.9950000  0  5  6 16 24  5 25
  20617688.070   -23900084.21149 -18362604.76349  20617690.2444   20617694.6204
  20361338.323   -21193407.27249 -16497199.49249  20361339.9124   20361345.5194
  20470185.084    -9596198.24249  -7454648.78849  20470187.5004   20470192.4544
  19507921.562   -17541324.70049 -13451815.91449  19507922.8794   19507927.2554
  23277262.218    -4379359.03049  -3404260.73049  23277264.4684   23277269.0004
 96  7  9 18 57 59.9950000  0  5  6 16 24  5 25
  20600997.750   -23987792.65949 -18430948.99549  20600999.6614   20601004.2764
  20344831.920   -21280148.56049 -16564790.08549  20344833.1934   20344838.8224
  20479222.202    -9548710.28449  -7417645.19849  20479224.1634   20479229.1584
  19514600.120   -17506228.18549 -13424467.99849  19514601.4704   19514606.0164
  23268751.087    -4424085.65849  -3439112.66749  23268752.3684   23268757.7994
 96  7  9 18 58 29.9950000  0  5  6 16 24  5 25
  20584330.381   -24075381.86249 -18499200.30649  20584332.2884   20584336.7434
  20328411.453   -21366438.24649 -16632028.78149  20328412.8334   20328418.7614
  20488299.150    -9501010.34049  -7380476.42749  20488301.2704   20488306.2414
  19521360.948   -17470699.96949 -13396783.69149  19521362.3174   19521366.7754
  23260335.079    -4468312.70249  -3473575.29549  23260336.4944   23260341.8554
 96  7  9 18 58 59.9950000  0  5  6 16 24  5 25
  20567689.477   -24162828.98149 -18567340.90749  20567691.3514   20567696.0524
  20312080.097   -21452262.08049 -16698904.46249  20312081.0374   20312086.7414
  20497417.127    -9453094.11149  -7343139.11749  20497419.5304   20497424.3584
  19528208.566   -17434714.98249 -13368743.46349  19528209.9224   19528214.7624
  23252019.840    -4512014.09249  -3507628.31849  23252021.7304   23252025.6384
 96  7  9 18 59 29.9950000  0  5  6 16 24  5 25
  20551073.516   -24250147.74349 -18635381.47949  20551075.1654   20551079.9284
  20295835.814   -21537625.44349 -16765421.34449  20295837.3794   20295842.3744
  20506573.146    -9404979.30349  -7305647.07649  20506575.4824   20506580.3144
  19535144.742   -17398265.87849 -13340341.58349  19535146.0744   19535150.6414
  23243801.004    -4555199.48949  -3541279.29849  23243803.0454   23243809.5604
 96  7  9 18 59 59.9950000  0  6  6 16 24  5 17 25
  20534483.702   -24337326.02149 -18703312.58349  20534485.6974   20534490.2164
  20279684.829   -21622499.29749 -16831556.79449  20279686.3254   20279691.4904
  20515766.604    -9356666.70149  -7268000.91049  20515768.7354   20515773.8224
  19542174.899   -17361317.59349 -13311550.73049  19542176.9644   19542181.4144
  23562217.224    -2601555.20059  -1978348.12759  23562218.4634   23562226.9494
  23235680.766    -4597866.64049  -3574526.44249  23235682.7594   23235689.4114
 96  7  9 19  0 29.9950000  0  6  6 16 24  5 17 25
  20517923.921   -24424348.78849 -18771122.51349  20517925.7924   20517930.3294
  20263627.844   -21706882.59549 -16897309.98849  20263628.8424   20263633.8124
  20524998.905    -9308149.86349  -7230195.59649  20525001.3874   20525006.1384
  19549307.909   -17323837.01549 -13282345.09849  19549309.1854   19549313.8844
  23538638.590    -2725462.61249  -2074899.27249  23538640.2584   23538648.1824
  23227660.792    -4640001.47549  -3607358.80049  23227665.9554   23227670.5534
 96  7  9 19  0 59.9950000  0  6  6 16 24  5 17 25
  20501394.431   -24511212.78449 -18838808.72349  20501395.8664   20501400.2374
  20247665.569   -21790764.57949 -16962672.54549  20247666.8284   20247671.5654
  20534274.164    -9259406.72749  -7192213.94449  20534277.1564   20534281.6334
  19556542.752   -17285815.62649 -13252718.05249  19556544.4904   19556548.8674
  23515080.992    -2849257.08949  -2171362.41349  23515082.1624   23515090.5304
  23219747.318    -4681596.78349  -3639770.74449  23219750.2704   23219754.3464
 96  7  9 19  1 29.9950000  0  6  6 16 24  5 17 25
  20484894.613   -24597917.30749 -18906370.66849  20484896.5384   20484901.2944
  20231802.806   -21874121.22249 -17027625.75649  20231804.4544   20231809.3424
  20543593.043    -9210436.14749  -7154055.06849  20543595.5274   20543600.5674
  19563879.288   -17247262.50849 -13222676.68049  19563880.6614   19563885.4834
  23491546.310    -2972934.07649  -2267734.01649  23491546.3214   23491555.5994
  23211934.775    -4722655.68149  -3671764.69449  23211936.1254   23211941.5964
 96  7  9 19  1 59.9950000  0  6  6 16 24  5 17 25
  20468426.641   -24684457.15149 -18973804.29549  20468428.6934   20468433.0624
  20216042.164   -21956948.29649 -17092166.31249  20216043.0254   20216048.3184
  20552956.435    -9161235.30749  -7115716.76949  20552957.9434   20552963.1044
  19571314.959   -17208187.28749 -13192228.48049  19571316.9894   19571321.2964
  23468035.778    -3096484.68249  -2364007.13149  23468037.3554   23468044.3294
  23204222.486    -4763177.71849  -3703340.31249  23204226.3684   23204230.9504
 96  7  9 19  2 29.9950000  0  6  6 16 24  5 17 25
  20451989.085   -24770837.25749 -19041113.45249  20451990.8854   20451995.5424
  20200375.731   -22039272.49349 -17156315.01649  20200377.1404   20200382.5784
  20562360.888    -9111808.46749  -7077202.36449  20562363.7024   20562368.8654
  19578844.243   -17168620.98849 -13161397.61449  19578845.8434   19578850.4904
  23444548.512    -3219902.90549  -2460177.08949  23444552.8614   23444557.9394
  23196618.992    -4803149.70649  -3734487.32549  23196618.7794   23196625.4244
 96  7  9 19  2 59.9950000  0  6  6 16 24  5 17 25
  20435582.080   -24857054.75349 -19108295.90249  20435584.0614   20435589.1364
  20184807.202   -22121084.56249 -17220064.66349  20184808.6234   20184814.2104
  20571809.914    -9062156.88849  -7038512.83949  20571812.1934   20571817.3914
  19586466.259   -17128568.92049 -13130188.23249  19586467.7524   19586472.2014
  23421094.905    -3343163.06949  -2556223.89349  23421095.9984   23421103.2054
  23189120.111    -4842554.63349  -3765192.48149  23189120.7664   23189125.6024
 96  7  9 19  3 29.9950000  0  6  6 16 24  5 17 25
  20419201.887   -24943133.59049 -19175370.31049  20419204.1314   20419208.3704
  20169333.935   -22202396.41849 -17283424.53249  20169335.5594   20169341.2794
  20581295.595    -9012308.71149  -6999670.11849  20581297.8644   20581303.0324
  19594177.651   -17088043.24849 -13098609.80349  19594179.2094   19594184.1434
  23397669.122    -3466262.06249  -2652145.11649  23397670.2724   23397678.6014
  23181724.803    -4881412.06749  -3795471.01049  23181727.5264   23181731.6004
 96  7  9 19  3 59.9950000  0  6  6 16 24  5 17 25
  20402848.706   -25029071.26249 -19242334.71249  20402850.7614   20402855.1134
  20153954.766   -22283214.46749 -17346399.61549  20153955.9664   20153962.0704
  20590820.867    -8962254.32049  -6960666.71349  20590823.0554   20590828.2874
  19601979.349   -17047047.84449 -13066665.35149  19601980.6984   19601984.9884
  23374276.211    -3589193.19149  -2747935.51049  23374277.4364   23374285.1044
  23174437.340    -4919710.70749  -3825314.11249  23174438.7724   23174444.8714
 96  7  9 19  4 29.9950000  0  6  6 16 24  5 17 25
  20386520.034   -25114881.61649 -19309199.91149  20386521.6224   20386525.7104
  20138667.274   -22363551.56549 -17408999.93349  20138668.3844   20138674.2924
  20600383.239    -8912004.54849  -6921511.06049  20600385.3554   20600390.3924
  19609866.295   -17005600.17449 -13034368.48149  19609867.8544   19609872.0734
  23350910.596    -3711974.01649  -2843608.79049  23350912.4384   23350920.8874
  23167254.921    -4957456.58549  -3854726.49349  23167255.9514   23167261.6014
 96  7  9 19  4 59.9950000  0  6  6 16 24  5 17 25
  20370214.336   -25200565.56149 -19375966.61049  20370216.4074   20370220.7624
  20123474.821   -22443389.24449 -17471211.09549  20123476.1214   20123481.9614
  20609983.620    -8861551.40449  -6882196.94149  20609986.2734   20609991.3634
  19617841.630   -16963687.96649 -13001709.64649  19617843.5464   19617847.8834
  23327574.290    -3834607.91249  -2939167.59349  23327577.1744   23327584.0674
  23160175.069    -4994658.42549  -3883714.95949  23160175.8084   23160181.6554
 96  7  9 19  5 29.9950000  0  6  6 16 24  5 17 25
  20353940.855   -25286084.80349 -19442604.96449  20353942.7844   20353946.6784
  20108380.047   -22522714.50749 -17533022.96849  20108381.1914   20108386.5244
  20619628.142    -8810868.60149  -6842703.86649  20619630.9194   20619636.0054
  19625910.084   -16921292.35049 -12968674.12249  19625911.1884   19625915.7554
  23304267.948    -3957086.33449  -3034605.24349  23304269.1004   23304277.0974
  23153198.973    -5031313.15849  -3912277.09449  23153200.6584   23153206.7314
 96  7  9 19  5 59.9950000  0  6  6 16 24  5 17 25
  20337696.039   -25371450.13549 -19509123.38949  20337698.3034   20337702.4784
  20093378.765   -22601546.80549 -17594450.71249  20093380.0054   20093384.8974
  20629312.216    -8759983.42349  -6803053.09449  20629314.3374   20629319.1294
  19634065.369   -16878434.43349 -12935278.36749  19634067.0174   19634071.1444
  23280984.358    -4079436.36349  -3129942.85049  23280987.6054   23280995.4944
  23146328.747    -5067434.00149  -3940423.22349  23146328.6684   23146332.5754
 96  7  9 19  6 29.9950000  0  6  6 16 24  5 17 25
  20321482.960   -25456651.38249 -19575513.95349  20321484.8814   20321489.1444
  20078473.291   -22679872.86649 -17655483.98349  20078474.8184   20078480.0084
  20639031.711    -8708905.84049  -6763252.39549  20639033.9434   20639038.5834
  19642312.619   -16835094.59849 -12901507.09549  19642314.3304   19642318.7814
  23257728.539    -4201651.86649  -3225175.64749  23257730.9404   23257738.1544
  23139553.490    -5103016.79049  -3968150.06849  23139555.7354   23139562.1714
 96  7  9 19  6 59.9950000  0  6  6 16 24  5 17 25
  20305299.878   -25541693.04049 -19641780.16649  20305302.2194   20305306.5574
  20063665.617   -22757686.94149 -17716118.29949  20063667.5564   20063672.5594
  20648783.704    -8657657.27249  -6723318.46649  20648786.0584   20648790.9364
  19650651.578   -16791272.56849 -12867360.08849  19650653.2164   19650657.4484
  23234497.549    -4323735.19449  -3320305.44849  23234498.8184   23234506.1024
  23132884.111    -5138069.89449  -3995464.17449  23132887.2294   23132892.0614
 96  7  9 19  7 29.9950000  0  6  6 16 24  5 17 25
  20289146.066   -25626580.94549 -19707926.57349  20289148.1654   20289152.7234
  20048957.014   -22834981.08249 -17776347.47649  20048958.5444   20048963.9904
  20658564.916    -8606255.44049  -6683265.10549  20658567.5834   20658572.5384
  19659081.495   -16746973.62949 -12832841.46049  19659083.1684   19659087.6774
  23211290.689    -4445684.37449  -3415330.72349  23211291.6984   23211300.1384
  23126312.037    -5172598.17949  -4022369.34249  23126315.7984   23126321.5614
 96  7  9 19  7 59.9950000  0  6  6 16 24  5 17 25
  20273021.858   -25711315.93149 -19773953.81549  20273023.4444   20273028.5024
  20034353.800   -22911722.47849 -17836145.93849  20034355.3894   20034360.2394
  20668379.261    -8554684.65749  -6643080.09749  20668380.9984   20668385.5444
  19667605.265   -16702181.27049 -12797938.34749  19667606.6834   19667611.0254
  23188112.630    -4567483.53149  -3510239.09949  23188114.9664   23188122.1004
  23119847.676    -5206573.29449  -4048843.48449  23119850.1004   23119856.3234
 96  7  9 19  8 29.9950000  0  6  6 16 24  5 17 25
  20256923.162   -25795916.27949 -19839876.14949  20256924.9994   20256929.4164
  20019852.409   -22987931.14849 -17895529.29349  20019853.2544   20019858.2204
  20678224.461    -8502949.42549  -6602766.94549  20678226.0644   20678230.9194
  19676218.852   -16656917.56549 -12762667.93949  19676220.0944   19676224.8024
  23164959.897    -4689150.32549  -3605044.33749  23164962.3754   23164969.7184
  23113483.946    -5240019.53349  -4074905.50449  23113485.5664   23113492.0894
 96  7  9 19  8 59.9950000  0  6  6 16 24  5 17 25
  20240851.147   -25880375.38249 -19905688.41849  20240853.1834   20240857.3234
  20005450.775   -23063608.94649 -17954498.98249  20005452.1174   20005457.2634
  20688102.910    -8451033.29949  -6562312.83849  20688105.4514   20688110.4684
  19684918.822   -16611198.51149 -12727042.71549  19684920.3644   19684924.5884
  23141834.838    -4810672.74549  -3699737.09549  23141837.5194   23141844.3554
  23107217.675    -5272954.69549  -4100569.28949  23107218.6004   23107223.3954
 96  7  9 19  9 29.9950000  0  6  6 16 24  5 17 25
  20224807.601   -25964685.04249 -19971384.23649  20224809.3674   20224813.4924
  19991147.343   -23138775.25249 -18013070.10249  19991148.2834   19991153.6954
  20698018.354    -8398930.84549  -6521713.54649  20698020.3244   20698025.1704
  19693701.642   -16565043.75149 -12691077.98849  19693703.1854   19693707.4674
  23118737.239    -4932053.13949  -3794319.17249  23118739.3024   23118747.1784
  23101045.034    -5305388.63649  -4125842.49349  23101046.7464   23101052.5244
 96  7  9 19  9 59.9950000  0  6  6 16 24  5 17 25
  20208800.964   -26048797.52849 -20036926.41849  20208802.8984   20208807.5164
  19976944.795   -23213407.73849 -18071225.26149  19976945.9794   19976951.5904
  20707976.206    -8346599.43449  -6480935.83849  20707978.4834   20707983.4134
  19702572.226   -16518427.36349 -12654753.54449  19702573.9554   19702578.5684
  23095672.468    -5053260.04949  -3888766.07549  23095674.6334   23095681.8514
  23094976.053    -5337286.61849  -4150698.07249  23094976.8364   23094980.6604
 96  7  9 19 10 29.9950000  0  6  6 16 24  5 17 25
  20192830.815   -26132721.29349 -20102321.54149  20192832.8474   20192837.1634
  19962843.207   -23287514.34849 -18128970.64649  19962844.0464   19962849.7954
  20717972.840    -8294068.19149  -6440002.42249  20717975.3824   20717979.5054
  19711527.230   -16471370.19749 -12618085.64449  19711528.4764   19711532.9644
  23072640.226    -5174294.89649  -3983078.89349  23072642.6344   23072648.9374
  23089000.503    -5368678.19449  -4175159.06149  23089002.5054   23089008.6704
 96  7  9 19 10 59.9950000  0  6  6 16 24  5 17 25
  20176900.086   -26216440.71749 -20167557.44049  20176901.9444   20176906.1414
  19948845.440   -23361071.59049 -18186287.95749  19948846.7454   19948852.1714
  20728006.352    -8241344.10149  -6398918.73249  20728008.2234   20728013.1184
  19720565.884   -16423870.89249 -12581073.21749  19720567.4684   19720571.7474
  23049642.856    -5295151.15649  -4077252.57649  23049644.5114   23049650.6694
  23083125.917    -5399553.49449  -4199217.73349  23083127.7704   23083133.5004
 96  7  9 19 11 29.9950000  0  6  6 16 24  5 17 25
  20161004.350   -26299972.75949 -20232647.32849  20161006.0954   20161010.4134
  19934954.595   -23434065.94849 -18243166.64649  19934956.4724   19934962.3114
  20738072.130    -8188445.50449  -6357699.05549  20738074.2484   20738079.2124
  19729691.489   -16375916.59249 -12543706.24649  19729692.6564   19729697.1334
  23026675.163    -5415839.76449  -4171295.59349  23026677.2044   23026684.5854
  23077355.054    -5429893.18949  -4222859.04449  23077354.7104   23077359.3984
 96  7  9 19 11 59.9950000  0  6  6 16 24  5 17 25
  20145138.665   -26383348.27049 -20297615.24449  20145140.1434   20145144.5054
  19921174.014   -23506487.44849 -18299598.95949  19921174.9714   19921180.6224
  20748167.993    -8135390.49449  -6316357.51349  20748170.5884   20748175.3024
  19738902.794   -16327508.28549 -12505985.50549  19738904.5434   19738908.8164
  23003739.886    -5536367.83249  -4265213.51249  23003741.8904   23003749.3024
  23071680.260    -5459707.20749  -4246090.76949  23071681.9714   23071686.0784
 96  7  9 19 12 29.9950000  0  6  6 16 24  5 17 25
  20129302.854   -26466563.05749 -20362457.91649  20129304.8434   20129309.2774
  19907505.015   -23578320.31449 -18355572.59349  19907505.9754   19907511.0394
  20758293.262    -8082181.32149  -6274895.83349  20758296.0544   20758300.8144
  19748204.454   -16278629.83149 -12467898.41149  19748206.1674   19748210.1884
  22980835.263    -5656735.97049  -4359006.80149  22980835.8754   22980843.6534
  23066107.352    -5488987.55749  -4268906.62649  23066108.4144   23066115.5764
 96  7  9 19 12 59.9950000  0  6  6 16 24  5 17 25
  20113500.606   -26549606.49949 -20427167.08249  20113502.2224   20113506.6014
  19893946.775   -23649565.69249 -18411088.44149  19893948.1404   19893953.3564
  20768452.918    -8028792.61649  -6233294.26549  20768455.1204   20768460.1294
  19757598.459   -16229262.79849 -12429430.61449  19757600.0124   19757604.4244
  22957958.911    -5776944.26149  -4452675.50949  22957962.0954   22957968.1404
  23060644.595    -5517702.39049  -4291281.82849  23060646.3814   23060650.9484
 96  7  9 19 13 29.9950000  0  6  6 16 24  5 17 25
  20097727.342   -26632496.54749 -20491756.71449  20097728.8714   20097733.1324
  19880497.564   -23720242.16149 -18466160.98849  19880499.0264   19880504.0054
  20778648.087    -7975218.53049  -6191548.24449  20778650.4654   20778655.1804
  19767086.569   -16179401.77549 -12390577.87249  19767088.4124   19767092.7054
  22935114.325    -5896995.91149  -4546222.19049  22935116.5514   22935122.9114
  23055285.653    -5545855.11649  -4313219.03149  23055287.0684   23055293.6954
 96  7  9 19 13 59.9950000  0  6  6 16 24  5 17 25
  20081988.143   -26715204.58249 -20556204.52349  20081989.7384   20081994.3794
  19867154.486   -23790361.54649 -18520799.44349  19867155.6654   19867160.8114
  20788880.575    -7921447.17849  -6149648.51049  20788882.5624   20788887.5614
  19776668.401   -16129051.60049 -12351343.97649  19776669.6244   19776674.4024
  22912300.210    -6016882.71049  -4639640.41149  22912302.4134   22912309.4584
  23050035.261    -5573452.07249  -4334723.17349  23050036.7604   23050041.9794
 96  7  9 19 14 29.9950000  0  6  6 16 24  5 17 25
  20066285.491   -26797720.53649 -20620502.65549  20066287.4084   20066291.8414
  19853912.274   -23859943.83949 -18575019.38549  19853913.9484   19853919.5644
  20799149.875    -7867478.60349  -6107595.08849  20799152.4874   20799157.1824
  19786340.815   -16078221.23349 -12311735.90649  19786342.4304   19786346.8554
  22889515.884    -6136618.97149  -4732941.34249  22889517.4424   22889524.1784
  23044888.198    -5600493.39149  -4355794.34049  23044891.2054   23044896.1074
 96  7  9 19 14 59.9950000  0  6  6 16 24  5 17 25
  20050618.575   -26880051.91549 -20684656.96049  20050620.6714   20050625.0224
  19840772.840   -23928995.88649 -18628826.15049  19840774.2714   19840779.3814
  20809456.837    -7813315.58849  -6065390.16049  20809459.2284   20809464.1934
  19796102.930   -16026924.70949 -12271764.60249  19796103.9404   19796108.5364
  22866761.624    -6256189.54049  -4826113.14949  22866765.3264   22866772.1264
  23039847.730    -5626982.70849  -4376435.38149  23039850.6224   23039855.3774
 96  7  9 19 15 29.9940000  0  6  6 16 24  5 17 25
  20034986.090   -26962202.11249 -20748670.08749  20034987.8804   20034992.4454
  19827733.012   -23997519.14149 -18682220.86949  19827734.3844   19827740.1054
  20819795.678    -7758986.26249  -6023055.63749  20819798.0374   20819802.8594
  19805947.046   -15975191.25749 -12231452.83049  19805948.6654   19805953.1734
  22844039.662    -6375596.49749  -4919157.46449  22844041.1504   22844048.8784
  23034906.792    -5652952.55949  -4396671.63649  23034908.3614   23034913.3644
 96  7  9 19 15 59.9940000  0  6  6 16 24  5 17 25
  20019390.079   -27044160.21449 -20812533.53249  20019391.7284   20019396.5444
  19814796.396   -24065502.19349 -18735194.65749  19814797.9774   19814803.3964
  20830165.966    -7704489.84949  -5980590.92149  20830168.0104   20830173.2434
  19815873.022   -15923030.17849 -12190807.84749  19815874.6264   19815879.1114
  22821347.043    -6494845.33349  -5012078.55849  22821348.7404   22821356.1874
  23030063.631    -5678401.53949  -4416502.03549  23030065.6834   23030070.2054
 96  7  9 19 16 29.9940000  0  6  6 16 24  5 17 25
  20003824.536   -27125957.86749 -20876271.94349  20003826.1794   20003831.0434
  19801964.315   -24132938.05549 -18787742.06249  19801965.3684   19801970.6704
  20840565.858    -7649839.97849  -5938006.62649  20840567.8794   20840572.9904
  19825876.320   -15870460.75749 -12149844.66949  19825878.3154   19825882.6124
  22798686.854    -6613930.33349  -5104871.98649  22798688.0224   22798694.7084
  23025317.433    -5703336.00649  -4435931.51649  23025320.3054   23025325.5414
 96  7  9 19 16 59.9940000  0  6  6 16 24  5 17 25
  19988291.332   -27207585.72949 -20939878.05449  19988293.1044   19988297.6384
  19789241.649   -24199792.43949 -18839836.36849  19789243.0994   19789248.8314
  20850996.676    -7595024.13149  -5895292.99549  20850999.3304   20851003.3984
  19835959.964   -15817472.92749 -12108555.45449  19835961.2554   19835965.9984
  22776063.152    -6732813.70349  -5197508.29649  22776065.7524   22776071.9754
  23020673.442    -5727745.24349  -4454951.71849  23020674.9674   23020680.8684
 96  7  9 19 17 29.9940000  0  6  6 16 24  5 17 25
  19972792.392   -27289032.88349 -21003343.34849  19972794.1894   19972798.5404
  19776631.222   -24266064.93849 -18891477.25149  19776632.2574   19776637.4694
  20861460.362    -7540041.21849  -5852449.18349  20861461.8554   20861466.8714
  19846121.413   -15764071.19949 -12066943.72749  19846123.6834   19846127.7334
  22753478.001    -6851498.68249  -5289990.03149  22753480.6274   22753487.4444
  23016129.547    -5751624.94749  -4473559.31649  23016131.9274   23016136.1464
 96  7  9 19 17 59.9940000  0  6  6 16 24  5 17 25
  19957326.533   -27370304.73149 -21066672.04949  19957328.8064   19957332.8624
  19764130.456   -24331757.09349 -18942665.92649  19764131.6224   19764136.6884
  20871954.485    -7484893.49349  -5809476.95149  20871956.1624   20871960.8024
  19856363.792   -15710247.43649 -12025003.15049  19856365.8504   19856370.2714
  22730933.389    -6969975.91749  -5382309.88949  22730935.1244   22730942.1814
  23011688.583    -5774957.42249  -4491740.47849  23011690.0574   23011696.1214
 96  7  9 19 18 29.9940000  0  6  6 16 24  5 17 25
  19941894.040   -27451403.94749 -21129866.22449  19941895.8464   19941900.3894
  19751741.152   -24396861.88349 -18993396.90249  19751742.2454   19751747.5494
  20882477.891    -7429590.96849  -5766384.08649  20882480.0094   20882484.5864
  19866690.038   -15655985.99549 -11982721.52149  19866691.2594   19866695.9564
  22708430.450    -7088229.19449  -5474455.21349  22708432.8424   22708438.8794
  23007355.722    -5797741.48449  -4509494.30949  23007355.5764   23007361.5334
 96  7  9 19 18 59.9940000  0  6  6 16 24  5 17 25
  19926496.154   -27532321.51349 -21192918.86049  19926497.9754   19926502.0664
  19739459.944   -24461399.26949 -19043685.75849  19739461.2504   19739466.3234
  20893026.830    -7374156.11749  -5723188.11849  20893028.8084   20893033.6874
  19877098.054   -15601293.95849 -11940104.37049  19877099.0884   19877103.1744
  22685964.191    -7206291.29449  -5566451.58849  22685965.2464   22685971.8744
  23003119.411    -5819983.83649  -4526826.04049  23003122.7314   23003127.4504
 96  7  9 19 19 29.9940000  0  6  6 16 24  5 17 25
  19911137.135   -27613034.61649 -21255812.16549  19911138.6254   19911143.1334
  19727287.301   -24525366.17449 -19093530.07249  19727288.6064   19727293.6294
  20903602.648    -7318578.87449  -5679881.19049  20903604.6844   20903609.7004
  19887591.330   -15546148.16449 -11897133.63049  19887593.1414   19887597.3964
  22663532.927    -7324167.87149  -5658303.38449  22663534.1724   22663541.0004
  22998992.251    -5841672.67149  -4543726.44549  22998995.0674   22999002.1754
 96  7  9 19 19 59.9940000  0  6  6 16 24  5 17 25
  19895815.222   -27693549.54649 -21318551.05849  19895817.0804   19895821.5194
  19715226.444   -24588747.42049 -19142918.04349  19715227.5654   19715232.9154
  20914206.335    -7262856.60449  -5636461.25549  20914208.4694   20914213.4284
  19898176.603   -15490525.94349 -11853791.66649  19898177.9804   19898181.5844
  22641136.002    -7441861.86849  -5750012.93549  22641137.6314   22641144.6814
  22994969.842    -5862811.33649  -4560198.14949  22994974.0794   22994978.8224
 96  7  9 19 20 29.9940000  0  6  6 16 24  5 17 25
  19880531.284   -27773870.21849 -21381138.58049  19880532.7334   19880537.2694
  19703274.428   -24651557.71249 -19191861.11049  19703275.2104   19703280.6794
  20924836.503    -7206995.27949  -5592932.97149  20924838.5144   20924843.4624
  19908847.579   -15434447.98849 -11810094.57949  19908849.0144   19908853.0384
  22618766.979    -7559411.43349  -5841609.91749  22618768.7234   22618775.8564
  22991045.638    -5883435.33149  -4576268.81249  22991049.4184   22991053.4714
 96  7  9 19 20 59.9940000  0  6  6 16 24  5 17 25
  19865288.468   -27853969.48649 -21443553.57149  19865290.2394   19865294.8974
  19691432.103   -24713789.92849 -19240353.72949  19691433.0234   19691437.9764
  20935499.135    -7150961.68549  -5549270.44749  20935501.5794   20935506.1404
  19919607.410   -15377905.63449 -11766035.62449  19919608.5964   19919612.8214
  22596426.320    -7676814.97849  -5933093.11849  22596428.0234   22596433.5254
  22987222.599    -5903535.92749  -4591931.63449  22987223.4374   22987228.5964
 96  7  9 19 21 29.9940000  0  6  6 16 24  5 17 25
  19850086.282   -27933856.70349 -21505803.33049  19850088.1154   19850092.7664
  19679701.125   -24775434.82549 -19288388.69849  19679702.3084   19679707.6834
  20946196.483    -7094748.67549  -5505468.12249  20946198.4834   20946203.4534
  19930454.678   -15320901.00049 -11721616.45349  19930456.0274   19930460.5104
  22574115.812    -7794052.94249  -6024447.29649  22574117.0844   22574124.7864
  22983495.239    -5923134.23549  -4607203.05249  22983494.5514   22983500.1394
 96  7  9 19 21 59.9940000  0  6  6 16 24  5 17 25
  19834923.871   -28013536.62249 -21567891.55749  19834925.2484   19834930.0444
  19668082.264   -24836491.70149 -19335965.46749  19668083.8374   19668088.8944
  20956927.742    -7038356.71449  -5461526.35749  20956929.5194   20956934.2734
  19941385.929   -15263457.41249 -11676855.24349  19941387.2514   19941392.0754
  22551841.370    -7911106.72949  -6115657.97449  22551843.1684   22551850.2254
  22979858.667    -5942221.27349  -4622076.08149  22979862.1094   22979868.1004
 96  7  9 19 22 29.9940000  0  6  6 16 24  5 17 25
  19819801.487   -28093006.54449 -21629816.15049  19819803.0644   19819807.2704
  19656574.109   -24896970.46849 -19383091.75649  19656574.8704   19656579.6464
  20967691.753    -6981787.86249  -5417446.74849  20967694.1864   20967698.7044
  19952395.684   -15205600.59149 -11631772.02349  19952396.8084   19952401.4764
  22529604.765    -8027965.11649  -6206716.37849  22529606.4954   22529611.7714
  22976325.669    -5960802.04249  -4636554.63349  22976326.8904   22976332.3214
 96  7  9 19 22 59.9940000  0  6  6 16 24  5 17 25
  19804718.620   -28172268.42049 -21691578.63149  19804720.1624   19804724.3924
  19645177.403   -24956857.31749 -19429756.81749  19645178.4704   19645183.8114
  20978490.029    -6925045.10049  -5373231.62849  20978492.4274   20978496.7184
  19963483.721   -15147329.13849 -11586365.71649  19963485.2724   19963490.3944
  22507411.397    -8144592.70849  -6297594.96949  22507412.4184   22507418.5704
  22972890.403    -5978849.12849  -4650617.32649  22972893.1064   22972896.5244
 96  7  9 19 23 29.9940000  0  6  6 16 24  5 17 25
  19789674.157   -28251324.36449 -21753180.65049  19789676.0314   19789680.4164
  19633896.952   -25016136.35649 -19475948.26149  19633898.3264   19633903.4004
  20989318.970    -6868137.76049  -5328888.27649  20989320.8864   20989326.1004
  19974652.025   -15088640.49649 -11540634.32949  19974653.7254   19974658.8434
  22485265.825    -8260965.28649  -6388274.84949  22485268.3094   22485274.4624
  22969561.015    -5996341.52349  -4664247.77149  22969563.8454   22969568.8874
 96  7  9 19 23 59.9940000  0  6  6 16 24  5 17 25
  19774672.755   -28330160.07649 -21814611.05949  19774674.0294   19774678.3504
  19622734.777   -25074795.18549 -19521656.42049  19622735.6214   19622741.0384
  21000179.460    -6811068.08749  -5284418.41949  21000180.9224   21000185.8284
  19985899.708   -15029534.78449 -11494577.94849  19985900.6714   19985906.0844
  22463168.494    -8377088.42749  -6478760.36149  22463170.6344   22463174.9304
  22966342.360    -6013261.32549  -4677432.06749  22966343.2014   22966349.5374
 96  7  9 19 24 29.9940000  0  6  6 16 24  5 17 25
  19759706.440   -28408806.59649 -21875894.04949  19759707.9244   19759712.2884
  19611686.434   -25132853.86549 -19566896.93849  19611687.5754   19611692.7754
  21011062.424    -6753875.91949  -5239853.11649  21011064.5494   21011069.4294
  19997223.719   -14970027.98749 -11448209.03949  19997224.8924   19997229.7244
  22441108.996    -8493012.51449  -6569090.78649  22441110.4794   22441116.3634
  22963221.100    -6029651.48149  -4690203.66649  22963224.2484   22963230.3514
 96  7  9 19 24 59.9940000  0  6  6 16 24  5 17 25
  19744776.601   -28487263.73249 -21937029.46449  19744778.2444   19744782.4424
  19600754.443   -25190300.75049 -19611660.72549  19600755.6934   19600760.7664
  21021968.289    -6696564.61249  -5195194.98449  21021970.1984   21021974.8644
  20008624.521   -14910118.19449 -11401526.10449  20008625.4984   20008630.1844
  22419084.907    -8608745.97149  -6659272.64349  22419086.4924   22419093.2574
  22960202.692    -6045500.50249  -4702553.58349  22960209.6684   22960213.9874
 96  7  9 19 25 29.9940000  0  6  6 16 24  5 17 25
  19729883.888   -28565525.94049 -21998012.98849  19729885.3014   19729889.5374
  19589938.499   -25247140.14749 -19655951.14849  19589939.4544   19589944.7714
  21032898.717    -6639126.22849  -5150437.81749  21032900.5664   21032905.1574
  20020102.066   -14849801.86749 -11354526.39149  20020103.3034   20020107.9494
  22397094.016    -8724313.24749  -6749325.00949  22397094.7934   22397101.8204
  22957284.881    -6060835.53549  -4714502.98449  22957290.7454   22957295.0864
 96  7  9 19 25 59.9940000  0  6  6 16 24  5 17 25
  19715029.500   -28643585.58349 -22058838.67449  19715031.0024   19715035.5994
  19579238.481   -25303370.02149 -19699766.61949  19579239.7414   19579244.4544
  21043855.799    -6581544.73249  -5105569.14449  21043857.5554   21043862.7004
  20031658.181   -14789072.84049 -11307205.09949  20031659.7674   20031664.7974
  22375131.466    -8839721.55949  -6839253.52449  22375132.6514   22375140.8694
  22954469.184    -6075656.59249  -4726051.85949  22954470.4074   22954475.1454
 96  7  9 19 26 29.9940000  0  6  6 16 24  5 17 25
  19700211.473   -28721454.14549 -22119515.45349  19700213.2264   19700217.5754
  19568649.813   -25359012.14249 -19743124.10049  19568650.9904   19568656.2024
  21054840.519    -6523823.14949  -5060591.30549  21054842.2564   21054846.6954
  20043293.148   -14727932.14549 -11259563.02749  20043294.7984   20043299.1654
  22353200.104    -8954970.46449  -6929057.79749  22353202.2004   22353208.5824
  22951746.401    -6089969.86249  -4737205.08649  22951745.7024   22951752.2254
 96  7  9 19 26 59.9940000  0  6  6 16 24  5 17 25
  19685432.075   -28799119.99849 -22180034.28649  19685433.9344   19685438.1954
  19558173.360   -25414067.32749 -19786024.22249  19558174.3844   19558179.4764
  21065853.073    -6465949.09149  -5015494.65649  21065854.9804   21065860.0604
  20055005.619   -14666383.43349 -11211603.02049  20055006.6324   20055011.1714
  22331304.497    -9070037.17949  -7018720.12249  22331305.4294   22331312.2864
  22949120.054    -6103771.31649  -4747959.49249  22949119.7484   22949125.3864
 96  7  9 19 27 29.9940000  0  6  6 16 24  5 17 25
  19670695.111   -28876563.67249 -22240379.98949  19670696.6234   19670701.4784
  19547809.686   -25468528.17749 -19828461.23249  19547810.9604   19547816.0074
  21076895.814    -6407917.66049  -4970275.38049  21076898.2094   21076903.1164
  20066798.695   -14604411.80049 -11163313.46449  20066799.2804   20066804.3604
  22309446.278    -9184898.70749  -7108222.55949  22309449.3394   22309455.6854
  22946589.725    -6117050.27449  -4758306.75149  22946592.5114   22946599.0334
 96  7  9 19 27 59.9940000  0  6  6 16 24  5 17 25
  19656000.691   -28953782.91149 -22300550.81249  19656002.5534   19656006.8294
  19537560.787   -25522387.88749 -19870429.82049  19537561.8274   19537566.9734
  21087965.253    -6349749.53549  -4924949.58649  21087966.8894   21087972.4654
  20078669.132   -14542030.53049 -11114704.70849  20078670.1324   20078675.0174
  22287631.484    -9299537.66549  -7197551.56149  22287632.2454   22287640.5564
  22944168.438    -6129789.32949  -4768233.31049  22944169.3064   22944174.9904
 96  7  9 19 28 29.9940000  0  6  6 16 24  5 17 25
  19641351.960   -29030762.00049 -22360534.50549  19641353.7954   19641358.1444
  19527428.016   -25575635.14749 -19911921.17649  19527429.2034   19527434.0754
  21099057.981    -6291457.29049  -4879527.08549  21099059.5464   21099065.2154
  20090615.881   -14479249.84849 -11065784.72349  20090617.0644   20090621.5364
  22265859.163    -9413951.95749  -7286705.49249  22265860.9714   22265867.3834
  22941843.191    -6141993.52749  -4777743.10549  22941845.9134   22941851.3024
 96  7  9 19 28 59.9940000  0  6  6 16 24  5 17 25
  19626750.321   -29107496.15449 -22420327.33949  19626751.6344   19626755.6884
  19517414.083   -25628257.23749 -19952925.38949  19517415.3554   19517420.4324
  21110173.189    -6233047.24349  -4834012.79249  21110175.3004   21110180.1164
  20102637.394   -14416078.09349 -11016560.00449  20102638.4254   20102642.5044
  22244128.186    -9528146.30349  -7375688.06249  22244130.7364   22244136.8104
  22939626.074    -6153658.98249  -4786833.11049  22939627.7384   22939632.2534
 96  7  9 19 29 29.9940000  0  6  6 16 24  5 17 25
  19612193.231   -29183994.11749 -22479936.12649  19612194.7684   19612198.9884
  19507518.988   -25680256.45149 -19993444.24349  19507520.1354   19507525.3854
  21121307.576    -6174534.91149  -4788418.78649  21121309.7024   21121314.0454
  20114731.334   -14352521.63949 -10967035.52349  20114732.7894   20114736.8174
  22222437.973    -9642131.11549  -7464507.34449  22222439.6154   22222446.0934
  22937508.331    -6164781.10449  -4795499.73249  22937510.6444   22937516.0044
 96  7  9 19 29 59.9940000  0  6  6 16 24  5 17 25
  19597683.620   -29260240.86649 -22539349.17049  19597685.3224   19597689.5664
  19497744.508   -25731620.53249 -20033468.19049  19497745.8934   19497750.8814
  21132465.057    -6115899.17749  -4742728.62449  21132467.4664   21132472.0944
  20126903.887   -14288555.64449 -10917191.92449  20126905.2824   20126909.4384
  22200790.784    -9755891.63249  -7553151.86349  22200792.5484   22200798.5074
  22935496.209    -6175353.42149  -4803737.92349  22935499.7054   22935503.7424
 96  7  9 19 30 29.9940000  0  6  6 16 24  5 17 25
  19583214.548   -29336275.65249 -22598597.03849  19583216.3844   19583220.7534
  19488085.623   -25782381.68149 -20073022.32149  19488086.4914   19488091.4724
  21143645.201    -6057147.16649  -4696947.86749  21143647.5594   21143652.8454
  20139150.839   -14224200.08249 -10867044.75949  20139151.6014   20139155.9714
  22179180.348    -9869449.27949  -7641638.28149  22179182.3194   22179189.3264
  22933585.582    -6185406.24349  -4811571.31249  22933586.5874   22933590.1964
 96  7  9 19 30 59.9940000  0  6  6 16 24  5 17 25
  19568781.903   -29412122.31349 -22657698.32549  19568783.3204   19568787.5704
  19478536.800   -25832557.93349 -20112120.68449  19478538.3144   19478543.3204
  21154848.503    -5998273.20949  -4651072.08149  21154850.7584   21154855.8984
  20151469.975   -14159459.12549 -10816597.29449  20151471.3564   20151475.8564
  22157611.002    -9982792.72749  -7729957.79649  22157613.5894   22157620.7754
  22931771.375    -6194934.98549  -4818996.32849  22931773.2554   22931777.4204
 96  7  9 19 31 29.9940000  0  6  6 16 24  5 17 25
  19554382.287   -29487790.43449 -22716660.48649  19554384.0344   19554388.2704
  19469098.606   -25882158.08249 -20150770.13449  19469099.3864   19469104.5354
  21166074.636    -5939280.00849  -4605103.37049  21166077.2474   21166081.9874
  20163861.268   -14094343.45349 -10765857.83649  20163862.5964   20163866.7934
  22136084.323   -10095922.83249  -7818111.04649  22136085.6664   22136092.0724
  22930054.036    -6203957.83449  -4826027.15249  22930053.9754   22930060.1644
 96  7  9 19 31 59.9940000  0  6  6 16 24  5 17 25
  19540018.104   -29563275.17449 -22775479.75049  19540019.7074   19540024.0754
  19459771.599   -25931171.88949 -20188962.69649  19459772.5314   19459777.5524
  21177325.639    -5880156.04449  -4559032.77449  21177328.1384   21177332.9204
  20176321.716   -14028862.32249 -10714833.61949  20176323.0364   20176328.4284
  22114594.787   -10208848.54849  -7906105.05549  22114596.7884   22114602.5064
  22928430.131    -6212485.81149  -4832672.36149  22928433.1594   22928437.0644
 96  7  9 19 32 29.9940000  0  6  6 16 24  5 17 25
  19525688.012   -29638580.39449 -22834159.13249  19525689.6084   19525693.7124
  19450556.725   -25979593.91249 -20226694.12649  19450558.2234   19450563.0044
  21188598.879    -5820915.59249  -4512871.41149  21188600.9124   21188605.9754
  20188846.781   -13963040.03649 -10663543.55649  20188848.3904   20188853.4044
  22093139.960   -10321592.63849  -7993957.53649  22093142.1054   22093148.8564
  22926902.583    -6220522.33749  -4838934.59249  22926903.0514   22926908.9934
 96  7  9 19 32 59.9940000  0  6  6 16 24  5 17 25
  19511399.397   -29713666.26649 -22892667.59349  19511401.5214   19511405.3084
  19441460.455   -26027396.81549 -20263943.12849  19441461.5464   19441466.4134
  21199893.641    -5761559.84749  -4466620.19749  21199895.7074   21199901.3984
  20201440.403   -13896861.46749 -10611975.86449  20201441.3384   20201447.1304
  22071720.262   -10434154.48949  -8081667.99549  22071722.0264   22071728.4964
  22925466.018    -6228056.48649  -4844805.38349  22925469.2674   22925475.5514
 96  7  9 19 33 29.9940000  0  6  6 16 24  5 17 25
  19497156.527   -29788513.95949 -22950990.45749  19497158.1134   19497162.3124
  19432486.435   -26074554.69049 -20300689.50349  19432487.7834   19432492.6354
  21211209.623    -5702096.64949  -4420285.26249  21211211.7114   21211217.1194
  20214102.870   -13830317.94149 -10560123.79449  20214104.3294   20214109.9304
  22050334.633   -10546537.16349  -8169238.83149  22050336.3764   22050343.1774
  22924127.543    -6235102.70249  -4850295.96449  22924128.9804   22924133.7154
 96  7  9 19 33 59.9940000  0  6  6 16 24  5 17 25
  19482960.996   -29863111.38349 -23009118.31049  19482962.7414   19482966.8934
  19423636.300   -26121063.43749 -20336930.06749  19423637.3384   19423642.3384
  21222543.739    -5642533.43049  -4373872.38949  21222546.4894   21222551.2214
  20226835.927   -13763404.23449 -10507983.27149  20226837.5834   20226843.4654
  22028984.197   -10658735.93649  -8256666.37349  22028985.3954   22028992.7854
  22922878.029    -6241665.99649  -4855410.24449  22922881.7094   22922886.1454
 96  7  9 19 34 29.9940000  0  6  6 16 24  5 17 25
  19468813.078   -29937460.99749 -23067053.06449  19468814.7934   19468818.6124
  19414906.563   -26166937.21549 -20372675.85249  19414907.7434   19414912.9034
  21233896.257    -5582878.33949  -4327387.92649  21233898.2344   21233903.2144
  20239640.833   -13696117.65449 -10455552.20849  20239641.9784   20239646.9714
  22007673.981   -10770722.59249  -8343928.62249  22007675.1044   22007682.2414
  22921721.417    -6247748.81849  -4860150.12749  22921722.3284   22921728.3224
 96  7  9 19 34 59.9940000  0  6  6 16 24  5 17 25
  19454711.604   -30011566.29849 -23124797.44249  19454712.8894   19454717.1394
  19406296.548   -26212185.01049 -20407933.85749  19406297.4354   19406302.6424
  21245267.215    -5523126.41149  -4280828.00549  21245268.3994   21245273.7274
  20252515.769   -13628463.32049 -10402834.57649  20252516.5834   20252522.0144
  21986407.418   -10882479.08849  -8431011.53449  21986408.7004   21986415.4004
  22920652.296    -6253363.24649  -4864525.04149  22920654.5204   22920660.0934
 96  7  9 19 35 29.9940000  0  6  6 16 24  5 17 25
  19440647.499   -30085471.17749 -23182385.65249  19440649.2934   19440653.3314
  19397798.773   -26256840.42849 -20442730.27349  19397799.7024   19397805.0764
  21256653.026    -5463290.60449  -4234202.72849  21256655.1344   21256660.6494
  20265453.919   -13560471.75349 -10349854.17149  20265455.1334   20265460.4274
  21965181.231   -10994019.66749  -8517926.20149  21965182.9724   21965189.8074
  22919670.239    -6258535.16149  -4868555.14849  22919668.7604   22919675.9014
 96  7  9 19 35 59.9940000  0  6  6 16 24  5 17 25
  19426625.204   -30159159.98349 -23239805.49349  19426627.0824   19426631.1414
  19389413.413   -26300905.70949 -20477066.84649  19389414.4274   19389419.6564
  21268061.110    -5403343.24149  -4187490.52149  21268062.7264   21268067.5984
  20278458.504   -13492130.88449 -10296601.58049  20278459.3884   20278465.1374
  21943997.861   -11105337.02249  -8604666.92649  21944001.1104   21944006.1614
  22918774.490    -6263232.45249  -4872215.40849  22918775.9744   22918781.6914
 96  7  9 19 36 29.9940000  0  6  6 16 24  5 17 25
  19412639.590   -30232655.54949 -23297074.75849  19412641.1764   19412645.1544
  19381140.513   -26344377.98149 -20510941.33249  19381141.7104   19381147.1244
  21279490.476    -5343277.06249  -4140685.73749  21279492.8324   21279498.1014
  20291529.583   -13423444.67549 -10243079.89549  20291530.7624   20291535.5444
  21922855.481   -11216444.71149  -8691244.28549  21922857.4004   21922863.3464
  22917971.862    -6267449.97249  -4875501.84249  22917974.1594   22917980.7004
 96  7  9 19 36 59.9940000  0  6  6 16 24  5 17 25
  19398690.536   -30305959.61549 -23354194.80649  19398691.9984   19398695.8004
  19372983.797   -26387244.70249 -20544343.96249  19372984.8284   19372989.7944
  21290942.605    -5283101.78349  -4093795.92049  21290943.6044   21290949.0054
  20304665.549   -13354414.35449 -10189290.07049  20304666.6224   20304671.7124
  21901746.156   -11327370.97949  -8777680.27949  21901747.5164   21901754.9804
  22917261.298    -6271185.41049  -4878412.61249  22917263.1804   22917268.8434
 96  7  9 19 37 29.9940000  0  6  6 16 24  5 17 25
  19384778.434   -30379065.78249 -23411160.63949  19384779.9334   19384784.1694
  19364940.644   -26429511.11849 -20577278.81949  19364941.7594   19364946.6824
  21302411.505    -5222823.41649  -4046825.80149  21302414.5374   21302419.7804
  20317869.489   -13285026.93649 -10135221.98749  20317870.7584   20317875.8954
  21880671.190   -11438122.68249  -8863980.24149  21880672.0404   21880679.4524
  22916642.760    -6274435.66449  -4880945.30949  22916643.6854   22916650.8624
 96  7  9 19 37 59.9940000  0  5  6 16 24  5 17
  19370906.923   -30451961.72949 -23467962.66549  19370908.4154   19370912.5664
  19357011.438   -26471181.37649 -20609749.13649  19357012.1234   19357017.1204
  21313900.132    -5162457.49349  -3999787.43749  21313901.9944   21313906.9454
  20331141.399   -13215282.76549 -10080875.91349  20331142.5644   20331147.2414
  21859628.363   -11548702.51149  -8950146.28749  21859630.3654   21859636.1964
 96  7  9 19 38 29.9940000  0  5  6 16 24  5 17
  19357080.080   -30524620.70749 -23524580.04349  19357081.5904   19357085.8434
  19349200.410   -26512226.20249 -20641732.10249  19349201.3764   19349206.0624
  21325404.955    -5101997.83549  -3952676.03349  21325407.0844   21325411.7514
  20344483.297   -13145172.10049 -10026244.27049  20344484.2234   20344489.0924
  21838625.550   -11659073.39149  -9036149.54149  21838627.1654   21838634.4934
 96  7  9 19 38 59.9940000  0  5  6 16 24  5 17
  19343299.302   -30597039.41149 -23581010.18749  19343301.0074   19343305.1094
  19341501.290   -26552686.01149 -20673259.21049  19341502.3614   19341507.2124
  21336921.869    -5041475.12449  -3905515.51049  21336923.9464   21336929.0204
  20357889.270   -13074720.33049  -9971346.81949  20357890.6674   20357895.3034
  21817660.700   -11769244.60749  -9121997.17949  21817662.4094   21817668.8534
 96  7  9 19 39 29.9940000  0  5  6 16 24  5 17
  19329563.772   -30669220.99449 -23637255.56449  19329565.3984   19329569.8934
  19333911.920   -26592567.44049 -20704335.63649  19333913.0594   19333918.0774
  21348452.147    -4980883.69249  -3858301.43149  21348454.3174   21348459.0514
  20371361.282   -13003929.77749  -9916185.38849  20371361.9124   20371366.3184
  21796735.460   -11879210.73549  -9207685.02049  21796735.9654   21796743.2324
 96  7  9 19 39 59.9940000  0  5  6 16 24  5 17
  19315872.576   -30741167.73149 -23693317.94449  19315874.3694   19315878.4464
  19326438.215   -26631843.53849 -20734940.37449  19326439.1314   19326444.0494
  21359997.870    -4920212.97949  -3811025.56649  21359999.9964   21360004.6504
  20384894.421   -12932806.21449  -9860764.46949  20384896.0454   20384900.8884
  21775850.980   -11988960.16149  -9293204.01149  21775852.3894   21775858.4934
 96  7  9 19 40 29.9940000  0  5  6 16 24  5 17
  19302222.154   -30812902.68749 -23749215.30449  19302223.6294   19302227.7844
  19319077.569   -26670525.44249 -20765082.11149  19319078.1134   19319083.3314
  21371555.687    -4859471.42949  -3763694.51849  21371558.4674   21371562.4994
  20398489.334   -12861364.01249  -9805095.25549  20398490.8444   20398495.9394
  21755001.894   -12098514.90749  -9378571.29949  21755003.6314   21755010.2794
 96  7  9 19 40 59.9940000  0  5  6 16 24  5 17
  19288607.058   -30884450.00349 -23804966.44349  19288608.5234   19288612.7374
  19311827.564   -26708622.85149 -20794768.39249  19311828.4074   19311833.5334
  21383127.188    -4798664.54249  -3716312.55049  21383128.7124   21383135.1674
  20412146.360   -12789601.11749  -9749176.15249  20412146.8664   20412151.8234
  21734186.793   -12207904.05349  -9463809.55049  21734188.3574   21734194.8284
 96  7  9 19 41 29.9940000  0  5  6 16 24  5 17
  19275032.075   -30955786.41149 -23860553.24949  19275033.5704   19275037.7584
  19304696.782   -26746096.08349 -20823968.30449  19304697.5694   19304702.2894
  21394715.800    -4737767.84949  -3668860.61049  21394717.4134   21394722.8184
  20425865.680   -12717502.37249  -9692995.35049  20425867.4634   20425871.6904
  21713406.225   -12317105.69349  -9548901.69849  21713408.9844   21713414.3824
 96  7  9 19 41 59.9940000  0  5  6 16 24  5 17
  19261501.478   -31026891.85649 -23915960.07849  19261502.8614   19261507.0474
  19297685.297   -26782942.98449 -20852680.16649  19297685.8744   19297690.8124
  21406321.693    -4676781.00949  -3621338.41949  21406323.0344   21406328.3754
  20439647.621   -12645078.62749  -9636561.30949  20439648.7674   20439653.5854
  21692664.132   -12426106.61349  -9633837.43449  21692664.7364   21692671.7404
 96  7  9 19 42 29.9940000  0  5  6 16 24  5 17
  19248019.542   -31097740.27349 -23971166.62849  19248020.9564   19248024.9524
  19290793.952   -26819158.45949 -20880900.01449  19290794.4464   19290799.2144
  21417944.590    -4615699.77649  -3573742.68449  21417946.4744   21417951.1944
  20453492.895   -12572322.32749  -9579868.13349  20453493.8754   20453498.5214
  21671963.133   -12534893.89249  -9718606.71249  21671964.0164   21671969.7854
 96  7  9 19 42 59.9940000  0  5  6 16 24  5 17
  19234587.229   -31168326.29449 -24026168.70949  19234588.6584   19234592.9114
  19284022.544   -26854741.41349 -20908626.98249  19284023.3794   19284027.7904
  21429585.309    -4554525.78149  -3526074.65849  21429586.6484   21429592.4384
  20467399.238   -12499249.62549  -9522928.40949  20467399.4924   20467404.2124
  21651305.952   -12643445.39449  -9803192.26849  21651307.4644   21651313.1944
 96  7  9 19 43 29.9940000  0  5  6 16 24  5 17
  19221204.737   -31238649.69749 -24080966.15749  19221206.4884   19221210.6564
  19277370.424   -26889696.32449 -20935864.56749  19277371.6434   19277376.2724
  21441240.639    -4493275.88849  -3478347.49249  21441243.1254   21441247.7824
  20481358.823   -12425886.80049  -9465762.61649  20481360.0994   20481364.5544
  21630696.628   -12751747.30449  -9887583.32649  21630698.1604   21630704.1264
 96  7  9 19 43 59.9940000  0  5  6 16 24  5 17
  19207869.746   -31308725.50149 -24135570.67149  19207871.4234   19207875.1984
  19270837.934   -26924023.83449 -20962613.26949  19270838.9824   19270843.9884
  21452910.256    -4431952.65749  -3430563.17549  21452911.9824   21452917.2014
  20495374.791   -12352230.77949  -9408368.36449  20495376.3734   20495381.0274
  21610133.799   -12859804.19849  -9971783.46649  21610136.3484   21610141.5684
 96  7  9 19 44 29.9940000  0  5  6 16 24  5 17
  19194579.452   -31378566.07149 -24189991.87849  19194580.9894   19194585.4314
  19264425.986   -26957719.17449 -20988869.36849  19264426.9634   19264431.8414
  21464594.313    -4370553.26349  -3382719.51049  21464596.1374   21464600.9424
  20509448.735   -12278272.79249  -9350738.79949  20509449.8024   20509454.5704
  21589618.021   -12967615.27049 -10055792.06049  21589620.2694   21589625.9024
 96  7  9 19 44 59.9940000  0  5  6 16 24  5 17
  19181332.234   -31448181.30549 -24244237.50349  19181334.0744   19181338.0484
  19258132.837   -26990789.43349 -21014638.39249  19258133.6464   19258138.7274
  21476292.836    -4309076.18749  -3334815.32549  21476294.6124   21476300.0924
  20523578.800   -12204019.59649  -9292879.20949  20523579.6964   20523584.4144
  21569148.682   -13075183.91449 -10139611.74249  21569150.1644   21569156.4964
 96  7  9 19 45 29.9940000  0  5  6 16 24  5 17
  19168128.976   -31517566.03849 -24298303.51649  19168130.3994   19168134.3394
  19251959.161   -27023230.90949 -21039917.45949  19251960.4904   19251964.9594
  21488005.488    -4247522.25249  -3286851.23749  21488008.0194   21488013.3304
  20537765.842   -12129464.92749  -9234784.71349  20537768.3224   20537772.0964
  21548722.212   -13182524.61249 -10223253.82649  21548723.9584   21548730.2624
 96  7  9 19 45 59.9940000  0  5  6 16 24  5 17
  19154972.633   -31586701.16449 -24352175.02849  19154974.4694   19154978.5594
  19245903.839   -27055051.35449 -21064712.60649  19245905.1034   19245909.9734
  21499738.460    -4185869.47049  -3238810.13249  21499740.1534   21499745.1204
  20552013.383   -12054592.95149  -9176442.95849  20552014.7314   20552019.6774
  21528339.252   -13289636.31049 -10306717.44849  21528340.9154   21528347.2014
 96  7  9 19 46 29.9940000  0  5  6 16 24  5 17
  19141864.250   -31655586.51849 -24405851.91349  19141865.8554   19141870.1454
  19239961.702   -27086279.41849 -21089046.15549  19239962.7924   19239967.4764
  21511484.952    -4124136.56149  -3190706.60449  21511488.4284   21511492.6914
  20566316.511   -11979430.45149  -9117874.82249  20566317.7554   20566322.8234
  21507997.182   -13396532.81549 -10390013.38649  21507999.0874   21508005.0364
 96  7  9 19 46 59.9940000  0  5  6 16 24  5 17
  19128808.478   -31724197.01549 -24459314.62849  19128809.8374   19128813.9494
  19234134.741   -27116901.24049 -21112907.30549  19234135.6924   19234140.4484
  21523251.183    -4062311.95049  -3142531.60049  21523252.8154   21523258.0564
  20580676.159   -11903971.33149  -9059075.54549  20580677.8904   20580682.3654
  21487698.140   -13503205.92949 -10473135.24649  21487700.7884   21487706.4024
 96  7  9 19 47 29.9940000  0  5  6 16 24  5 17
  19115802.892   -31792540.80849 -24512569.51949  19115804.3314   19115808.4304
  19228420.005   -27146930.09849 -21136306.40949  19228421.6424   19228426.0394
  21535029.748    -4000409.64549  -3094296.06949  21535032.9674   21535037.4544
  20595092.422   -11828216.30149  -9000045.69449  20595093.2754   20595098.3974
  21467437.786   -13609674.09649 -10556097.41949  21467439.9184   21467446.1204
 96  7  9 19 47 59.9940000  0  5  6 16 24  5 17
  19102844.706   -31860635.71649 -24565630.47749  19102846.3514   19102850.5454
  19222816.000   -27176381.89749 -21159255.85649  19222816.8464   19222821.5944
  21546821.484    -3938451.89349  -3046017.32849  21546822.7714   21546827.5254
  20609559.029   -11752192.69849  -8940806.57449  20609560.3574   20609565.1444
  21447211.980   -13715961.94949 -10638919.07549  21447213.9324   21447220.5194
 96  7  9 19 48 29.9940000  0  5  6 16 24  5 17
  19089934.441   -31928479.57349 -24618495.81049  19089936.1654   19089940.1934
  19217329.927   -27205212.05949 -21181720.91149  19217330.7554   19217335.4724
  21558619.905    -3876437.63049  -2997694.55849  21558623.8514   21558628.5164
  20624078.032   -11675892.46449  -8881351.89049  20624080.1824   20624084.8214
  21427022.768   -13822056.92349 -10721590.45649  21427024.8594   21427031.0264
 96  7  9 19 48 59.9940000  0  5  6 16 24  5 17
  19077069.170   -31996086.84149 -24671176.79149  19077070.7124   19077075.1114
  19211963.670   -27233408.54749 -21203692.19049  19211965.1534   19211969.6674
  21570432.760    -3814373.09249  -2949332.60649  21570434.5274   21570438.4554
  20638650.899   -11599312.43849  -8821679.19449  20638652.5954   20638657.3594
  21406870.415   -13927961.85549 -10804113.74649  21406871.5404   21406877.4924
 96  7  9 19 49 29.9940000  0  5  6 16 24  5 17
  19064249.546   -32063454.73049 -24723671.24249  19064251.2304   19064255.3824
  19206719.126   -27260972.81549 -21225170.83649  19206719.7244   19206724.3434
  21582249.147    -3752276.59249  -2900945.74949  21582250.8764   21582255.0874
  20653277.986   -11522450.36549  -8761786.71549  20653279.0874   20653283.8214
  21386752.131   -14033683.01149 -10886493.81249  21386753.5114   21386759.8394
 96  7  9 19 49 59.9940000  0  5  6 16 24  5 17
  19051478.706   -32130566.89849 -24775966.42749  19051480.4844   19051484.5114
  19201596.788   -27287888.30749 -21246143.93849  19201597.8374   19201602.5834
  21594072.531    -3690144.04849  -2852530.81149  21594074.5264   21594080.1284
  20667958.835   -11445300.30849  -8701669.83049  20667960.4144   20667965.3864
  21366672.867   -14139199.23549 -10968714.21249  21366673.7844   21366680.7684
 96  7  9 19 50 29.9940000  0  5  6 16 24  5 17
  19038751.963   -32197445.54649 -24828079.65249  19038753.4594   19038757.6094
  19196595.824   -27314168.42749 -21266621.95149  19196596.7094   19196601.4434
  21605899.228    -3627987.57849  -2804097.23749  21605901.7484   21605906.1644
  20682693.979   -11367863.59149  -8641329.57949  20682695.4084   20682701.1324
  21346633.138   -14244506.83149 -11050772.03449  21346635.3044   21346640.6914
 96  7  9 19 50 59.9940000  0  5  6 16 24  5 17
  19026070.620   -32264087.35549 -24880008.32249  19026072.0834   19026076.0794
  19191711.468   -27339835.58449 -21286622.32149  19191712.4934   19191717.4804
  21617733.391    -3565803.86749  -2755642.42549  21617735.2644   21617740.2174
  20697484.708   -11290138.87049  -8580764.89849  20697485.6534   20697491.1794
  21326633.539   -14349605.56649 -11132667.11149  21326635.0224   21326640.7744
 96  7  9 19 51 29.9940000  0  5  6 16 24  5 17
  19013442.075   -32330450.26049 -24931719.67049  19013443.6004   19013447.8264
  19186947.684   -27364871.17049 -21306130.56449  19186948.2644   19186953.0424
  21629578.679    -3503560.41649  -2707141.07449  21629580.5744   21629584.7574
  20712334.664   -11212105.12049  -8519959.43849  20712335.5664   20712340.9714
  21306680.192   -14454459.86349 -11214371.71749  21306682.5574   21306687.7844
 96  7  9 19 51 59.9930000  0  5  6 16 24  5 17
  19000863.955   -32396549.69949 -24983225.71049  19000865.4694   19000869.5354
  19182304.109   -27389272.95049 -21325144.92449  19182305.1494   19182309.6094
  21641436.464    -3441240.59549  -2658580.19449  21641439.8034   21641444.6744
  20727238.557   -11133782.46649  -8458928.84349  20727240.2324   20727244.9024
  21286778.318   -14559045.80149 -11295867.21349  21286780.2284   21286785.9704
 96  7  9 19 52 29.9930000  0  5  6 16 24  5 17
  18988334.119   -32462392.44349 -25034531.74049  18988335.7494   18988340.2544
  19177778.311   -27413056.93749 -21343677.89249  19177779.3164   19177783.7184
  21653310.874    -3378840.53849  -2609956.81749  21653313.5154   21653317.8914
  20742193.769   -11055194.47949  -8397691.49949  20742194.5194   20742200.2164
  21266923.759   -14663382.53949 -11377168.51949  21266925.6494   21266930.7844
 96  7  9 19 52 59.9930000  0  5  6 16 24  5 17
  18975859.108   -32527950.12349 -25085615.63349  18975860.6994   18975864.8754
  19173368.191   -27436231.39149 -21361735.89549  19173369.2494   19173373.7524
  21665199.509    -3316363.97049  -2561273.80149  21665202.4214   21665207.3044
  20757196.274   -10976354.87849  -8336258.08949  20757196.9524   20757202.6144
  21247114.326   -14767481.41249 -11458284.48549  21247116.4134   21247122.0324
 96  7  9 19 53 29.9930000  0  5  6 16 24  5 17
  18963438.677   -32593219.18149 -25136474.63049  18963440.3324   18963444.5174
  19169075.104   -27458791.89749 -21379315.49949  19169076.0824   19169080.5434
  21677101.035    -3253821.43849  -2512539.38949  21677104.1334   21677109.1604
  20772245.751   -10897267.09349  -8274631.28749  20772247.6164   20772252.0014
  21227349.993   -14871347.39349 -11539218.96749  21227351.0714   21227357.0374
 96  7  9 19 53 59.9930000  0  5  6 16 24  5 17
  18951072.017   -32658207.31549 -25187114.72449  18951073.6664   18951077.8084
  19164900.625   -27480730.14549 -21396410.23249  19164901.2994   19164905.9374
  21689016.760    -3191211.69549  -2463752.61549  21689018.7364   21689022.3924
  20787344.101   -10817925.86449  -8212807.00249  20787345.3644   20787350.8074
  21207626.954   -14974989.55649 -11619979.05749  21207629.0994   21207634.2404
 96  7  9 19 54 29.9930000  0  5  6 16 24  5 17
  18938761.458   -32722901.58149 -25237525.83049  18938762.4414   18938766.7434
  19160843.533   -27502048.61149 -21413022.01049  19160844.4624   19160849.1344
  21700939.674    -3128550.08949  -2414925.41749  21700942.2764   21700947.5794
  20802493.427   -10738314.93149  -8150772.55849  20802495.1354   20802499.9234
  21187942.161   -15078430.51449 -11700582.36249  21187944.3494   21187950.9934
 96  7  9 19 54 59.9930000  0  5  6 16 24  5 17
  18926503.770   -32787314.70449 -25287717.86549  18926505.2514   18926509.6614
  19156909.249   -27522723.39149 -21429132.21649  19156910.1954   19156914.9994
  21712873.345    -3065838.53349  -2366059.31449  21712875.6284   21712881.5254
  20817699.936   -10658407.10649  -8088506.77549  20817700.5494   20817705.8334
  21168299.935   -15181655.55049 -11781017.41649  21168301.6224   21168307.3634
 96  7  9 19 55 29.9930000  0  5  6 16 24  5 17
  18914296.429   -32851464.14349 -25337704.43549  18914297.9254   18914302.1294
  19153099.587   -27542742.56249 -21444731.55949  19153100.5324   19153105.1884
  21724817.535    -3003075.95349  -2317153.44049  21724819.0904   21724823.7124
  20832962.031   -10578206.54549  -8026012.88049  20832962.8734   20832967.5154
  21148700.907   -15284650.05449 -11861272.83249  21148702.9394   21148708.4304
 96  7  9 19 55 59.9930000  0  5  6 16 24  5 17
  18902141.951   -32915334.97249 -25387473.90249  18902143.6874   18902147.9084
  19149417.675   -27562091.81749 -21459808.89149  19149418.5994   19149423.2894
  21736774.976    -2940238.10549  -2268188.92449  21736777.0544   21736781.9354
  20848278.091   -10497712.32549  -7963290.16649  20848280.5194   20848285.0214
  21129148.427   -15387394.64649 -11941333.51549  21129150.7294   21129156.4074
 96  7  9 19 56 29.9930000  0  5  6 16 24  5 17
  18890040.325   -32978928.82449 -25437027.54949  18890042.1034   18890046.0984
  19145860.983   -27580782.86249 -21474373.33249  19145862.1144   19145866.4494
  21748744.087    -2877340.93149  -2219178.16949  21748745.9614   21748750.4184
  20863647.786   -10416953.03549  -7900360.90449  20863649.2194   20863652.3514
  21109643.800   -15489893.21049 -12021202.47849  21109645.5994   21109651.1814
 96  7  9 19 56 59.9930000  0  5  6 16 24  5 17
  18877992.227   -33042242.64749 -25486362.98649  18877994.0534   18877997.9694
  19142427.356   -27598824.77049 -21488431.94949  19142428.4674   19142433.1454
  21760727.055    -2814369.22149  -2170109.34049  21760729.1184   21760733.9444
  20879060.636   -10335954.43349  -7837245.16749  20879062.5224   20879067.0214
  21090187.393   -15592138.10749 -12100873.77649  21090189.7984   21090194.7964
 96  7  9 19 57 29.9930000  0  5  6 16 24  5 17
  18865999.866   -33105263.92249 -25535470.46049  18866001.3714   18866005.4834
  19139112.621   -27616247.62649 -21502008.18949  19139112.9784   19139117.8384
  21772724.843    -2751324.07949  -2120983.28649  21772727.1414   21772731.3544
  20894514.277   -10254741.18449  -7773962.16749  20894516.3664   20894520.2484
  21070778.703   -15694131.36549 -12180349.00249  21070780.1174   21070785.5184
 96  7  9 19 57 59.9930000  0  5  6 16 24  5 17
  18854061.255   -33168002.42849 -25584357.59949  18854062.3164   18854066.7304
  19135911.840   -27633066.66849 -21515113.92549  19135912.6934   19135917.2314
  21784732.037    -2688213.71449  -2071806.41549  21784735.2184   21784741.0144
  20910007.856   -10173329.82349  -7710524.81049  20910008.1574   20910012.7874
  21051417.018   -15795876.11749 -12259630.57949  21051419.0484   21051424.7304
 96  7  9 19 58 29.9930000  0  5  6 16 24  5 17
  18842174.664   -33230465.56249 -25633030.16149  18842176.3154   18842180.4704
  19132825.062   -27649286.06949 -21527752.40449  19132826.0714   19132830.6374
  21796753.618    -2625051.81149  -2022589.38049  21796755.1374   21796760.2314
  20925539.058   -10091709.35749  -7646924.49749  20925540.2064   20925544.1814
  21032103.992   -15897370.77949 -12338717.27349  21032104.8394   21032110.4754
 96  7  9 19 58 59.9930000  0  5  6 16 24  5 17
  18830340.738   -33292654.86449 -25681489.34849  18830342.0774   18830346.1614
  19129852.891   -27664906.67049 -21539924.29049  19129853.5494   19129858.1984
  21808782.242    -2561838.59249  -1973332.36049  21808783.7934   21808789.0954
  20941113.356   -10009864.54349  -7583149.37149  20941114.7334   20941118.4754
  21012838.302   -15998613.36749 -12417607.54649  21012839.2844   21012844.6804
 96  7  9 19 59 29.9930000  0  5  6 16 24  5 17
  18818558.802   -33354570.63649 -25729735.40049  18818559.9034   18818564.1834
  19126996.883   -27679913.00749 -21551617.53649  19126998.0384   19127002.4634
  21820820.192    -2498586.22349  -1924044.81249  21820820.4254   21820826.0714
  20956734.832    -9927774.08249  -7519182.83449  20956735.7984   20956739.4294
  20993621.179   -16099597.25849 -12496296.23849  20993622.6414   20993628.2704
 96  7  9 19 59 59.9930000  0  5  6 16 24  5 17
  18806826.217   -33416224.01249 -25777776.98449  18806827.5744   18806831.8614
  19124258.422   -27694303.66349 -21562831.02749  19124259.5464   19124264.1434
  21832858.553    -2435315.88749  -1874743.29649  21832860.3874   21832865.8714
  20972402.698    -9845443.88749  -7455029.49649  20972403.8634   20972407.0084
  20974448.151   -16200352.99049 -12574807.14649  20974449.3884   20974454.7804
 96  7  9 20  0 29.9930000  0  5  6 16 24  5 17
  18795147.256   -33477596.96649 -25825600.05849  18795148.7574   18795152.8344
  19121638.769   -27708072.92949 -21573560.32149  19121639.1704   19121644.0344
  21844902.235    -2372027.61849  -1825427.80649  21844904.7574   21844909.1174
  20988118.841    -9762852.58649  -7390672.70749  20988119.9554   20988124.0974
  20955316.811   -16300889.73949 -12653147.41449  20955318.4514   20955323.6024
 96  7  9 20  0 59.9930000  0  5  6 16 24  5 17
  18783528.591   -33538655.14749 -25873177.85449  18783529.8034   18783534.0444
  19119138.997   -27721206.36549 -21583794.15949  19119139.7924   19119144.5804
  21856954.671    -2308690.30949  -1776074.10149  21856957.0174   21856962.4764
  21003887.275    -9679990.43649  -7326104.85449  21003887.9814   21003892.1144
  20936231.088   -16401184.65549 -12731299.26049  20936232.9254   20936237.9424
 96  7  9 20  1 29.9930000  0  5  6 16 24  5 17
  18771966.676   -33599413.11349 -25920521.71849  18771968.1584   18771971.9834
  19116759.004   -27733716.51249 -21593542.32149  19116759.6514   19116764.1694
  21869013.198    -2245320.36249  -1726694.95549  21869015.0614   21869021.6804
  21019703.487    -9596878.30949  -7261342.21749  21019703.9154   21019708.2984
  20917189.069   -16501251.94849 -12809273.70749  20917190.3554   20917195.8514
 96  7  9 20  1 59.9930000  0  5  6 16 24  5 17
  18760460.828   -33659877.90549 -25967637.13249  18760462.0974   18760465.9074
  19114493.799   -27745617.42449 -21602815.75149  19114494.8534   19114499.6524
  21881076.525    -2181930.83449  -1677300.55349  21881078.7584   21881083.5924
  21035561.455    -9513542.90849  -7196405.61149  21035561.5424   21035566.5304
  20898186.545   -16601106.45549 -12887082.36149  20898188.2574   20898193.7294
 96  7  9 20  2 29.9930000  0  5  6 16 24  5 17
  18749006.693   -33720068.09749 -26014538.57749  18749008.1984   18749011.9034
  19112341.292   -27756931.47149 -21611631.88549  19112341.8494   19112346.5644
  21893142.893    -2118523.03249  -1627891.93349  21893145.3154   21893150.5384
  21051457.258    -9430004.56949  -7131310.85249  21051459.3484   21051462.8634
  20879224.647   -16700752.62949 -12964728.68049  20879226.3644   20879232.4274
 96  7  9 20  2 59.9930000  0  5  6 16 24  5 17
  18737603.747   -33779991.11849 -26061231.83249  18737604.9384   18737609.1654
  19110298.753   -27767664.13949 -21619994.99749  19110299.3024   19110303.9764
  21905210.741    -2055102.10649  -1578473.07649  21905212.3564   21905216.9904
  21067387.586    -9346291.28249  -7066079.77649  21067388.2664   21067393.5084
  20860302.985   -16800185.67949 -13042208.93149  20860305.3944   20860310.1614
 96  7  9 20  3 29.9930000  0  5  6 16 24  5 17
  18726246.557   -33839673.22749 -26107737.36749  18726248.0854   18726252.0454
  19108361.923   -27777841.30049 -21627925.24749  19108362.7874   19108367.4214
  21917276.628    -1991701.64849  -1529070.15749  21917277.9664   21917283.1104
  21083343.840    -9262442.35649  -7000743.01249  21083344.4684   21083349.4334
  20841416.324   -16899437.86749 -13119548.25449  20841417.4334   20841423.1994
 96  7  9 20  3 59.9930000  0  5  6 16 24  5 17
  18714939.366   -33899092.95149 -26154038.44449  18714941.1124   18714944.7524
  19106532.641   -27787453.48449 -21635415.25649  19106533.5704   19106538.4774
  21929342.437    -1928295.98449  -1479663.18449  21929343.9354   21929348.7504
  21099327.709    -9178449.75449  -6935294.29249  21099327.2694   21099333.5514
  20822568.167   -16998486.57949 -13196729.01249  20822569.6964   20822574.4994
 96  7  9 20  4 29.9930000  0  5  6 16 24  5 17
  18703681.609   -33958253.39949 -26200137.48849  18703683.2094   18703686.8064
  19104808.959   -27796512.23649 -21642474.02149  19104809.8204   19104814.4504
  21941408.725    -1864882.67249  -1430250.25749  21941411.5134   21941416.7844
  21115338.673    -9094309.40849  -6869730.45049  21115339.8464   21115344.8164
  20803758.810   -17097326.66849 -13273747.21649  20803760.9604   20803766.0954
 96  7  9 20  4 59.9930000  0  5  6 16 24  5 17
  18692472.339   -34017157.78849 -26246037.00349  18692473.7754   18692477.6714
  19103188.958   -27805023.01849 -21649105.79549  19103190.2284   19103195.0984
  21953473.119    -1801485.84149  -1380850.16649  21953475.8064   21953480.5644
  21131376.079    -9010035.86549  -6804062.82349  21131376.2814   21131382.8864
  20784989.488   -17195963.65649 -13350607.15949  20784990.7524   20784996.3154
 96  7  9 20  5 29.9930000  0  5  6 16 24  5 17
  18681313.317   -34075799.76649 -26291732.04649  18681314.5024   18681318.4134
  19101676.301   -27812973.18449 -21655300.72549  19101677.2484   19101682.0174
  21965534.928    -1738096.18249  -1331455.68249  21965537.3324   21965543.2504
  21147440.503    -8925607.63549  -6738274.66749  21147442.1204   21147447.6274
  20766258.944   -17294390.69849 -13427303.51149  20766261.2494   20766266.0734
 96  7  9 20  5 59.9930000  0  5  6 16 24  5 17
  18670197.403   -34134213.43849 -26337249.18649  18670199.2894   18670202.7274
  19100267.226   -27820379.39449 -21661071.79549  19100268.1794   19100272.8954
  21977594.992    -1674733.72549  -1282082.37349  21977593.9504   21977599.7474
  21163536.156    -8841028.60149  -6672368.98849  21163537.1744   21163543.7784
  20747564.400   -17392630.96849 -13503854.32849  20747566.6024   20747572.1864
 96  7  9 20  6 29.9930000  0  5  6 16 24  5 17
  18659123.568   -34192407.30049 -26382595.04649  18659125.2344   18659128.5994
  19098960.492   -27827242.29349 -21666419.50749  19098962.0204   19098966.6684
  21989641.370    -1611419.07349  -1232746.32149  21989643.3164   21989648.6594
  21179657.996    -8756306.80649  -6606352.07849  21179658.7364   21179666.0614
  20728902.079   -17490703.21749 -13580274.21549  20728903.7704   20728909.1354
 96  7  9 20  6 59.9930000  0  5  6 16 24  5 17
  18648095.860   -34250359.79449 -26427752.83049  18648097.0344   18648100.5084
  19097762.405   -27833542.23949 -21671328.55449  19097763.3214   19097767.6814
  22001683.159    -1548145.69049  -1183442.44449  22001684.4374   22001689.1524
  21195808.622    -8671437.39649  -6540220.13749  21195809.8974   21195816.1264
  20710271.993   -17588603.98749 -13656560.50849  20710273.6024   20710279.1174
 96  7  9 20  7 29.9930000  0  5  6 16 24  5 17
  18637113.339   -34308073.76749 -26472724.74749  18637114.6674   18637117.9404
  19096669.631   -27839286.85449 -21675804.87349  19096670.0624   19096674.5764
  22013716.486    -1484911.26249  -1134168.90349  22013717.0014   22013722.7884
  21211987.155    -8586415.69749  -6473969.53249  21211988.8414   21211995.0074
  20691672.520   -17686347.86849 -13732724.53549  20691674.2214   20691679.1054
 96  7  9 20  7 59.9930000  0  5  6 16 24  5 17
  18626180.878   -34365522.28949 -26517489.82349  18626182.5004   18626186.1514
  19095683.461   -27844466.48149 -21679840.94649  19095684.5744   19095688.8734
  22025744.157    -1421703.71049  -1084916.30649  22025744.8984   22025750.7654
  21228196.834    -8501234.80349  -6407594.88949  21228197.5534   21228205.2564
  20673103.891   -17783923.43849 -13808757.40649  20673105.5494   20673110.9694
 96  7  9 20  8 29.9930000  0  5  6 16 24  5 17
  18615302.109   -34422689.40649 -26562035.62049  18615303.6634   18615307.4144
  19094803.610   -27849090.01449 -21683443.69449  19094804.4904   19094809.0744
  22037765.349    -1358537.28949  -1035695.74849  22037765.7224   22037770.4484
  21244431.913    -8415918.45149  -6341114.69249  21244433.3604   21244440.1804
  20654567.423   -17881333.49449 -13884661.31749  20654568.8834   20654574.6174
 96  7  9 20  8 59.9930000  0  5  6 16 24  5 17
  18604477.700   -34479572.16349 -26606359.84349  18604478.9114   18604482.9334
  19094029.044   -27853158.23849 -21686613.73849  19094030.5014   19094034.8034
  22049777.247    -1295404.35649   -986501.31149  22049779.4704   22049785.2894
  21260694.228    -8330463.07649  -6274526.16449  21260695.4364   21260702.1154
  20636064.237   -17978567.16049 -13960427.79549  20636066.0574   20636071.4214
 96  7  9 20  9 29.9930000  0  5  6 16 24  5 17
  18593696.868   -34536227.48449 -26650506.83949  18593698.2294   18593701.6264
  19093353.279   -27856712.14249 -21689383.00849  19093353.9924   19093358.6584
  22061779.053    -1232336.16649   -937357.30649  22061780.1264   22061785.8494
  21276975.802    -8244903.25749  -6207856.24149  21276977.0344   21276983.0104
  20617589.524   -18075652.05449 -14036078.33149  20617591.5954   20617597.2354
 96  7  9 20  9 59.9930000  0  5  6 16 24  5 17
  18582953.429   -34592682.65049 -26694497.87349  18582955.1004   18582958.7324
  19092772.314   -27859765.33249 -21691762.12049  19092772.8434   19092777.3274
  22073764.912    -1169355.63649   -888281.62449  22073765.6954   22073770.7824
  21293269.085    -8159281.50649  -6141138.07549  21293270.4334   21293277.4494
  20599141.030   -18172599.81549 -14111622.01649  20599142.8044   20599148.0654
 96  7  9 20 10 29.9930000  0  5  6 16 24  5 17
  18572248.183   -34648940.68649 -26738335.29249  18572249.4614   18572253.1234
  19092288.976   -27862305.49949 -21693741.46849  19092289.6634   19092294.0834
  22085734.068    -1106453.82949   -839267.27349  22085735.3344   22085741.6774
  21309574.330    -8073597.70849  -6074371.54949  21309574.8524   21309582.6524
  20580720.184   -18269403.45849 -14187053.40149  20580721.5084   20580727.2274
 96  7  9 20 10 59.9930000  0  5  6 16 24  5 17
  18561579.602   -34705002.69349 -26782019.96949  18561580.7624   18561584.8634
  19091904.979   -27864319.67849 -21695310.96149  19091906.1904   19091911.2214
  22097692.609    -1043613.78349   -790301.05249  22097693.4004   22097699.4394
  21325892.979    -7987841.64949  -6007548.71749  21325894.0904   21325901.1594
  20562328.688   -18366050.56049 -14262362.80949  20562329.7744   20562335.9864
 96  7  9 20 11 29.9930000  0  5  6 16 24  5 17
  18550950.411   -34760860.57749 -26825545.58449  18550951.8484   18550955.4804
  19091620.508   -27865816.16149 -21696477.04849  19091621.4974   19091626.6334
  22109638.534     -980833.01549   -741381.02549  22109640.2054   22109645.5054
  21342223.536    -7902026.94449  -5940680.18549  21342224.4034   21342230.7914
  20543966.291   -18462546.42049 -14337554.35449  20543967.5894   20543973.5494
 96  7  9 20 11 59.9930000  0  5  6 16 24  5 17
  18540362.203   -34816502.63149 -26868903.02149  18540363.6854   18540367.4084
  19091432.229   -27866807.10049 -21697249.20749  19091433.0274   19091437.9444
  22121568.516     -918125.78549   -692518.28749  22121573.3984   22121578.6614
  21358559.596    -7816180.18149  -5873786.67349  21358560.2654   21358566.0714
  20525628.154   -18558912.41149 -14412644.71449  20525629.8484   20525635.5704
 96  7  9 20 12 29.9930000  0  5  6 16 24  5 17
  18529817.526   -34871913.92949 -26912080.65049  18529819.2144   18529822.8154
  19091338.238   -27867301.72549 -21697634.63049  19091338.9154   19091343.5604
  22133489.232     -855494.54649   -643714.75749  22133491.1024   22133496.1444
  21374904.825    -7730287.60049  -5806857.46549  21374905.5614   21374911.0834
  20507317.101   -18655138.20549 -14487625.81949  20507318.4334   20507324.1034
 96  7  9 20 12 59.9930000  0  5  6 16 24  5 17
  18519316.742   -34927095.46649 -26955079.24849  18519318.3934   18519322.2084
  19091334.654   -27867320.18049 -21697649.00849  19091335.5494   19091340.0204
  22145392.431     -792946.81949   -594976.31649  22145393.1824   22145399.7034
  21391258.132    -7644348.24249  -5739891.82249  21391258.6214   21391265.0544
  20489034.205   -18751216.35649 -14562491.87649  20489035.8094   20489041.2104
 96  7  9 20 13 29.9930000  0  5  6 16 24  5 17
  18508862.012   -34982033.39349 -26997888.01249  18508864.0494   18508867.6214
  19091423.015   -27866853.42849 -21697285.29949  19091424.3034   19091428.8494
  22157278.312     -730481.35049   -546301.96849  22157280.2714   22157286.7944
  21407622.328    -7558353.11649  -5672882.72049  21407622.4374   21407629.3694
  20470779.431   -18847142.52349 -14637239.49149  20470781.3034   20470786.9074
 96  7  9 20 13 59.9930000  0  5  6 16 24  5 17
  18498452.540   -35036737.64949 -27040514.70149  18498454.0524   18498457.9034
  19091603.620   -27865905.21349 -21696546.42649  19091604.6634   19091609.2704
  22169145.033     -668130.52949   -497716.95449  22169146.3074   22169151.0314
  21423996.601    -7472307.14149  -5605833.98549  21423997.8414   21424003.2674
  20452552.871   -18942924.69849 -14711874.90749  20452554.8504   20452560.2674
 96  7  9 20 14 29.9930000  0  5  6 16 24  5 17
  18488084.496   -35091220.41049 -27082968.78849  18488086.5104   18488090.3274
  19091873.729   -27864485.75549 -21695440.35249  19091874.8674   19091879.4374
  22180983.374     -605909.68449   -449233.21049  22180985.6994   22180992.1054
  21440379.151    -7386211.36149  -5538746.45249  21440380.7824   21440387.4304
  20434354.171   -19038558.29149 -14786394.54949  20434356.2514   20434361.5454
 96  7  9 20 14 59.9930000  0  5  6 16 24  5 17
  18477758.321   -35145487.95649 -27125255.18849  18477759.9514   18477763.3614
  19092234.770   -27862588.10849 -21693961.66549  19092235.8904   19092240.5614
  22192799.291     -543818.48949   -400850.51449  22192801.9514   22192806.2234
  21456771.421    -7300075.93949  -5471628.03149  21456772.7364   21456778.3554
  20416180.964   -19134060.59149 -14860811.87849  20416182.5284   20416187.9354
 96  7  9 20 15 29.9930000  0  5  6 16 24  5 17
  18467474.814   -35199528.96049 -27167365.06049  18467476.1614   18467479.5104
  19092690.706   -27860192.51049 -21692094.96449  19092691.3874   19092696.4174
  22204590.192     -481849.12349   -352562.74749  22204594.7244   22204600.9314
  21473168.422    -7213905.08849  -5404482.01749  21473169.0774   21473174.1974
  20398032.141   -19229434.78449 -14935129.38449  20398033.2354   20398038.9794
 96  7  9 20 15 59.9930000  0  5  6 16 24  5 17
  18457229.971   -35253365.58249 -27209315.67349  18457231.0974   18457235.0714
  19093237.793   -27857316.46249 -21689853.88749  19093239.1694   19093243.6304
  22216363.011     -419998.15249   -304367.22449  22216364.1654   22216369.6594
  21489569.982    -7127710.59749  -5337317.56749  21489572.6174   21489578.2904
  20379905.690   -19324687.79049 -15009352.46349  20379907.7874   20379912.7044
 96  7  9 20 16 29.9930000  0  5  6 16 24  5 17
  18447021.074   -35307011.14449 -27251117.40349  18447022.5884   18447026.5174
  19093877.435   -27853956.64049 -21687235.84349  19093878.4604   19093882.8914
  22228114.571     -358236.40149   -256241.22349  22228117.0824   22228122.5734
  21505977.405    -7041494.04149  -5270135.92849  21505978.0684   21505983.8924
  20361802.586   -19419819.68349 -15083481.16949  20361804.2554   20361809.6564
 96  7  9 20 16 59.9930000  0  5  6 16 24  5 17
  18436846.711   -35360479.62749 -27292781.15349  18436847.9314   18436851.9194
  19094606.363   -27850126.96749 -21684251.67949  19094606.9154   19094611.7514
  22239851.695     -296564.12849   -208184.96449  22239853.1844   22239858.3354
  21522382.721    -6955280.36549  -5202956.53149  21522384.0024   21522390.6294
  20343718.902   -19514851.33049 -15157531.75549  20343720.8154   20343725.7514
 96  7  9 20 17 29.9930000  0  6  6 16 24  5 17 23
  18426705.794   -35413768.87749 -27334305.23849  18426707.1184   18426711.2394
  19095423.906   -27845831.09249 -21680904.24149  19095424.8674   19095429.1804
  22251572.230     -234973.02849   -160191.94749  22251573.3894   22251579.4344
  21538791.804    -6869057.00349  -5135769.60449  21538792.4474   21538798.0324
  20325656.877   -19609769.24349 -15231493.71949  20325658.1584   20325663.2994
  22703210.967    -1613396.87959  -1228124.01759  22703210.2064   22703218.4774
 96  7  9 20 17 59.9930000  0  6  6 16 24  5 17 23
  18416604.671   -35466853.51049 -27375669.88049  18416605.8624   18416609.6564
  19096330.815   -27841065.06149 -21677190.44949  19096331.9054   19096336.1954
  22263279.281     -173452.51849   -112253.93149  22263280.8334   22263285.0004
  21555204.870    -6782802.58649  -5068558.46049  21555205.6744   21555212.1934
  20307620.134   -19704550.40849 -15305349.13749  20307621.7154   20307627.5754
  22678282.021    -1744390.27949  -1330196.64849  22678282.8484   22678291.2334
 96  7  9 20 18 29.9930000  0  6  6 16 24  5 17 23
  18406551.065   -35519683.71449 -27416836.27149  18406552.3754   18406556.3354
  19097332.672   -27835800.62449 -21673088.29049  19097333.5664   19097337.7564
  22274971.931     -111991.35449    -64362.17049  22274975.8074   22274981.8224
  21571627.223    -6696499.25349  -5001309.21349  21571629.6474   21571635.0454
  20289616.033   -19799162.76549 -15379073.02249  20289617.8984   20289623.6024
  22653351.880    -1875392.63749  -1432276.24849  22653353.4474   22653362.5254
 96  7  9 20 18 59.9930000  0  6  6 16 24  5 17 23
  18396550.694   -35572235.43149 -27457785.65249  18396552.1714   18396555.9124
  19098427.133   -27830048.86349 -21668606.39649  19098427.7854   19098432.0094
  22286653.570      -50610.42549    -16532.90449  22286655.3464   22286662.1574
  21588060.784    -6610143.04749  -4934018.76449  21588062.4344   21588065.9614
  20271644.484   -19893604.64949 -15452664.06149  20271645.7114   20271651.4854
  22628422.383    -2006397.76449  -1534358.03949  22628424.9514   22628431.4784
 96  7  9 20 19 29.9930000  0  6  6 16 24  5 17 23
  18386606.186   -35624492.47749 -27498505.42449  18386607.9384   18386611.8384
  19099617.072   -27823794.19549 -21663732.62649  19099618.1084   19099622.7134
  22298317.980       10687.12049     31231.36949  22298320.4794   22298326.1204
  21604509.585    -6523709.73549  -4866668.22949  21604509.7804   21604514.0754
  20253710.107   -19987849.37849 -15526101.48449  20253711.6054   20253717.4094
  22603496.565    -2137381.40249  -1636423.06249  22603499.4794   22603506.7644
 96  7  9 20 19 59.9930000  0  6  6 16 24  5 17 23
  18376715.640   -35676469.28249 -27539006.81949  18376717.1274   18376720.8734
  19100900.309   -27817049.31149 -21658476.86749  19100901.6684   19100906.2984
  22309966.110       71886.71549     78919.32649  22309966.2004   22309971.7104
  21620966.109    -6437236.45549  -4799286.54349  21620966.5704   21620969.0944
  20235810.208   -20081912.27649 -15599397.22049  20235812.1574   20235818.1304
  22578574.613    -2268356.37349  -1738481.33949  22578574.9014   22578583.2114
 96  7  9 20 20 29.9930000  0  6  6 16 24  5 17 23
  18366874.010   -35728188.51049 -27579307.51149  18366875.2654   18366879.0464
  19102277.436   -27809812.87949 -21652838.08949  19102278.6004   19102283.2164
  22321593.406      132991.59049    126533.46049  22321594.5464   22321601.5224
  21637425.301    -6350735.62849  -4731883.38949  21637426.3534   21637431.4914
  20217944.692   -20175797.58849 -15672554.57149  20217946.3904   20217952.0754
  22553648.471    -2399330.47149  -1840538.93049  22553651.5404   22553659.0404
 96  7  9 20 20 59.9930000  0  6  6 16 24  5 17 23
  18357078.595   -35779661.64849 -27619416.44649  18357080.3454   18357084.2294
  19103747.094   -27802094.61849 -21646823.86549  19103747.6204   19103752.0054
  22333202.767      194010.11449    174080.29849  22333205.7394   22333212.0564
  21653890.679    -6264209.81949  -4664460.77149  21653892.6104   21653898.1634
  20200112.383   -20269507.66849 -15745575.38449  20200113.9024   20200119.6284
  22528725.939    -2530307.23449  -1942598.59649  22528726.5584   22528735.3554
 96  7  9 20 21 29.9930000  0  6  6 16 24  5 17 23
  18347331.803   -35830882.25549 -27659328.59949  18347333.5784   18347337.4934
  19105309.590   -27793880.50349 -21640423.26049  19105310.4894   19105315.0984
  22344802.949      254968.56549    221580.33549  22344805.6604   22344812.9054
  21670359.099    -6177665.34149  -4597023.63049  21670360.9184   21670365.3314
  20182315.536   -20363030.06849 -15818449.95149  20182317.3664   20182322.4104
  22503803.155    -2661273.18349  -2044649.86649  22503804.8044   22503812.3824
 96  7  9 20 21 59.9930000  0  6  6 16 24  5 17 23
  18337633.714   -35881846.52949 -27699041.00949  18337635.3794   18337639.2194
  19106965.547   -27785179.26649 -21633643.07449  19106966.2964   19106970.8504
  22356395.841      315875.42449    269040.16849  22356396.9274   22356402.6484
  21686829.067    -6091121.77249  -4529587.18149  21686829.7074   21686835.3434
  20164553.339   -20456371.18049 -15891183.24949  20164554.8304   20164560.2524
  22478883.294    -2792235.31749  -2146698.16649  22478884.0294   22478890.8104
 96  7  9 20 22 29.9930000  0  6  6 16 24  5 17 23
  18327992.579   -35932511.72849 -27738520.38149  18327993.9154   18327997.5614
  19108716.229   -27775978.54449 -21626473.68549  19108717.3884   19108721.6894
  22367975.067      376729.19849    316458.63349  22367977.3614   22367982.3874
  21703301.176    -6004555.80449  -4462133.27949  21703302.1564   21703308.1404
  20146827.363   -20549519.97149 -15963766.69449  20146829.2894   20146834.7744
  22453965.537    -2923184.14449  -2248736.09149  22453964.9344   22453972.6184
 96  7  9 20 22 59.9930000  0  6  6 16 24  5 17 23
  18318413.650   -35982850.44349 -27777745.34549  18318414.9524   18318418.6834
  19110563.163   -27766272.52949 -21618910.55449  19110564.2404   19110568.6574
  22379542.029      437523.00449    363830.37849  22379544.2204   22379549.9714
  21719779.551    -5917964.96849  -4394660.00349  21719779.5104   21719785.6644
  20129137.858   -20642481.81249 -16036204.45549  20129138.9684   20129144.3434
  22429048.804    -3054115.40149  -2350760.33449  22429048.7874   22429056.7474
 96  7  9 20 23 29.9930000  0  6  6 16 24  5 17 23
  18308894.931   -36032870.21049 -27816721.78149  18308896.2594   18308900.0224
  19112508.879   -27756048.55849 -21610943.82849  19112509.8234   19112514.0424
  22391097.217      498239.23749    411141.68049  22391098.0784   22391103.4304
  21736262.144    -5831344.48849  -4327163.62749  21736263.9524   21736269.3894
  20111481.530   -20735262.81549 -16108501.31449  20111483.3834   20111488.9034
  22404133.906    -3185037.95149  -2452777.77449  22404135.9634   22404143.0614
 96  7  9 20 23 59.9930000  0  6  6 16 24  5 17 23
  18299436.672   -36082574.63449 -27855452.49049  18299437.8784   18299441.8964
  19114555.526   -27745292.58649 -21602562.55249  19114556.6654   19114560.9414
  22402636.590      558884.40649    458397.60649  22402640.1884   22402645.1784
  21752756.072    -5744667.42549  -4259623.14749  21752757.5634   21752763.4484
  20093861.877   -20827857.19449 -16180652.74749  20093863.4264   20093868.3964
  22379223.332    -3315941.93149  -2554780.74049  22379225.1834   22379233.0884
 96  7  9 20 24 29.9930000  0  6  6 16 24  5 17 23
  18290036.156   -36131973.03449 -27893944.74549  18290037.6944   18290041.5704
  19116705.682   -27733992.76249 -21593757.49549  19116706.8244   19116711.2984
  22414163.995      619461.99849    505600.89449  22414166.0574   22414172.6694
  21769264.474    -5657917.24749  -4192025.70049  21769265.6994   21769272.1494
  20076275.244   -20920273.74649 -16252665.61849  20076276.9214   20076282.2004
  22354318.882    -3446820.90549  -2656764.22149  22354319.3594   22354327.7004
 96  7  9 20 24 59.9930000  0  6  6 16 24  5 17 23
  18280688.176   -36181097.70749 -27932223.70449  18280689.5474   18280693.3824
  19118959.084   -27722153.77849 -21584532.31049  19118959.8044   19118964.1194
  22425682.028      679983.56649    552760.49749  22425683.7564   22425688.4024
  21785786.553    -5571090.90149  -4124368.91149  21785788.1524   21785794.0604
  20058724.603   -21012500.35949 -16324530.47749  20058726.4264   20058732.4884
  22329418.239    -3577674.53349  -2758727.96149  22329419.8434   22329427.3614
 96  7  9 20 25 29.9930000  0  6  6 16 24  5 17 23
  18271390.631   -36229956.35349 -27970295.37449  18271391.9924   18271395.8164
  19121313.772   -27709777.15849 -21574888.19249  19121314.8844   19121319.2574
  22437192.994      740470.85549    599893.40749  22437192.5964   22437200.2734
  21802327.056    -5484173.51349  -4056641.18649  21802328.3764   21802335.1934
  20041215.369   -21104515.84849 -16396230.83249  20041217.0564   20041222.8484
  22304525.345    -3708489.40249  -2860661.49449  22304526.2794   22304533.2014
 96  7  9 20 25 59.9930000  0  6  6 16 24  5 17 23
  18262145.078   -36278541.66249 -28008154.04349  18262146.5734   18262150.2834
  19123765.343   -27696893.82949 -21564849.22849  19123766.4864   19123770.8974
  22448694.234      800916.85549    646994.11849  22448698.0944   22448702.3484
  21818877.900    -5397191.08749  -3988862.76649  21818880.2194   21818886.9784
  20023744.159   -21196324.30649 -16467769.85649  20023746.2924   20023751.6774
  22279640.965    -3839259.57049  -2962560.20149  22279640.8464   22279648.4574
 96  7  9 20 26 29.9930000  0  6  6 16 24  5 17 23
  18252956.696   -36326827.09949 -28045779.05049  18252958.1894   18252961.6474
  19126312.243   -27683510.65049 -21554420.78049  19126312.8924   19126317.8274
  22460187.539      861313.01049    694056.01749  22460189.0574   22460194.9824
  21835440.521    -5310153.38349  -3921041.29449  21835443.8294   21835450.1394
  20006315.322   -21287913.91749 -16539138.35849  20006317.0544   20006322.7914
  22254768.139    -3969961.52149  -3064405.74549  22254767.8444   22254775.7394
 96  7  9 20 26 59.9930000  0  6  6 16 24  5 17 23
  18243830.317   -36374785.53149 -28083149.25349  18243831.7314   18243835.5714
  19128954.584   -27669624.32349 -21543600.26949  19128955.4884   19128960.6704
  22471671.777      921666.74049    741084.84049  22471676.3534   22471682.6274
  21852015.138    -5223060.35549  -3853176.70349  21852016.2064   21852023.1234
  19988932.168   -21379264.11049 -16610320.30049  19988933.5924   19988939.2664
  22229913.284    -4100571.47749  -3166179.61249  22229914.2434   22229921.8674
 96  7  9 20 27 29.9930000  0  7  6 16 24 26  5 17 23
  18234769.892   -36422399.76649 -28120251.24749  18234771.2154   18234774.6964
  19131691.918   -27655241.24549 -21532392.67949  19131692.5164   19131697.3964
  22483150.207      981974.96949    788078.23849  22483150.3414   22483159.0864
  22344548.238    -5222075.97059  -4046836.76959  22344551.1384   22344556.9914
  21868595.654    -5135935.10449  -3785287.01649  21868596.1474   21868602.6854
  19971591.016   -21470392.21649 -16681329.18249  19971592.8124   19971597.9294
  22205076.424    -4231089.71549  -3267881.98849  22205076.8514   22205084.6934
 96  7  9 20 27 59.9920000  0  7  6 16 24 26  5 17 23
  18225776.497   -36469661.01249 -28157078.18749  18225777.7784   18225781.3924
  19134522.590   -27640364.47249 -21520800.39149  19134523.7054   19134528.3374
  22494610.771     1042216.42349    835019.62549  22494614.1114   22494625.0454
  22323796.303    -5331138.40949  -4131820.41449  22323798.7964   22323803.6134
  21885175.904    -5048802.71549  -3717391.75949  21885176.9414   21885183.7734
  19954290.588   -21561307.52149 -16752172.24849  19954292.0784   19954297.5174
  22180256.157    -4361517.22949  -3369513.66849  22180257.4694   22180265.1154
 96  7  9 20 28 29.9920000  0  7  6 16 24 26  5 17 23
  18216844.012   -36516601.33649 -28193655.06349  18216845.3774   18216849.0214
  19137446.048   -27625000.57049 -21508828.52149  19137447.2104   19137451.9204
  22506066.375     1102391.16649    881908.98849  22506066.9344   22506072.0194
  22303045.390    -5440184.62449  -4216791.40049  22303046.6724   22303052.8174
  21901757.951    -4961669.59949  -3649495.93149  21901757.9114   21901765.2024
  19937021.676   -21652053.09749 -16822883.06249  19937023.7424   19937029.1774
  22155445.924    -4491896.39449  -3471107.66649  22155446.7154   22155454.5914
 96  7  9 20 28 59.9920000  0  7  6 16 24 26  5 17 23
  18207968.619   -36563239.86849 -28229996.77049  18207970.3964   18207974.0604
  19140460.959   -27609157.46449 -21496483.24849  19140462.0224   19140466.7484
  22517501.740     1162497.60649    928745.12649  22517502.1804   22517507.5974
  22282297.278    -5549222.80949  -4301756.14649  22282298.3374   22282302.8374
  21918333.628    -4874552.60749  -3581612.66749  21918335.6884   21918342.6334
  19919784.030   -21742638.69249 -16893469.20949  19919785.7764   19919791.3164
  22130638.864    -4622257.82149  -3572687.85749  22130640.4264   22130648.0744
 96  7  9 20 29 29.9920000  0  7  6 16 24 26  5 17 23
  18199155.981   -36609552.11149 -28266084.22849  18199157.5274   18199161.1834
  19143573.822   -27592800.40249 -21483737.48949  19143574.8394   19143579.4764
  22528931.247     1222562.55949    975548.90249  22528933.7094   22528937.6554
  22261555.931    -5658221.42449  -4386690.03649  22261555.6974   22261560.8434
  21934914.979    -4787425.31449  -3513721.38849  21934916.1754   21934923.2154
  19902581.883   -21833036.76049 -16963909.23949  19902583.3214   19902588.5484
  22105839.609    -4752582.59949  -3674239.51049  22105840.4144   22105846.9244
 96  7  9 20 29 59.9920000  0  7  6 16 24 26  5 17 23
  18190407.078   -36655526.64949 -28301908.54249  18190408.6464   18190412.4104
  19146788.961   -27575904.09849 -21470571.54249  19146790.4954   19146794.8024
  22540357.784     1282600.53149   1022331.69149  22540359.5674   22540366.9144
  22240820.510    -5767183.86049  -4471595.74049  22240820.4404   22240827.5554
  21951500.837    -4700263.73549  -3445803.39649  21951502.7704   21951509.1044
  19885417.591   -21923234.07349 -17034192.83049  19885419.3844   19885424.9684
  22081049.245    -4882844.52449  -3775742.18949  22081052.1254   22081059.5294
 96  7  9 20 30 29.9920000  0  7  6 16 24 26  5 17 23
  18181725.436   -36701148.78449 -28337458.25349  18181727.1074   18181730.8574
  19150108.775   -27558459.59149 -21456978.42349  19150109.7294   19150114.3014
  22551780.922     1342631.86449   1069109.32349  22551782.0494   22551787.1104
  22220090.560    -5876114.97549  -4556477.03749  22220093.2564   22220099.0854
  21968096.007    -4613057.45249  -3377850.55549  21968097.7904   21968104.7624
  19868293.789   -22013220.45949 -17104312.06549  19868295.5854   19868301.0604
  22056276.957    -5013030.17549  -3877185.42249  22056278.9504   22056285.6674
 96  7  9 20 30 59.9920000  0  7  6 16 24 26  5 17 23
  18173112.393   -36746411.11449 -28372727.60049  18173113.9444   18173117.8564
  19153532.582   -27540467.40749 -21442958.54149  19153533.4134   19153538.1384
  22563197.101     1402634.94149   1115864.92349  22563199.4834   22563206.6244
  22199369.230    -5985008.15549  -4641328.77849  22199370.9394   22199376.6534
  21984698.560    -4525813.46849  -3309868.33449  21984699.5284   21984707.6594
  19851216.040   -22102964.68149 -17174242.59749  19851217.6884   19851223.3404
  22031520.392    -5143121.22049  -3978554.97049  22031522.6634   22031530.1554
 96  7  9 20 31 29.9920000  0  7  6 16 24 26  5 17 23
  18164569.423   -36791307.56249 -28407711.84249  18164570.3604   18164574.1464
  19157057.972   -27521941.45149 -21428522.73449  19157058.8294   19157063.3364
  22574610.147     1462609.66049   1162598.39049  22574612.7434   22574619.0834
  22178656.990    -6093858.69849  -4726147.28849  22178657.2774   22178663.2544
  22001307.388    -4438529.89549  -3241855.27149  22001308.6374   22001315.1004
  19834183.372   -22192473.67949 -17243989.84449  19834184.5814   19834190.3084
  22006787.162    -5273105.62049  -4079841.38649  22006787.6844   22006794.5814
 96  7  9 20 31 59.9920000  0  6  6 16 26  5 17 23
  18156100.133   -36835811.03149 -28442389.86149  18156101.7274   18156105.7364
  19160685.099   -27502880.40349 -21413669.97349  19160685.9784   19160690.7414
  22157952.546    -6202651.36249  -4810920.69949  22157954.5034   22157961.1004
  22017929.379    -4351185.15449  -3173794.55249  22017930.3344   22017937.8614
  19817199.736   -22281722.97649 -17313534.72049  19817201.4494   19817206.7224
  21982077.752    -5402953.87249  -4181021.73749  21982078.2844   21982086.1054
 96  7  9 20 32 29.9920000  0  6  6 16 26  5 17 23
  18147704.806   -36879929.99049 -28476768.26449  18147706.1054   18147710.1994
  19164409.158   -27483309.75349 -21398420.11749  19164410.1114   19164414.7094
  22137262.429    -6311374.83249  -4895640.20149  22137265.7234   22137272.4004
  22034560.813    -4263788.19449  -3105693.12949  22034561.6494   22034568.6904
  19800267.644   -22370700.72749 -17382868.00249  19800269.5204   19800275.0014
  21957392.466    -5532675.76449  -4282103.62749  21957393.2144   21957399.5444
 96  7  9 20 32 59.9920000  0  6  6 16 26  5 17 23
  18139378.597   -36923685.08349 -28510863.14149  18139380.0404   18139383.7034
  19168227.776   -27463243.97749 -21382784.44849  19168228.4914   19168233.2644
  22116590.251    -6420017.44649  -4980296.69849  22116591.0664   22116597.3224
  22051200.810    -4176350.68949  -3037560.11749  22051201.6084   22051207.5244
  19783387.569   -22459407.98749 -17451990.50849  19783389.1864   19783394.1404
  21932730.419    -5662277.00949  -4383091.52049  21932731.2504   21932738.3274
 96  7  9 20 33 29.9920000  0  6  6 16 26  5 17 23
  18131120.275   -36967081.19349 -28544678.28849  18131121.8154   18131125.4684
  19172137.672   -27442695.96749 -21366773.01349  19172138.7084   19172143.4774
  22095928.055    -6528595.39249  -5064902.79149  22095929.5964   22095936.3444
  22067843.288    -4088880.77949  -2969401.87449  22067845.6324   22067851.9244
  19766552.289   -22547878.45349 -17520928.50249  19766553.5254   19766559.0254
  21908088.901    -5791765.33649  -4483991.41449  21908090.4464   21908097.1854
 96  7  9 20 33 59.9920000  0  6  6 16 26  5 17 23
  18122929.991   -37010123.29349 -28578217.58349  18122931.4074   18122934.9114
  19176142.338   -27421653.34449 -21350376.16949  19176142.8024   19176147.7374
  22075279.842    -6637110.96849  -5149460.30249  22075279.9814   22075286.3674
  22084494.698    -4001390.70949  -2901227.90749  22084494.1084   22084500.8244
  19749762.053   -22636110.80649 -17589680.94849  19749763.6444   19749768.7114
  21883469.856    -5921136.47949  -4584800.01249  21883470.8314   21883478.0924
 96  7  9 20 34 29.9920000  0  6  6 16 26  5 17 23
  18114808.796   -37052798.91449 -28611471.31349  18114810.3444   18114813.8694
  19180246.114   -27400087.48449 -21333571.60149  19180246.6764   19180251.5804
  22054645.939    -6745540.54749  -5233950.79149  22054646.5584   22054653.8934
  22101150.652    -3913859.28349  -2833021.72649  22101151.1084   22101158.0204
  19733018.369   -22724101.53049 -17658245.12249  19733019.4124   19733024.5534
  21858875.645    -6050380.83649  -4685509.80249  21858876.9254   21858882.6304
 96  7  9 20 34 59.9920000  0  6  6 16 26  5 17 23
  18106760.953   -37095093.71449 -28644428.30149  18106761.6464   18106765.4614
  19184454.333   -27377971.60449 -21316338.45049  19184455.6884   19184460.2124
  22034024.714    -6853882.51049  -5318373.00049  22034028.5954   22034035.8904
  22117815.143    -3826284.01349  -2764781.35849  22117816.0394   22117823.0654
  19716315.983   -22811870.34849 -17726636.37449  19716317.2544   19716322.5294
  21834306.733    -6179493.21349  -4786116.75449  21834308.0054   21834313.6744
 96  7  9 20 35 29.9920000  0  6  6 16 26  5 17 23
  18098784.187   -37137008.51649 -28677089.18149  18098785.4794   18098789.4664
  19188764.844   -27355319.92749 -21298687.79149  19188765.7704   19188770.4044
  22013425.677    -6962149.34849  -5402736.68049  22013425.3644   22013433.0524
  22134486.374    -3738675.48149  -2696515.07749  22134488.0194   22134494.1804
  19699651.606   -22899442.13349 -17794874.09549  19699653.0224   19699658.5704
  21809759.528    -6308488.35049  -4886632.35149  21809759.6664   21809767.5874
 96  7  9 20 35 59.9920000  0  6  6 16 26  5 17 23
  18090877.595   -37178559.26249 -28709466.38049  18090878.9904   18090882.9004
  19193175.823   -27332140.41449 -21280625.83749  19193176.6744   19193181.4724
  21992837.323    -7070330.38049  -5487033.48449  21992840.1014   21992847.1714
  22151162.047    -3651051.24649  -2628236.56749  22151161.6924   22151169.0974
  19683025.214   -22986814.82149 -17862956.68349  19683026.6924   19683032.1234
  21785233.514    -6437380.69649  -4987067.85249  21785232.1904   21785240.6764
 96  7  9 20 36 29.9920000  0  6  6 16 26  5 17 23
  18083037.495   -37219760.00549 -28741570.85449  18083038.8754   18083042.3844
  19197684.129   -27308449.23149 -21262165.17749  19197684.9184   19197689.7874
  21972265.618    -7178432.90549  -5571269.12549  21972268.7454   21972276.3294
  22167834.119    -3563428.42449  -2559959.15249  22167836.1464   22167843.2324
  19666437.573   -23073984.83549 -17930881.33749  19666438.8524   19666443.6804
  21760720.908    -6566184.76649  -5087434.55949  21760723.0924   21760729.4314
 96  7  9 20 36 59.9920000  0  7  6 16 26  5 17 23 22
  18075266.953   -37260594.86549 -28773390.22349  18075268.2694   18075271.7634
  19202292.210   -27284231.85449 -21243294.49449  19202293.4994   19202298.0534
  21951712.565    -7286429.70049  -5655422.38549  21951715.0254   21951724.7854
  22184509.305    -3475805.35849  -2491681.56949  22184509.3114   22184516.5884
  19649896.112   -23160908.26349 -17998613.84249  19649898.0574   19649902.7414
  21736231.891    -6694878.45149  -5187715.25649  21736232.6864   21736239.0134
  22376424.279    -2861572.82659  -1946787.12359  22376424.2974   22376429.4484
 96  7  9 20 37 29.9920000  0  7  6 16 26  5 17 23 22
  18067566.891   -37301058.36249 -28804920.22049  18067568.3044   18067571.6704
  19207000.553   -27259491.31149 -21224016.14849  19207001.4894   19207006.2254
  21931189.765    -7394302.45049  -5739478.96349  21931187.7204   21931197.0184
  22201185.294    -3388167.02149  -2423392.07549  22201188.0144   22201194.3144
  19633409.756   -23247546.47649 -18066124.10449  19633411.0974   19633415.9194
  21711766.017    -6823447.11149  -5287898.53149  21711766.8664   21711774.2584
  22356253.227    -2967576.39249  -2029387.27949  22356253.1744   22356257.3764
 96  7  9 20 37 59.9920000  0  7  6 16 26  5 17 23 22
  18059934.455   -37341168.38849 -28836174.78249  18059935.6004   18059939.5124
  19211805.641   -27234239.96949 -21204339.77649  19211806.3394   19211811.4044
  21910680.396    -7502062.35249  -5823447.63349  21910682.4464   21910690.4064
  22217864.284    -3300523.34549  -2355098.42549  22217865.6624   22217872.5684
  19616978.061   -23333894.97149 -18133408.61549  19616979.2824   19616984.3194
  21687321.865    -6951897.21449  -5387989.42849  21687322.7164   21687330.6114
  22336138.507    -3073273.54149  -2111748.65849  22336138.9534   22336144.0854
 96  7  9 20 38 29.9920000  0  7  6 16 26  5 17 23 22
  18052370.911   -37380915.49249 -28867146.54749  18052372.0244   18052375.4744
  19216705.406   -27208490.90049 -21184275.56849  19216706.4954   19216711.1134
  21890195.513    -7609711.24449  -5907329.78049  21890196.9204   21890204.7654
  22234545.391    -3212865.93849  -2286794.07249  22234545.8294   22234553.0254
  19600601.797   -23419953.31849 -18200467.03549  19600602.9604   19600608.3034
  21662903.231    -7080221.08449  -5487981.94449  21662904.8154   21662910.9804
  22316084.383    -3178658.20849  -2193866.53749  22316084.3884   22316090.7944
 96  7  9 20 38 59.9920000  0  7  6 16 26  5 17 23 22
  18044879.906   -37420279.80449 -28897820.03649  18044881.2454   18044884.5674
  19221700.492   -27182241.88749 -21163821.79449  19221701.5344   19221706.1344
  21869733.262    -7717226.77649  -5991108.02149  21869736.7994   21869745.3204
  22251229.861    -3125184.05249  -2218470.66449  22251231.6054   22251238.4294
  19584278.804   -23505731.81949 -18267307.39449  19584280.0464   19584285.2284
  21638511.581    -7208403.00449  -5587863.84449  21638511.6554   21638518.4504
  22296092.979    -3283713.14649  -2275727.49849  22296093.4164   22296098.3574
 96  7  9 20 39 29.9920000  0  7  6 16 26  5 17 23 22
  18037461.984   -37459261.89649 -28928195.69049  18037463.2544   18037466.7094
  19226786.485   -27155515.94649 -21142996.38649  19226787.2254   19226791.7594
  21849297.733    -7824626.13949  -6074795.73149  21849300.0374   21849307.6754
  22267912.346    -3037504.24649  -2150148.86349  22267916.9964   22267923.6334
  19568001.438   -23591266.45549 -18333957.72549  19568003.1184   19568008.7184
  21614145.590    -7336446.68149  -5687638.04349  21614145.0324   21614152.8244
  22276159.275    -3388457.57549  -2357346.48449  22276161.8934   22276166.7764
 96  7  9 20 39 59.9920000  0  7  6 16 26  5 17 23 22
  18030118.719   -37497851.16649 -28958265.24849  18030120.1424   18030123.3614
  19231961.048   -27128322.93749 -21121807.02749  19231961.7224   19231966.2524
  21828882.507    -7931909.09749  -6158392.74149  21828885.0304   21828892.9124
  22284595.809    -2949841.02649  -2081840.00849  22284598.0554   22284605.8344
  19551770.471   -23676561.62749 -18400421.47049  19551771.9674   19551777.3184
  21589806.867    -7464344.12949  -5787298.26549  21589807.9684   21589814.5124
  22256291.762    -3492877.86749  -2438712.90649  22256290.1964   22256296.0984
 96  7  9 20 40 29.9920000  0  7  6 16 26  5 17 23 22
  18022853.229   -37536030.28249 -28988015.20949  18022854.5194   18022858.0864
  19237227.088   -27100649.87649 -21100243.60849  19237227.6484   19237232.2704
  21808494.207    -8039061.38449  -6241887.92949  21808495.1964   21808502.3854
  22301274.617    -2862199.06949  -2013547.70149  22301276.2244   22301283.9864
  19535584.523   -23761618.23649 -18466699.31549  19535586.2744   19535591.5124
  21565498.704    -7592082.76549  -5886834.76249  21565500.2124   21565507.2184
  22236485.062    -3596944.25349  -2519803.56149  22236487.4364   22236492.6394
 96  7  9 20 40 59.9920000  0  7  6 16 26  5 17 23 22
  18015666.225   -37573797.89649 -29017444.51949  18015667.3274   18015671.2674
  19242584.993   -27072493.48649 -21078303.57049  19242585.7544   19242590.5614
  21788128.746    -8146085.44249  -6325283.18849  21788128.2584   21788136.0514
  22317947.041    -2774583.03849  -1945275.60749  22317947.8724   22317956.8934
  19519443.789   -23846440.06249 -18532794.21349  19519445.0834   19519450.4484
  21541221.721    -7719660.12549  -5986245.59249  21541222.1734   21541228.6544
  22216753.884    -3700646.01649  -2600610.10149  22216753.2954   22216759.0874
 96  7  9 20 41 29.9920000  0  7  6 16 26  5 17 23 22
  18008556.108   -37611162.19049 -29046559.55149  18008557.3694   18008561.2454
  19248033.495   -27043859.37849 -21055991.28249  19248034.5764   19248039.3124
  21767784.402    -8252993.03349  -6408587.69449  21767785.1134   21767791.1614
  22334618.743    -2686981.02149  -1877014.44749  22334617.5384   22334627.7104
  19503348.292   -23931022.85249 -18598702.84649  19503349.4924   19503355.0994
  21516975.888    -7847075.69249  -6085530.34649  21516975.0724   21516983.1604
  22197089.578    -3803978.80349  -2681129.10449  22197089.1184   22197095.5124
 96  7  9 20 41 59.9920000  0  7  6 16 26  5 17 23 22
  18001521.011   -37648132.75849 -29075367.78649  18001522.1654   18001525.7594
  19253575.416   -27014739.93649 -21033300.81249  19253575.8324   19253580.2704
  21747463.387    -8359775.58149  -6491794.74249  21747464.9804   21747471.1704
  22351288.315    -2599373.17949  -1808748.73749  22351288.2194   22351298.1784
  19487297.922   -24015365.83949 -18664424.62449  19487299.6464   19487304.6134
  21492758.137    -7974331.56249  -6184690.64449  21492759.7064   21492766.5224
  22177498.127    -3906930.82049  -2761351.41949  22177498.7164   22177505.5844
 96  7  9 20 42 29.9920000  0  7  6 16 26  5 17 23 22
  17994558.893   -37684718.48649 -29103876.14449  17994560.2114   17994563.5804
  19259210.926   -26985123.80349 -21010223.31849  19259211.6944   19259216.2044
  21727168.098    -8466428.25349  -6574900.58949  21727170.2864   21727176.3554
  22367962.187    -2511752.73449  -1740473.22449  22367963.0254   22367973.4724
  19471290.258   -24099487.44949 -18729973.90049  19471291.5934   19471297.2154
  21468573.285    -8101426.12849  -6283725.26949  21468574.4064   21468581.6254
  22157977.010    -4009515.92449  -2841287.83649  22157977.9374   22157982.5354
 96  7  9 20 42 59.9920000  0  7  6 16 26  5 17 23 22
  17987671.797   -37720910.68249 -29132077.85149  17987672.9784   17987676.5814
  19264940.633   -26955013.93649 -20986761.09149  19264941.4874   19264946.0804
  21706900.478    -8572935.04949  -6657892.76649  21706902.7564   21706907.8714
  22384641.700    -2424102.70349  -1672174.65149  22384640.8664   22384652.0174
  19455327.620   -24183372.19349 -18795338.60649  19455329.1204   19455334.3444
  21444420.356    -8228354.78249  -6382630.62049  21444420.2974   21444427.3224
  22138524.473    -4111740.96549  -2920943.68049  22138525.0264   22138530.4824
